[[{"header":{"parameterUnit":"m.s-1","parameterCategory":1,"la1":31.0,"la2":29.5877,"lo1":-88.7671,"lo2":-86.6584,"dy":0.0162,"dx":0.0185,"nx":115,"ny":88,"refTime":"2023-08-05T00:00:00:Z","depth":0,"parameterNumber":2,"parameterNumberName":"U-component_of_WINDS"},"data":[0.0,0.0,0.0,0.0,0.0,0.0,0.0,0.0,0.0,0.0,0.0,0.0,0.0,0.0,0.0,0.0,0.0,0.0,0.0,0.0,0.0,0.0,0.0,0.0,0.0,0.0,0.0,0.0,0.0,0.0,0.0,0.0,0.0,0.0,0.0,0.0,0.0,0.0,0.0,0.0,0.0,0.0,0.0,0.0,0.0,0.0,0.0,0.0,0.0,0.0,0.0,0.0,0.0,0.0,0.0,0.0,0.0,0.0,0.0,0.0,0.0,0.0,0.0,0.0,0.0,0.0,0.0,0.0,0.0,0.0,0.0,0.0,0.0,0.0,0.0,0.0,0.0,0.0,0.0,0.0,0.0,0.0,0.0,0.0,0.0,0.0,0.0,0.0,0.0,0.0,0.0,0.0,0.0,0.0,0.0,0.0,0.0,0.0,0.0,0.0,0.0,0.0,0.0,0.0,0.0,0.0,0.0,0.0,0.0,0.0,0.0,0.0,0.0,0.0,0.0,0.0,0.0,0.0,0.0,0.0,0.0,0.0,0.0,0.0,0.0,0.0,0.0,0.0,0.0,0.0,0.0,0.0,0.0,0.0,0.0,0.0,0.0,0.0,0.0,0.0,0.0,0.0,0.0,0.0,0.0,0.0,0.0,0.0,0.0,0.0,0.0,0.0,0.0,0.0,0.0,0.0,0.0,0.0,0.0,0.0,0.0,0.0,0.0,0.0,0.0,0.0,0.0,0.0,0.0,0.0,0.0,0.0,0.0,0.0,0.0,0.0,0.0,0.0,0.0,0.0,0.0,0.0,0.0,0.0,0.0,0.0,0.0,0.0,0.0,0.0,0.0,0.0,0.0,0.0,0.0,0.0,0.0,0.0,0.0,0.0,0.0,0.0,0.0,0.0,0.0,0.0,0.0,0.0,0.0,0.0,0.0,0.0,0.0,0.0,0.0,0.0,0.0,0.0,0.0,0.0,0.0,0.0,0.0,0.0,0.0,0.0,0.0,0.0,0.0,0.0,0.0,0.0,0.0,0.0,0.0,0.0,0.0,0.0,0.0,0.0,0.0,0.0,0.0,0.0,0.0,0.0,0.0,0.0,0.0,0.0,0.0,0.0,0.0,0.0,0.0,0.0,0.0,0.0,0.0,0.0,0.0,0.0,0.0,0.0,0.0,0.0,0.0,0.0,0.0,0.0,0.0,0.0,0.0,0.0,0.0,0.0,0.0,0.0,0.0,0.0,0.0,0.0,0.0,0.0,0.0,0.0,0.0,0.0,0.0,0.0,0.0,0.0,0.0,0.0,0.0,0.0,0.0,0.0,0.0,0.0,0.0,0.0,0.0,0.0,0.0,0.0,0.0,0.0,0.0,0.0,0.0,0.0,0.0,0.0,0.0,0.0,0.0,0.0,0.0,0.0,0.0,0.0,0.0,0.0,0.0,0.0,0.0,0.0,0.0,0.0,0.0,0.0,0.0,0.0,0.0,0.0,0.0,0.0,0.0,0.0,0.0,0.0,0.0,0.0,0.0,0.0,0.0,0.0,0.0,0.0,0.0,0.0,0.0,0.0,0.0,0.0,0.0,0.0,0.0,0.0,0.0,0.0,0.0,0.0,0.0,0.0,0.0,0.0,0.0,0.0,0.0,0.0,0.0,0.0,0.0,0.0,0.0,0.0,0.0,0.0,0.0,0.0,0.0,0.0,0.0,0.0,0.0,0.0,0.0,0.0,0.0,0.0,0.0,0.0,0.0,0.0,0.0,0.0,0.0,0.0,0.0,0.0,0.0,0.0,0.0,0.0,0.0,0.0,0.0,0.0,0.0,0.0,0.0,0.0,0.0,0.0,0.0,0.0,0.0,0.0,0.0,0.0,0.0,0.0,0.0,0.0,0.0,0.0,0.0,0.0,0.0,0.0,0.0,0.0,0.0,0.0,0.0,0.0,0.0,0.0,0.0,0.0,0.0,0.0,0.0,0.0,0.0,0.0,0.0,0.0,0.0,0.0,0.0,0.0,0.0,0.0,0.0,0.0,0.0,0.0,0.0,0.0,0.0,0.0,0.0,0.0,0.0,0.0,0.0,0.0,0.0,0.0,0.0,0.0,0.0,0.0,0.0,0.0,0.0,0.0,0.0,0.0,0.0,0.0,0.0,0.0,0.0,0.0,0.0,0.0,0.0,0.0,0.0,0.0,0.0,0.0,0.0,0.0,0.0,0.0,0.0,0.0,0.0,0.0,0.0,0.0,0.0,0.0,0.0,0.0,0.0,0.0,0.0,0.0,0.0,0.0,0.0,0.0,0.0,0.0,0.0,0.0,0.0,0.0,0.0,0.0,0.0,0.0,0.0,0.0,0.0,0.0,0.0,0.0,0.0,0.0,0.0,0.0,0.0,0.0,0.0,0.0,0.0,0.0,0.0,0.0,0.0,0.0,0.0,0.0,0.0,0.0,0.0,0.0,0.0,0.0,0.0,0.0,0.0,0.0,0.0,0.0,0.0,0.0,0.0,0.0,0.0,0.0,0.0,0.0,0.0,0.0,0.0,0.0,0.0,0.0,0.0,0.0,0.0,0.0,0.0,0.0,0.0,0.0,0.0,0.0,0.0,0.0,0.0,0.0,0.0,0.0,0.0,0.0,0.0,0.0,0.0,0.0,0.0,0.0,0.0,0.0,0.0,0.0,0.0,0.0,0.0,0.0,0.0,0.0,0.0,0.0,0.0,0.0,0.0,0.0,0.0,0.0,0.0,0.0,0.0,0.0,0.0,0.0,0.0,0.0,0.0,0.0,0.0,0.0,0.0,0.0,0.0,0.0,0.0,0.0,0.0,0.0,0.0,0.0,0.0,0.0,0.0,0.0,0.0,0.0,0.0,0.0,0.0,0.0,0.0,0.0,0.0,0.0,0.0,0.0,0.0,0.0,0.0,0.0,0.0,0.0,0.0,0.0,0.0,0.0,0.0,0.0,0.0,0.0,0.0,0.0,0.0,0.0,0.0,0.0,0.0,0.0,0.0,0.0,0.0,0.0,0.0,0.0,0.0,0.0,0.0,0.0,0.0,0.0,0.0,0.0,0.0,0.0,0.0,0.0,0.0,0.0,0.0,0.0,0.0,0.0,0.0,0.0,0.0,0.0,0.0,0.0,0.0,0.0,0.0,0.0,0.0,0.0,0.0,0.0,0.0,0.0,0.0,0.0,0.0,0.0,0.0,0.0,0.0,0.0,0.0,0.0,0.0,0.0,0.0,0.0,0.0,0.0,0.0,0.0,0.0,0.0,0.0,0.0,0.0,0.0,0.0,0.0,0.0,0.0,0.0,0.0,0.0,0.0,0.0,0.0,0.0,0.0,0.0,0.0,0.0,0.0,0.0,0.0,0.0,0.0,0.0,0.0,0.0,0.0,0.0,0.0,0.0,0.0,0.0,0.0,0.0,0.0,0.0,0.0,0.0,0.0,0.0,0.0,0.0,0.0,0.0,0.0,0.0,0.0,0.0,0.0,0.0,0.0,0.0,0.0,0.0,0.0,0.0,0.0,0.0,0.0,0.0,0.0,0.0,0.0,0.0,0.0,0.0,0.0,0.0,0.0,0.0,0.0,0.0,0.0,0.0,0.0,0.0,0.0,0.0,0.0,0.0,0.0,0.0,0.0,0.0,0.0,0.0,0.0,0.0,0.0,0.0,0.0,0.0,0.0,0.0,0.0,0.0,0.0,0.0,0.0,0.0,0.0,0.0,0.0,0.0,0.0,0.0,0.0,0.0,0.0,0.0,0.0,0.0,0.0,0.0,0.0,0.0,0.0,0.0,0.0,0.0,0.0,0.0,0.0,0.0,0.0,0.0,0.0,0.0,0.0,0.0,0.0,0.0,0.0,0.0,0.0,0.0,0.0,0.0,0.0,0.0,0.0,0.0,0.0,0.0,0.0,0.0,0.0,0.0,0.0,0.0,0.0,0.0,0.0,0.0,0.0,0.0,0.0,0.0,0.0,0.0,0.0,0.0,0.0,0.0,0.0,0.0,0.0,0.0,0.0,0.0,0.0,0.0,0.0,0.0,0.0,0.0,0.0,0.0,0.0,0.0,0.0,0.0,0.0,0.0,0.0,0.0,0.0,0.0,0.0,0.0,0.0,0.0,0.0,0.0,0.0,0.0,0.0,0.0,0.0,0.0,0.0,0.0,0.0,0.0,0.0,0.0,0.0,0.0,0.0,0.0,0.0,0.0,0.0,0.0,0.0,0.0,0.0,0.0,0.0,0.0,0.0,0.0,0.0,0.0,0.0,0.0,0.0,-0.7189,0.0,0.0,0.0,0.0,0.0,0.0,0.0,0.0,0.0,0.0,0.0,0.0,0.0,0.0,0.0,0.0,0.0,0.0,0.0,0.0,0.0,0.0,0.0,0.0,0.0,0.0,0.0,0.0,0.0,0.0,0.0,0.0,0.0,0.0,0.0,0.0,0.0,0.0,0.0,0.0,0.0,0.0,0.0,0.0,0.0,0.0,0.0,0.0,0.0,0.0,0.0,0.0,0.0,0.0,0.0,0.0,0.0,0.0,0.0,0.0,0.0,0.0,0.0,0.0,0.0,0.0,0.0,0.0,0.0,0.0,0.0,0.0,0.0,0.0,0.0,0.0,0.0,0.0,0.0,0.0,0.0,0.0,0.0,0.0,0.0,0.0,0.0,0.0,0.0,0.0,0.0,0.0,0.0,0.0,0.0,0.0,0.0,0.0,0.0,0.0,0.0,0.0,0.0,0.0,0.0,0.0,0.0,0.0,0.0,0.0,-0.6941,-0.7006,-0.7384,-0.7598,-0.7632,0.0,0.0,0.0,0.0,0.0,0.0,0.0,0.0,0.0,0.0,0.0,0.0,0.0,0.0,0.0,0.0,0.0,0.0,0.0,0.0,0.0,0.0,0.0,0.0,0.0,0.0,0.0,0.0,0.0,0.0,0.0,0.0,0.0,0.0,0.0,0.0,0.0,0.0,0.0,0.0,0.0,0.0,0.0,0.0,0.0,0.0,0.0,0.0,0.0,0.0,0.0,0.0,0.0,0.0,0.0,0.0,0.0,0.0,0.0,0.0,0.0,0.0,0.0,0.0,0.0,0.0,0.0,0.0,0.0,0.0,0.0,0.0,0.0,0.0,0.0,0.0,0.0,0.0,0.0,0.0,0.0,0.0,0.0,0.0,0.0,0.0,0.0,0.0,0.0,0.0,0.0,0.0,0.0,0.0,0.0,0.0,0.0,0.0,0.0,0.0,0.0,0.0,0.0,0.0,0.0,0.0,0.0,0.0,0.0,0.0,0.0,0.0,-0.7887,-0.8085,-0.7959,0.0,0.0,0.0,0.0,0.0,0.0,0.0,0.0,0.0,0.0,0.0,0.0,0.0,0.0,0.0,0.0,0.0,0.0,0.0,0.0,0.0,0.0,0.0,0.0,0.0,0.0,0.0,0.0,0.0,0.0,0.0,0.0,0.0,0.0,0.0,0.0,0.0,0.0,0.0,0.0,0.0,0.0,0.0,0.0,0.0,0.0,0.0,0.0,0.0,0.0,0.0,0.0,0.0,0.0,0.0,0.0,0.0,0.0,0.0,0.0,0.0,0.0,0.0,0.0,0.0,0.0,0.0,0.0,0.0,0.0,0.0,0.0,0.0,0.0,0.0,0.0,0.0,0.0,0.0,0.0,0.0,0.0,0.0,0.0,0.0,0.0,0.0,0.0,0.0,0.0,0.0,0.0,0.0,0.0,0.0,0.0,0.0,0.0,0.0,0.0,0.0,0.0,0.0,0.0,0.0,0.0,0.0,0.0,0.0,0.0,-0.7862,-0.8524,-0.8618,0.0,-0.7808,0.0,0.0,0.0,0.0,0.0,0.0,0.0,0.0,0.0,0.0,0.0,0.0,0.0,0.0,0.0,0.0,0.0,0.0,0.0,0.0,0.0,0.0,0.0,0.0,0.0,0.0,0.0,0.0,0.0,0.0,0.0,0.0,0.0,0.0,0.0,0.0,0.0,0.0,0.0,0.0,0.0,0.0,0.0,0.0,0.0,0.0,0.0,0.0,0.0,0.0,0.0,0.0,0.0,0.0,0.0,0.0,0.0,0.0,0.0,0.0,0.0,0.0,0.0,0.0,0.0,0.0,0.0,0.0,0.0,0.0,0.0,0.0,0.0,0.0,0.0,0.0,0.0,0.0,0.0,0.0,0.0,0.0,0.0,0.0,0.0,0.0,0.0,0.0,0.0,0.0,0.0,0.0,0.0,0.0,0.0,0.0,0.0,0.0,0.0,0.0,0.0,0.0,0.0,0.0,0.0,0.0,0.0,0.0,0.0,0.0,-0.8691,-0.9033,-0.9367,-0.9396,0.0,0.0,0.0,0.0,0.0,0.0,0.0,0.0,0.0,0.0,0.0,0.0,0.0,0.0,0.0,0.0,0.0,0.0,0.0,0.0,0.0,0.0,0.0,0.0,0.0,0.0,0.0,0.0,0.0,0.0,0.0,0.0,0.0,0.0,0.0,0.0,0.0,0.0,0.0,0.0,0.0,0.0,0.0,0.0,0.0,0.0,0.0,0.0,0.0,0.0,0.0,0.0,0.0,0.0,0.0,0.0,0.0,0.0,0.0,0.0,0.0,0.0,0.0,0.0,0.0,0.0,0.0,0.0,0.0,0.0,0.0,0.0,0.0,0.0,0.0,0.0,0.0,0.0,0.0,0.0,0.0,0.0,0.0,0.0,0.0,0.0,0.0,0.0,0.0,0.0,0.0,0.0,0.0,0.0,0.0,0.0,0.0,0.0,0.0,0.0,0.0,0.0,0.0,0.0,0.0,0.0,0.0,0.0,0.0,0.0,-0.8326,-0.9037,-0.9461,-0.997,-1.0021,-0.954,0.0,0.0,0.0,0.0,0.0,0.0,0.0,0.0,0.0,0.0,0.0,0.0,0.0,0.0,0.0,0.0,0.0,0.0,0.0,0.0,0.0,0.0,0.0,0.0,0.0,0.0,0.0,0.0,0.0,0.0,0.0,0.0,0.0,0.0,0.0,0.0,0.0,0.0,0.0,0.0,0.0,0.0,0.0,0.0,0.0,0.0,0.0,0.0,0.0,0.0,0.0,0.0,0.0,0.0,0.0,0.0,0.0,0.0,0.0,0.0,0.0,0.0,0.0,0.0,0.0,0.0,0.0,0.0,0.0,0.0,0.0,0.0,0.0,0.0,0.0,0.0,0.0,0.0,0.0,0.0,0.0,0.0,0.0,0.0,0.0,0.0,0.0,0.0,0.0,0.0,0.0,0.0,0.0,0.0,0.0,0.0,0.0,0.0,0.0,0.0,0.0,0.0,0.0,0.0,0.0,0.0,0.0,0.0,-0.7706,-0.8049,-0.8746,-0.9868,-1.0341,-0.9812,0.0,0.0,0.0,0.0,0.0,0.0,0.0,0.0,0.0,0.0,0.0,0.0,0.0,0.0,0.0,0.0,0.0,0.0,0.0,0.0,0.0,0.0,0.0,0.0,0.0,0.0,0.0,0.0,0.0,0.0,0.0,0.0,0.0,0.0,0.0,0.0,0.0,0.0,0.0,0.0,0.0,0.0,0.0,0.0,0.0,0.0,0.0,0.0,0.0,0.0,0.0,0.0,0.0,0.0,0.0,0.0,0.0,0.0,0.0,0.0,0.0,0.0,0.0,0.0,0.0,0.0,0.0,0.0,0.0,0.0,0.0,0.0,0.0,0.0,0.0,0.0,0.0,0.0,0.0,0.0,0.0,0.0,0.0,0.0,0.0,0.0,0.0,0.0,0.0,0.0,0.0,0.0,0.0,0.0,0.0,0.0,0.0,0.0,0.0,0.0,0.0,0.0,0.0,0.0,0.0,0.0,0.0,0.0,0.0,-0.7554,-0.8748,-0.9905,-1.0918,-1.0504,-0.975,0.0,0.0,0.0,0.0,0.0,0.0,0.0,0.0,0.0,0.0,0.0,0.0,0.0,0.0,0.0,0.0,0.0,0.0,0.0,0.0,0.0,0.0,0.0,0.0,0.0,0.0,0.0,0.0,0.0,0.0,0.0,0.0,0.0,0.0,0.0,0.0,0.0,0.0,0.0,0.0,0.0,0.0,0.0,0.0,0.0,0.0,0.0,0.0,0.0,0.0,0.0,0.0,0.0,0.0,0.0,0.0,0.0,0.0,0.0,0.0,0.0,0.0,0.0,0.0,0.0,0.0,0.0,0.0,0.0,0.0,0.0,0.0,0.0,0.0,0.0,0.0,0.0,0.0,0.0,0.0,0.0,0.0,0.0,0.0,0.0,0.0,0.0,0.0,0.0,0.0,0.0,0.0,0.0,0.0,0.0,0.0,0.0,0.0,0.0,0.0,0.0,0.0,0.0,0.0,0.0,0.0,0.0,0.0,0.0,-0.7717,0.0,-1.034,-1.0801,-1.0301,-0.9511,0.0,0.0,0.0,0.0,0.0,0.0,0.0,0.0,0.0,0.0,0.0,0.0,0.0,0.0,0.0,0.0,0.0,0.0,0.0,0.0,0.0,0.0,0.0,0.0,0.0,0.0,0.0,0.0,0.0,0.0,0.0,0.0,0.0,0.0,0.0,0.0,0.0,0.0,0.0,0.0,0.0,0.0,0.0,0.0,0.0,0.0,0.0,0.0,0.0,0.0,0.0,0.0,0.0,0.0,0.0,0.0,0.0,0.0,0.0,0.0,0.0,0.0,0.0,0.0,0.0,0.0,0.0,0.0,0.0,0.0,0.0,0.0,0.0,0.0,0.0,0.0,0.0,0.0,0.0,0.0,0.0,0.0,0.0,0.0,0.0,0.0,0.0,0.0,0.0,0.0,0.0,0.0,0.0,0.0,0.0,0.0,0.0,0.0,0.0,0.0,0.0,0.0,0.0,0.0,0.0,0.0,0.0,0.0,-0.6562,-0.8269,-0.9412,-0.9809,-0.9375,-0.9702,-0.8974,0.0,0.0,0.0,0.0,0.0,0.0,0.0,0.0,0.0,0.0,0.0,0.0,0.0,0.0,0.0,0.0,0.0,0.0,0.0,0.0,0.0,0.0,0.0,0.0,0.0,0.0,0.0,0.0,0.0,0.0,0.0,0.0,0.0,0.0,0.0,0.0,0.0,0.0,0.0,0.0,0.0,0.0,0.0,0.0,0.0,0.0,0.0,0.0,0.0,0.0,0.0,0.0,0.0,0.0,0.0,0.0,0.0,0.0,0.0,0.0,0.0,0.0,0.0,0.0,0.0,0.0,0.0,0.0,0.0,0.0,0.0,0.0,0.0,0.0,0.0,0.0,0.0,0.0,0.0,0.0,0.0,0.0,0.0,0.0,0.0,0.0,0.0,0.0,0.0,0.0,0.0,0.0,0.0,0.0,0.0,0.0,0.0,0.0,0.0,0.0,0.0,0.0,0.0,0.0,0.0,0.0,0.0,0.0,0.0,-0.895,-0.9382,-0.9671,-0.983,-0.9372,-0.8457,0.0,0.0,0.0,0.0,0.0,0.0,0.0,0.0,0.0,0.0,0.0,0.0,0.0,0.0,0.0,0.0,0.0,0.0,0.0,0.0,0.0,0.0,0.0,0.0,0.0,0.0,0.0,0.0,0.0,0.0,0.0,0.0,0.0,0.0,0.0,0.0,0.0,0.0,0.0,0.0,0.0,0.0,0.0,0.0,0.0,0.0,0.0,0.0,0.0,0.0,0.0,0.0,0.0,0.0,0.0,0.0,0.0,0.0,0.0,0.0,0.0,0.0,0.0,0.0,0.0,0.0,0.0,0.0,0.0,0.0,0.0,0.0,0.0,0.0,0.0,0.0,0.0,0.0,0.0,0.0,0.0,0.0,0.0,0.0,0.0,0.0,0.0,0.0,0.0,0.0,0.0,0.0,0.0,0.0,0.0,0.0,0.0,0.0,0.0,0.0,0.0,0.0,0.0,0.0,0.0,0.0,0.0,0.0,0.0,-0.9485,-0.9564,-0.9708,-1.0086,-0.9406,-0.8419,-0.7104,0.0,0.0,0.0,0.0,0.0,0.0,0.0,0.0,0.0,0.0,0.0,0.0,0.0,0.0,0.0,0.0,0.0,0.0,0.0,0.0,0.0,0.0,0.0,0.0,0.0,0.0,0.0,0.0,0.0,0.0,0.0,0.0,0.0,0.0,0.0,0.0,0.0,0.0,0.0,0.0,0.0,0.0,0.0,0.0,0.0,0.0,0.0,0.0,0.0,0.0,0.0,0.0,0.0,0.0,0.0,0.0,0.0,0.0,0.0,0.0,0.0,0.0,0.0,0.0,0.0,0.0,0.0,0.0,0.0,0.0,0.0,0.0,0.0,0.0,0.0,0.0,0.0,0.0,0.0,0.0,0.0,0.0,0.0,0.0,0.0,0.0,0.0,0.0,0.0,0.0,0.0,0.0,0.0,0.0,0.0,0.0,0.0,0.0,0.0,0.0,0.0,0.0,0.0,0.0,0.0,0.0,0.0,0.0,-1.0,-0.9962,-1.0021,-1.0141,-0.9798,-0.8886,0.0,0.0,0.0,0.0,0.0,0.0,0.0,0.0,0.0,0.0,0.0,0.0,0.0,0.0,0.0,0.0,0.0,0.0,0.0,0.0,0.0,0.0,0.0,0.0,0.0,0.0,0.0,0.0,0.0,0.0,0.0,0.0,0.0,0.0,0.0,0.0,0.0,0.0,0.0,0.0,0.0,0.0,0.0,0.0,0.0,0.0,0.0,0.0,0.0,0.0,0.0,0.0,0.0,0.0,0.0,0.0,0.0,0.0,0.0,0.0,0.0,0.0,0.0,0.0,0.0,0.0,0.0,0.0,0.0,0.0,0.0,0.0,0.0,0.0,0.0,0.0,0.0,0.0,0.0,0.0,0.0,0.0,0.0,0.0,0.0,0.0,0.0,0.0,0.0,0.0,0.0,0.0,0.0,0.0,0.0,0.0,0.0,0.0,0.0,0.0,0.0,0.0,0.0,0.0,0.0,0.0,0.0,0.0,0.0,-1.0336,-1.121,-1.1655,-1.1684,-1.0883,-0.9771,0.0,0.0,0.0,0.0,0.0,0.0,0.0,0.0,0.0,0.0,0.0,0.0,0.0,0.0,0.0,0.0,0.0,0.0,0.0,0.0,0.0,0.0,0.0,0.0,0.0,0.0,0.0,0.0,0.0,0.0,0.0,0.0,0.0,0.0,0.0,0.0,0.0,0.0,0.0,0.0,0.0,0.0,0.0,0.0,0.0,0.0,0.0,0.0,0.0,0.0,0.0,0.0,0.0,0.0,0.0,0.0,0.0,0.0,0.0,0.0,0.0,0.0,0.0,0.0,0.0,0.0,0.0,0.0,0.0,0.0,0.0,0.0,0.0,0.0,0.0,0.0,0.0,0.0,0.0,0.0,0.0,0.0,0.0,0.0,0.0,0.0,0.0,0.0,0.0,0.0,0.0,0.0,0.0,0.0,0.0,0.0,0.0,0.0,0.0,0.0,0.0,0.0,0.0,0.0,0.0,0.0,0.0,0.0,-0.9004,-1.0635,-1.2036,-1.2896,-1.2965,-1.1821,-1.0589,0.0,0.0,0.0,0.0,0.0,0.0,0.0,0.0,0.0,0.0,0.0,0.0,0.0,0.0,0.0,0.0,0.0,0.0,0.0,0.0,0.0,0.0,0.0,0.0,0.0,0.0,0.0,0.0,0.0,0.0,0.0,0.0,0.0,0.0,0.0,0.0,0.0,0.0,0.0,0.0,0.0,0.0,0.0,0.0,0.0,0.0,0.0,0.0,0.0,0.0,0.0,0.0,0.0,0.0,0.0,0.0,0.0,0.0,0.0,0.0,0.0,0.0,0.0,0.0,0.0,0.0,0.0,0.0,0.0,0.0,0.0,0.0,0.0,0.0,0.0,0.0,0.0,0.0,0.0,0.0,0.0,0.0,0.0,0.0,0.0,0.0,0.0,0.0,0.0,0.0,0.0,0.0,0.0,0.0,0.0,0.0,0.0,0.0,0.0,0.0,0.0,0.0,0.0,0.0,0.0,0.0,0.0,0.0,-0.92,-1.083,-1.25,-1.3481,-1.3764,-1.2585,-1.1319,0.0,0.0,0.0,0.0,0.0,0.0,0.0,0.0,0.0,0.0,0.0,0.0,0.0,0.0,0.0,0.0,0.0,0.0,0.0,0.0,0.0,0.0,0.0,0.0,0.0,0.0,0.0,0.0,0.0,0.0,0.0,0.0,0.0,0.0,0.0,0.0,0.0,0.0,0.0,0.0,0.0,0.0,0.0,0.0,0.0,0.0,0.0,0.0,0.0,0.0,0.0,0.0,0.0,0.0,0.0,0.0,0.0,0.0,0.0,0.0,0.0,0.0,0.0,0.0,0.0,0.0,0.0,0.0,0.0,0.0,0.0,0.0,0.0,0.0,0.0,0.0,0.0,0.0,0.0,0.0,0.0,0.0,0.0,0.0,0.0,0.0,0.0,0.0,0.0,0.0,0.0,0.0,0.0,0.0,0.0,0.0,0.0,0.0,0.0,0.0,0.0,0.0,0.0,0.0,0.0,0.0,0.0,0.0,-0.8861,-1.0468,-1.1718,-1.2554,-1.3193,-1.2858,-1.2065,0.0,0.0,0.0,0.0,0.0,0.0,0.0,0.0,0.0,0.0,0.0,0.0,0.0,0.0,0.0,0.0,0.0,0.0,0.0,0.0,0.0,0.0,0.0,0.0,0.0,0.0,0.0,0.0,0.0,0.0,0.0,0.0,0.0,0.0,0.0,0.0,0.0,0.0,0.0,0.0,0.0,0.0,0.0,0.0,0.0,0.0,0.0,0.0,-0.4193,0.0,0.0,0.0,0.0,0.0,0.0,0.0,0.0,0.0,0.0,0.0,0.0,0.0,0.0,0.0,0.0,0.0,0.0,0.0,0.0,0.0,0.0,0.0,0.0,0.0,0.0,0.0,0.0,0.0,0.0,0.0,0.0,0.0,0.0,0.0,0.0,0.0,0.0,0.0,0.0,0.0,0.0,0.0,0.0,0.0,0.0,0.0,0.0,0.0,0.0,0.0,0.0,0.0,0.0,0.0,0.0,0.0,0.0,0.0,-0.858,-0.986,-1.0942,-1.1757,-1.2151,-1.2062,-1.1582,0.0,0.0,0.0,0.0,0.0,0.0,0.0,0.0,0.0,0.0,0.0,0.0,0.0,0.0,0.0,0.0,0.0,0.0,0.0,0.0,0.0,0.0,0.0,0.0,0.0,0.0,0.0,0.0,0.0,0.0,0.0,0.0,0.0,0.0,0.0,0.0,0.0,0.0,0.0,0.0,0.0,0.0,0.0,0.0,0.0,0.0,0.0,0.0,0.0,0.0,0.0,0.0,0.0,0.0,0.0,0.0,0.0,0.0,0.0,0.0,0.0,0.0,0.0,0.0,0.0,0.0,0.0,0.0,0.0,0.0,0.0,0.0,0.0,0.0,0.0,0.0,0.0,0.0,0.0,0.0,0.0,0.0,0.0,0.0,0.0,0.0,0.0,0.0,0.0,0.0,0.0,0.0,0.0,0.0,0.0,0.0,0.0,0.0,0.0,0.0,0.0,0.0,0.0,0.0,0.0,0.0,0.0,-0.7461,-0.8255,-0.9199,-1.0201,-1.0809,-1.1058,-1.0781,-1.0503,-1.0226,0.0,0.0,0.0,0.0,0.0,0.0,0.0,0.0,0.0,0.0,0.0,0.0,0.0,0.0,0.0,0.0,0.0,0.0,0.0,0.0,0.0,0.0,0.0,0.0,0.0,0.0,0.0,0.0,0.0,0.0,0.0,0.0,0.0,0.0,0.0,0.0,0.0,0.0,-0.356,-0.3813,0.0,0.0,0.0,0.0,0.0,0.0,0.0,0.0,-0.3656,0.0,0.0,0.0,0.0,0.0,0.0,0.0,0.0,0.0,0.0,0.0,0.0,0.0,0.0,0.0,0.0,0.0,0.0,0.0,0.0,0.0,0.0,0.0,0.0,0.0,0.0,0.0,0.0,0.0,0.0,0.0,0.0,0.0,0.0,0.0,0.0,0.0,0.0,0.0,0.0,0.0,0.0,0.0,0.0,0.0,0.0,0.0,0.0,0.0,0.0,0.0,0.0,0.0,0.0,0.0,0.0,-0.6867,-0.726,-0.7914,-0.8783,-0.9274,-0.9777,-1.0202,-0.9628,-0.899,-0.8466,0.0,0.0,0.0,0.0,0.0,0.0,0.0,0.0,0.0,0.0,0.0,0.0,0.0,0.0,0.0,0.0,0.0,0.0,0.0,0.0,0.0,0.0,0.0,0.0,0.0,0.0,0.0,0.0,0.0,0.0,0.0,0.0,0.0,0.0,0.0,0.0,0.0,0.0,0.0,-0.3065,-0.3186,0.0,0.0,0.0,0.0,0.0,0.0,0.0,0.0,-0.3654,0.0,0.0,0.0,0.0,0.0,0.0,0.0,0.0,0.0,0.0,0.0,0.0,0.0,0.0,0.0,0.0,0.0,0.0,0.0,0.0,0.0,0.0,0.0,0.0,0.0,0.0,0.0,0.0,0.0,0.0,0.0,0.0,0.0,0.0,0.0,0.0,0.0,0.0,0.0,0.0,0.0,0.0,0.0,0.0,0.0,0.0,0.0,0.0,0.0,0.0,0.0,0.0,0.0,0.0,0.0,-0.6843,-0.7131,-0.7642,-0.8286,-0.87,-0.9043,-0.9266,-0.8808,-0.8152,0.0,0.0,0.0,0.0,0.0,0.0,0.0,0.0,0.0,0.0,0.0,0.0,0.0,0.0,0.0,0.0,0.0,0.0,0.0,0.0,0.0,0.0,0.0,0.0,0.0,0.0,0.0,0.0,0.0,0.0,0.0,0.0,0.0,0.0,0.0,0.0,0.0,0.0,0.0,0.0,-0.2833,-0.2843,-0.2815,0.0,0.0,0.0,0.0,0.0,0.0,-0.3481,-0.3304,0.0,0.0,0.0,0.0,0.0,0.0,0.0,0.0,0.0,0.0,0.0,0.0,0.0,0.0,0.0,0.0,0.0,0.0,0.0,0.0,0.0,0.0,0.0,0.0,0.0,0.0,0.0,0.0,0.0,0.0,0.0,0.0,0.0,0.0,0.0,0.0,0.0,0.0,0.0,0.0,0.0,0.0,0.0,0.0,0.0,0.0,0.0,0.0,0.0,0.0,0.0,0.0,0.0,0.0,0.0,-0.674,-0.7082,-0.7492,-0.7957,-0.8385,-0.8566,-0.8539,-0.8112,-0.7542,0.0,0.0,0.0,0.0,0.0,0.0,0.0,0.0,0.0,0.0,0.0,0.0,0.0,0.0,0.0,0.0,0.0,0.0,0.0,0.0,0.0,0.0,0.0,0.0,0.0,0.0,0.0,0.0,0.0,0.0,0.0,0.0,0.0,0.0,0.0,0.0,0.0,0.0,0.0,0.0,0.0,-0.2537,-0.238,-0.2479,0.0,0.0,0.0,0.0,-0.3432,-0.3149,0.0,0.0,0.0,0.0,0.0,0.0,0.0,0.0,0.0,0.0,0.0,0.0,0.0,0.0,0.0,0.0,0.0,0.0,0.0,0.0,0.0,0.0,0.0,0.0,0.0,0.0,0.0,0.0,0.0,0.0,0.0,0.0,0.0,0.0,0.0,0.0,0.0,0.0,0.0,0.0,0.0,0.0,0.0,0.0,0.0,0.0,0.0,0.0,0.0,0.0,0.0,0.0,0.0,0.0,0.0,0.0,-0.6404,-0.7069,-0.7592,-0.7967,-0.8365,-0.8479,-0.8377,-0.7642,-0.6936,0.0,0.0,0.0,0.0,0.0,0.0,0.0,0.0,0.0,0.0,0.0,0.0,0.0,0.0,0.0,0.0,0.0,0.0,0.0,0.0,0.0,0.0,0.0,0.0,0.0,0.0,0.0,0.0,0.0,0.0,0.0,0.0,0.0,0.0,0.0,0.0,0.0,0.0,0.0,0.0,0.0,-0.21,-0.2291,-0.2183,-0.2125,0.0,0.0,-0.2483,-0.2768,-0.2928,0.0,0.0,0.0,0.0,0.0,0.0,0.0,0.0,0.0,0.0,0.0,0.0,0.0,0.0,0.0,0.0,0.0,0.0,0.0,0.0,0.0,0.0,0.0,0.0,0.0,0.0,0.0,0.0,0.0,0.0,0.0,0.0,0.0,0.0,0.0,0.0,0.0,0.0,0.0,0.0,0.0,0.0,0.0,0.0,0.0,0.0,0.0,0.0,0.0,0.0,0.0,0.0,0.0,0.0,0.0,-0.5641,-0.6324,-0.6871,-0.7326,-0.7679,-0.8115,-0.8249,-0.7979,-0.7564,-0.6936,0.0,0.0,0.0,0.0,0.0,0.0,0.0,0.0,0.0,0.0,0.0,0.0,0.0,0.0,0.0,0.0,0.0,0.0,0.0,0.0,0.0,0.0,0.0,0.0,0.0,0.0,0.0,0.0,0.0,0.0,0.0,0.0,0.0,0.0,0.0,0.0,0.0,0.0,0.0,0.0,0.0,0.0,-0.201,-0.1999,0.0,0.0,0.0,-0.2339,-0.2497,0.0,0.0,0.0,0.0,0.0,0.0,0.0,0.0,0.0,0.0,0.0,0.0,0.0,0.0,0.0,0.0,0.0,0.0,0.0,0.0,0.0,0.0,0.0,0.0,0.0,0.0,0.0,0.0,0.0,0.0,0.0,0.0,0.0,0.0,0.0,0.0,0.0,0.0,0.0,0.0,0.0,0.0,0.0,0.0,0.0,0.0,0.0,0.0,0.0,0.0,0.0,0.0,0.0,0.0,0.0,0.0,0.0,-0.6319,-0.6744,-0.7134,-0.7439,-0.7935,-0.8037,-0.7702,-0.7548,0.0,0.0,0.0,0.0,0.0,0.0,0.0,0.0,0.0,0.0,0.0,0.0,0.0,0.0,0.0,0.0,0.0,0.0,0.0,0.0,0.0,0.0,0.0,0.0,0.0,0.0,0.0,-0.2504,0.0,0.0,0.0,0.0,0.0,0.0,0.0,0.0,0.0,0.0,0.0,0.0,0.0,0.0,-0.1786,-0.1801,-0.1905,-0.1937,0.0,0.0,-0.2221,-0.233,-0.2473,-0.2499,0.0,0.0,0.0,0.0,0.0,0.0,0.0,0.0,0.0,0.0,0.0,0.0,0.0,0.0,0.0,0.0,0.0,0.0,0.0,0.0,0.0,0.0,0.0,0.0,0.0,0.0,0.0,0.0,0.0,0.0,0.0,0.0,0.0,0.0,0.0,0.0,0.0,0.0,0.0,0.0,0.0,0.0,0.0,0.0,0.0,0.0,0.0,0.0,0.0,0.0,0.0,0.0,0.0,0.0,0.0,-0.6276,-0.6793,-0.7171,-0.7364,-0.7935,-0.8037,-0.7694,-0.7358,-0.6822,0.0,0.0,0.0,0.0,0.0,0.0,0.0,0.0,0.0,0.0,0.0,0.0,0.0,0.0,0.0,0.0,0.0,0.0,0.0,0.0,0.0,0.0,0.0,0.0,0.0,0.0,0.0,0.0,0.0,0.0,0.0,0.0,0.0,0.0,0.0,0.0,0.0,0.0,0.0,0.0,0.0,-0.1744,-0.1858,-0.1981,-0.2015,0.0,0.0,-0.2081,-0.2197,-0.2264,-0.2264,-0.2145,0.0,0.0,0.0,0.0,0.0,0.0,0.0,0.0,0.0,0.0,0.0,0.0,0.0,0.0,0.0,0.0,0.0,0.0,0.0,0.0,0.0,0.0,0.0,0.0,0.0,0.0,0.0,0.0,0.0,0.0,0.0,0.0,0.0,0.0,0.0,0.0,0.0,0.0,0.0,0.0,0.0,0.0,0.0,0.0,0.0,0.0,0.0,0.0,0.0,0.0,0.0,0.0,0.0,-0.5615,-0.6285,-0.6738,-0.6957,-0.6943,-0.7685,-0.7918,-0.7682,-0.7613,-0.7131,0.0,0.0,0.0,0.0,0.0,0.0,0.0,0.0,0.0,0.0,0.0,0.0,0.0,0.0,0.0,0.0,0.0,0.0,0.0,0.0,0.0,0.0,0.0,0.0,0.0,0.0,0.0,0.0,-0.26,-0.2457,-0.2293,0.0,0.0,0.0,0.0,0.0,0.0,0.0,0.0,0.0,0.0,-0.1804,-0.1981,-0.1959,0.0,0.0,-0.2065,-0.2076,-0.2102,-0.2137,-0.2186,-0.207,-0.1951,0.0,0.0,0.0,0.0,0.0,0.0,0.0,0.0,0.0,0.0,0.0,0.0,0.0,0.0,0.0,0.0,0.0,0.0,0.0,0.0,0.0,0.0,0.0,0.0,0.0,0.0,0.0,0.0,0.0,0.0,0.0,0.0,0.0,0.0,0.0,0.0,0.0,0.0,0.0,0.0,0.0,0.0,0.0,0.0,0.0,0.0,0.0,0.0,0.0,0.0,0.0,0.0,-0.5955,-0.6839,-0.6993,-0.7103,-0.7181,-0.7926,-0.8169,-0.7951,-0.8048,-0.7727,0.0,0.0,0.0,0.0,0.0,0.0,0.0,0.0,0.0,0.0,0.0,0.0,0.0,0.0,0.0,0.0,0.0,0.0,0.0,0.0,0.0,0.0,0.0,0.0,0.0,0.0,0.0,0.0,-0.2798,-0.2548,-0.2151,0.0,0.0,0.0,0.0,0.0,0.0,0.0,0.0,0.0,0.0,-0.1886,-0.1986,-0.2014,-0.2027,-0.2091,-0.2127,-0.2074,-0.2033,-0.2136,-0.2148,-0.2035,0.0,0.0,0.0,0.0,0.0,0.0,0.0,0.0,0.0,0.0,0.0,0.0,0.0,0.0,0.0,0.0,0.0,0.0,0.0,0.0,0.0,0.0,0.0,0.0,0.0,0.0,0.0,0.0,0.0,0.0,-0.3673,0.0,0.0,0.0,0.0,0.0,0.0,0.0,0.0,0.0,0.0,0.0,0.0,0.0,0.0,0.0,0.0,0.0,0.0,0.0,0.0,0.0,0.0,-0.6643,-0.8113,-0.7917,-0.7927,-0.8276,-0.8899,-0.9004,-0.8564,-0.8869,-0.8497,-0.7611,0.0,0.0,0.0,0.0,0.0,0.0,0.0,0.0,0.0,0.0,0.0,0.0,0.0,0.0,0.0,0.0,0.0,0.0,0.0,0.0,0.0,0.0,0.0,0.0,0.0,0.0,-0.3018,-0.2807,-0.2495,0.0,0.0,0.0,0.0,0.0,0.0,0.0,0.0,0.0,0.0,-0.1894,-0.2054,-0.2119,-0.2178,-0.2211,-0.2214,-0.2217,-0.2217,-0.2211,-0.2164,-0.2105,0.0,0.0,0.0,0.0,0.0,0.0,0.0,0.0,0.0,0.0,0.0,0.0,0.0,0.0,0.0,0.0,0.0,0.0,0.0,0.0,0.0,0.0,0.0,0.0,0.0,0.0,0.0,-0.5719,-0.4956,0.0,0.0,0.0,0.0,0.0,0.0,0.0,0.0,0.0,0.0,0.0,-0.9606,-0.8806,0.0,0.0,0.0,0.0,0.0,0.0,0.0,0.0,0.0,0.0,0.0,0.0,-0.71,-0.8435,-0.8349,-0.8263,-0.8541,-0.9083,-0.9309,-0.9182,-0.9209,-0.879,-0.7823,0.0,0.0,0.0,0.0,0.0,0.0,0.0,0.0,0.0,0.0,0.0,0.0,0.0,0.0,0.0,0.0,0.0,0.0,0.0,0.0,0.0,0.0,0.0,0.0,0.0,-0.3313,0.0,0.0,0.0,0.0,0.0,0.0,0.0,0.0,0.0,0.0,0.0,-0.1798,-0.1899,-0.1981,-0.2119,-0.218,-0.2206,-0.222,0.0,0.0,0.0,0.0,0.0,0.0,0.0,0.0,0.0,0.0,0.0,0.0,0.0,0.0,-0.0,-0.0046,0.0045,0.0313,0.0807,0.0,0.0,0.0,0.0,0.0,0.0,0.0,0.0,0.0,0.0,0.0,0.0,0.0,0.0,-0.7721,0.0,-0.6808,0.0,0.0,0.0,0.0,0.0,0.0,0.0,0.0,-0.8685,-0.9698,-1.1025,-1.0445,-1.0187,0.0,-0.947,-0.8338,0.0,0.0,0.0,0.0,0.0,0.0,0.0,0.0,-0.7519,-0.9073,-0.895,-0.8974,-0.9259,-0.9771,-0.9997,-0.9926,-0.9643,-0.9181,-0.8467,-0.7744,-0.7084,0.0,0.0,0.0,0.0,0.0,0.0,0.0,0.0,0.0,0.0,0.0,0.0,0.0,0.0,0.0,0.0,0.0,0.0,0.0,0.0,0.0,0.0,0.0,-0.3494,0.0,0.0,0.0,0.0,0.0,0.0,0.0,0.0,0.0,-0.1827,-0.1922,-0.1967,-0.2091,-0.2106,-0.2172,-0.2213,0.0,0.0,0.0,0.0,0.0,0.0,0.0,-0.2158,-0.2158,-0.1903,-0.1577,-0.1245,-0.0339,0.0401,0.054,0.0,0.0,0.0391,0.0597,0.0977,0.1413,0.1755,0.2044,0.2268,0.2348,0.2493,0.0,0.0,0.0,0.0,0.0,0.0,0.0,0.0,-1.0105,-1.0506,0.0,-0.8949,0.0,0.0,0.0,0.0,0.0,-0.7743,0.0,0.0,-1.0257,-1.1482,-1.2425,-1.2093,-1.1973,-1.1831,-1.1325,-1.0801,-1.0248,-0.7715,0.0,0.0,0.0,0.0,0.0,0.0,-0.7893,-0.9932,-0.9846,-0.9999,-1.0565,-1.0792,-1.0801,-1.0584,-1.0197,-0.9875,-0.9395,-0.8815,-0.8152,-0.7353,-0.6661,0.0,0.0,0.0,0.0,0.0,0.0,0.0,0.0,0.0,0.0,0.0,0.0,0.0,0.0,0.0,0.0,0.0,0.0,0.0,0.0,-0.3881,0.0,0.0,0.0,0.0,0.0,0.0,0.0,0.0,0.0,0.0,-0.2107,-0.2084,-0.2158,-0.222,0.0,0.0,0.0,0.0,-0.226,-0.226,-0.2262,-0.2262,-0.2262,-0.2262,-0.2265,-0.227,0.0,0.0,-0.0392,0.0231,0.0688,0.1175,0.1308,0.117,0.0707,0.1251,0.187,0.2119,0.242,0.2716,0.2918,0.3099,0.3222,-1.5837,0.0,0.0,0.0,0.0,-1.3179,-1.2869,-1.1895,-1.3975,-1.428,-1.309,-1.2429,0.0,0.0,0.0,0.0,0.0,0.0,-0.9763,-1.0019,-1.1841,-1.327,-1.4004,-1.4427,-1.4551,-1.4372,-1.3856,-1.3278,-1.2625,-1.1451,-0.9766,-0.7746,0.0,0.0,0.0,0.0,-0.8906,-1.0326,-1.0367,-1.0527,-1.0801,-1.1,-1.1009,-1.0811,-1.0537,-1.0301,-1.0093,-0.9545,-0.8997,-0.8533,-0.7944,0.0,0.0,0.0,0.0,0.0,0.0,0.0,0.0,0.0,0.0,0.0,0.0,0.0,0.0,0.0,0.0,0.0,0.0,0.0,-0.3958,-0.3919,-0.3754,0.0,0.0,0.0,0.0,0.0,0.0,0.0,0.0,0.0,-0.2632,-0.2536,-0.2403,0.0,0.0,-0.2262,-0.2262,-0.2262,-0.2262,-0.2262,-0.2262,0.0,-0.2168,-0.2176,-0.2125,-0.204,-0.1528,-0.0818,0.0165,0.0739,0.1148,0.1321,0.1316,0.1213,0.1177,0.1283,0.1697,0.2283,0.2519,0.2827,0.3569,0.3769,0.373,-2.0374,-1.7729,-1.6209,-1.5542,-1.5524,-1.6584,-1.6414,-1.5322,-1.7528,-1.838,-1.8023,-1.6074,-1.429,-1.2595,-1.1486,0.0,0.0,0.0,-1.1756,-1.1587,-1.3556,-1.4802,-1.5558,-1.5991,-1.6067,-1.5905,-1.5438,-1.4928,-1.4397,-1.3799,-1.2465,-1.0564,0.0,0.0,-0.683,-0.8607,-1.006,-1.0977,-1.0968,-1.1009,-1.1142,-1.1179,-1.1132,-1.1009,-1.0735,-1.0518,-1.0395,-0.9989,-0.9611,-0.928,-0.8751,-0.8061,0.0,0.0,0.0,0.0,0.0,0.0,0.0,0.0,0.0,0.0,0.0,-0.4557,-0.4715,0.0,0.0,0.0,-0.4476,-0.4214,-0.4194,-0.4148,0.0,0.0,0.0,0.0,0.0,0.0,0.0,-0.3421,-0.3326,-0.3178,-0.306,-0.285,-0.2649,-0.2376,-0.239,-0.2406,-0.2406,0.0,-0.2336,-0.2284,-0.2363,-0.2307,-0.2127,-0.2134,-0.1922,-0.1494,-0.0843,-0.0171,0.0431,0.1037,0.1382,0.1382,0.1382,0.1296,0.1382,0.1437,0.1648,0.2268,0.2741,0.3227,0.3871,0.3959,0.4046,-2.4688,-2.3917,-2.042,-1.9176,-1.9477,-2.0172,-1.9914,-1.9125,-2.0762,-2.2537,-2.3975,-1.9754,-1.7378,-1.6344,-1.479,0.0,-1.3653,-1.4319,-1.4176,-1.3384,-1.5099,-1.6298,-1.7063,-1.6997,-1.6932,-1.6899,-1.644,-1.6079,-1.5762,-1.5244,-1.4657,-1.4015,-1.235,-1.0522,-0.8982,-1.0162,-1.1171,-1.1844,-1.1647,-1.1529,-1.151,-1.1312,-1.1189,-1.1161,-1.0783,-1.0565,-1.0537,-1.0149,-0.9838,-0.9649,-0.9252,-0.8741,-0.8118,0.0,0.0,0.0,0.0,0.0,0.0,0.0,0.0,0.0,0.0,0.0,0.0,0.0,0.0,0.0,-0.4868,0.0,-0.4677,-0.4477,0.0,0.0,0.0,-0.3837,-0.4072,-0.3689,-0.365,-0.4031,0.0,0.0,-0.3366,-0.3137,-0.281,-0.2455,-0.2485,-0.2515,-0.2512,-0.2434,-0.2379,-0.2258,-0.2277,-0.2299,-0.2006,-0.1852,-0.1444,-0.0779,-0.0087,0.0438,0.0712,0.1074,0.1345,0.1431,0.1436,0.1434,0.1434,0.1607,0.1951,0.2297,0.304,0.3718,0.3882,0.4138,0.4308,-2.6626,-2.6489,-2.5383,-2.3653,-2.1779,-2.2902,-2.2832,-2.2133,-2.3714,-2.4937,-2.5386,-2.2244,-1.928,-1.6537,-1.5887,-1.5478,-1.521,-1.5514,-1.5548,-1.5256,-1.6374,-1.7575,-1.85,-1.8486,-1.8371,-1.8172,-1.7854,-1.7467,-1.7114,-1.6677,-1.6204,-1.5779,-1.5279,-1.3819,-1.1415,-1.1786,-1.2117,-1.2261,-1.1919,-1.1671,-1.152,-1.1302,-1.1123,-1.0972,-1.0707,-1.0499,-1.0338,-0.9941,-0.9696,-0.9639,-0.9252,-0.8807,-0.8344,-0.7423,0.0,0.0,0.0,0.0,0.0,0.0,0.0,0.0,0.0,-0.5397,-0.5415,0.0,-0.5632,0.0,-0.5091,-0.4867,-0.4792,-0.4724,0.0,0.0,-0.4543,-0.4302,-0.3905,-0.3847,-0.3747,-0.3452,-0.3474,-0.3363,-0.3134,-0.2994,-0.2911,-0.2629,-0.26,-0.2564,-0.252,-0.2391,-0.2341,-0.2359,-0.1981,-0.1428,-0.0944,-0.0612,-0.0353,0.0089,0.0445,0.0803,0.1165,0.1346,0.1436,0.1436,0.1436,0.1436,0.1436,0.1794,0.2149,0.2392,0.3093,0.3882,0.4493,0.4709,0.4831,-2.8278,-2.8125,-2.7964,-2.639,-2.4179,-2.4692,-2.4597,-2.4391,-2.5158,-2.5666,-2.5952,-2.3161,-2.0462,-1.8151,-1.7886,-1.7611,-1.727,-1.7519,-1.7338,-1.6887,-1.7634,-1.8427,-1.9034,-1.9103,-1.9,-1.8855,-1.8214,-1.7749,-1.7349,-1.7091,-1.6703,-1.6198,-1.6534,-1.5802,-1.4231,-1.3722,-1.3448,-1.3164,-1.2575,-1.1971,-1.1642,-1.1264,-1.1009,-1.0982,-1.0692,-1.0433,-1.0406,-0.9989,-0.9625,-0.9447,-0.9228,-0.8913,-0.8411,-0.7655,-0.7,0.0,0.0,0.0,0.0,0.0,0.0,0.0,0.0,0.0,0.0,0.0,-0.5631,-0.5336,-0.4966,-0.4724,-0.466,-0.4448,-0.4335,-0.4357,-0.4205,-0.404,-0.3883,-0.3722,-0.366,-0.3542,-0.3463,-0.3326,-0.3147,-0.2989,-0.2904,-0.2733,-0.2706,-0.2576,-0.2445,-0.2376,-0.2235,-0.1924,-0.1354,-0.0601,0.0263,0.0534,0.0718,0.0897,0.0987,0.1077,0.1346,0.1436,0.1436,0.1436,0.1436,0.1436,0.1436,0.1705,0.2065,0.2513,0.2962,0.3674,0.4474,0.4851,0.5043,-2.9761,-2.9123,-2.9123,-2.8016,-2.6309,-2.5445,-2.5345,-2.5465,-2.5319,-2.5441,-2.5538,-2.2983,-2.1141,-1.9989,-1.9953,-1.9675,-1.9184,-1.9376,-1.8947,-1.8139,-1.8848,-1.9091,-1.916,-1.8976,-1.8944,-1.8932,-1.7909,-1.7428,-1.7202,-1.6796,-1.6555,-1.6275,-1.6807,-1.6918,-1.6791,-1.5748,-1.4928,-1.4213,-1.3299,-1.2545,-1.2019,-1.1315,-1.1067,-1.1208,-1.0641,-1.0386,-1.0519,-1.0098,-0.9697,-0.935,-0.9311,-0.9,-0.8524,-0.7947,-0.7521,0.0,-0.6635,0.0,0.0,0.0,0.0,0.0,0.0,0.0,0.0,-0.5567,-0.5373,-0.5056,-0.4662,-0.4428,-0.4484,-0.4095,-0.3886,-0.397,-0.3644,-0.3556,-0.3817,-0.356,-0.3472,-0.3733,-0.3475,-0.3244,-0.3303,-0.3054,-0.2796,-0.2793,-0.2793,-0.2685,-0.2385,-0.2455,-0.221,-0.104,-0.0522,0.0176,0.107,0.1345,0.1346,0.1346,0.1341,0.1431,0.1434,0.1431,0.143,0.1434,0.1436,0.1436,0.1436,0.1615,0.1884,0.2334,0.2869,0.3406,0.4109,0.4606,0.4905,-3.0405,-2.9978,-2.9379,-2.8432,-2.7064,-2.5497,-2.4422,-2.3888,-2.4553,-2.4317,-2.338,-2.2263,-2.1383,-2.0509,-2.0303,-2.0183,-2.0098,-1.9664,-1.9268,-1.8889,-1.9004,-1.9048,-1.9012,-1.7965,-1.7731,-1.815,-1.7274,-1.6762,-1.6707,-1.6273,-1.6255,-1.6635,-1.6678,-1.6798,-1.7322,0.0,0.0,0.0,-1.3488,-1.2956,-1.2833,-1.1903,-1.1377,-1.1281,-1.082,0.0,-1.0373,-0.9948,-0.9538,-0.9331,-0.9174,0.0,0.0,0.0,0.0,0.0,0.0,0.0,0.0,0.0,0.0,0.0,-0.6235,-0.5895,-0.5671,-0.5603,-0.529,-0.4836,-0.4634,-0.4408,-0.4176,-0.4112,-0.4062,-0.4238,-0.4158,-0.3982,-0.3721,-0.3544,-0.3456,-0.3105,-0.3016,-0.3019,-0.3028,-0.2945,-0.2856,-0.2853,-0.2856,-0.2764,-0.2482,-0.2444,-0.1904,-0.0695,0.0264,0.107,0.1345,0.1436,0.1436,0.1433,0.1415,0.1412,0.1339,0.1415,0.1412,0.1341,0.1436,0.1436,0.1436,0.1436,0.1615,0.2155,0.2601,0.3224,0.4117,0.448,0.4656,-3.0505,0.0,-2.9137,-2.8208,0.0,-2.5335,-2.3966,-2.283,-2.3533,-2.3418,-2.2447,-2.1748,-2.1207,-2.0653,-2.0533,-2.04,-2.0255,-1.9857,-1.946,-1.9161,-1.9052,-1.9072,-1.9072,-1.7871,-1.7613,-1.7893,-1.6883,-1.6264,-1.6139,-1.5794,-1.5809,-1.6288,-1.6187,-1.6549,-1.7397,-1.6774,-1.5921,-1.4966,-1.4371,-1.3811,-1.3265,-1.2594,-1.212,-1.1865,-1.1409,0.0,0.0,0.0,0.0,0.0,0.0,0.0,0.0,0.0,0.0,-0.9006,-0.8807,-0.8647,-0.8552,-0.8174,-0.7777,-0.7168,-0.6191,-0.5641,-0.5631,-0.532,-0.4997,-0.4772,-0.4281,-0.3914,-0.3864,-0.3615,-0.3544,-0.3582,-0.3588,-0.3499,-0.332,-0.323,-0.3141,-0.2964,-0.2875,-0.2875,-0.2875,-0.2875,-0.2875,-0.2875,-0.3141,-0.3141,-0.2869,-0.2578,-0.1853,-0.0441,0.0712,0.1346,0.1436,0.1436,0.1436,0.1433,0.1412,0.1319,0.1073,0.1058,0.1051,0.1071,0.1166,0.1166,0.1166,0.1256,0.1525,0.1884,0.2153,0.2601,0.3314,0.3703,0.3992,-3.0561,-2.9735,-2.9152,-2.8208,-2.714,-2.5497,-2.4101,-2.2915,0.0,0.0,0.0,-2.147,-2.1081,-2.0665,-2.0665,-2.0521,-2.0267,-2.0002,-1.9591,-1.9161,-1.9181,-1.9072,-1.9072,-1.8022,-1.7636,-1.7776,-1.6494,-1.5754,-1.5573,-1.5312,-1.5329,-1.5746,-1.5611,-1.5979,-1.7056,-1.5876,-1.5303,-1.5322,-1.4984,-1.4484,-1.3648,-1.3028,-1.2565,-1.227,-1.1838,-1.1391,-1.1027,-1.072,-1.0264,-0.9526,-0.9601,-0.9567,-0.9308,-0.945,-0.9563,-0.9592,-0.9601,-0.9582,-0.9554,-0.9195,-0.8595,-0.7556,-0.6088,-0.532,-0.546,-0.5014,-0.4669,-0.4651,-0.3864,-0.3446,-0.3496,-0.3141,-0.2875,-0.2875,-0.2875,-0.2875,-0.2875,-0.2964,-0.3054,-0.2964,-0.2964,-0.2962,-0.2875,-0.2875,-0.2875,-0.2964,-0.332,-0.3585,-0.3317,-0.2867,-0.197,-0.0716,0.0269,0.1166,0.1346,0.1436,0.1346,0.1255,0.1324,0.1229,0.089,0.0706,0.0615,0.0536,0.0808,0.1077,0.1077,0.1256,0.1436,0.1705,0.1705,0.1794,0.224,0.2654,0.3063,-3.0918,-3.0166,-2.9735,-2.9102,-2.8308,-2.6807,-2.5646,-2.4774,-2.3523,-2.2653,-2.2154,-2.147,-2.0943,-2.0665,-2.0665,-2.0533,-2.0267,-2.0002,-1.9736,-1.9458,-1.9193,-1.9072,-1.9072,-1.7776,-1.713,-1.7001,-1.5714,-1.5052,-1.4976,-1.4623,-1.4788,-1.5329,-1.4952,-1.5116,-1.572,-1.4538,-1.4397,-1.5232,-1.4393,-1.3944,-1.4201,-1.2804,-1.2047,-1.1956,-1.1354,-1.1008,-1.0889,-1.0676,-1.0469,-1.0181,-1.0211,-1.0289,-1.0329,-1.0367,-1.048,-1.066,-1.0669,-1.0594,-1.0414,-0.9784,-0.879,-0.7403,-0.6222,-0.5556,-0.532,-0.486,-0.4378,-0.3952,-0.3755,-0.3464,-0.3063,-0.2964,-0.2964,-0.2964,-0.2875,-0.2875,-0.2964,-0.323,-0.332,-0.3054,-0.323,-0.332,-0.3051,-0.2964,-0.2964,-0.2964,-0.3409,-0.3764,-0.3942,-0.3224,-0.2419,-0.1791,-0.0627,0.0448,0.1077,0.1346,0.1256,0.0808,0.1146,0.1228,0.1162,0.0617,-0.0,-0.0,-0.0,0.1256,0.1346,0.1346,0.1436,0.1436,0.1525,0.1525,0.1615,0.1698,0.2049,-3.0918,-3.0632,-3.0181,-2.957,-2.8618,-2.7261,-2.6459,-2.5866,-2.5352,-2.4235,-2.2728,-2.1319,-2.0653,-2.0653,-2.0095,-1.9977,-2.0255,-1.9845,-1.9591,-1.9589,-1.9205,-1.9072,-1.9072,-1.8466,-1.7939,-1.7529,-1.6483,-1.5834,-1.5424,-1.514,-1.5177,-1.5276,-1.5235,-1.5017,-1.452,-1.4013,-1.4015,-1.4645,-1.4445,-1.4275,-1.4125,-1.336,-1.2746,-1.2381,-1.2047,-1.1672,-1.1162,-1.106,-1.0831,-1.0481,-1.0586,-1.0648,-1.0735,-1.0849,-1.0953,-1.1047,-1.1057,-1.0962,-1.0754,-0.9699,-0.866,-0.7604,-0.6463,-0.5726,-0.5489,-0.4622,-0.3985,-0.3759,-0.3725,-0.3595,-0.338,-0.3522,-0.3678,-0.3678,-0.3678,-0.3674,-0.3674,-0.3857,-0.3853,-0.3674,-0.3588,-0.3585,-0.3674,-0.3409,-0.3409,-0.3585,-0.4032,-0.4567,-0.4924,-0.4478,-0.3671,-0.2506,-0.1434,-0.0448,0.0448,0.0897,0.0987,0.1077,0.0794,0.0704,0.0625,-0.0,-0.0,-0.0,-0.0,0.0808,0.1256,0.1436,0.1436,0.1436,0.1436,0.1436,0.1436,0.1436,0.1615,-3.0982,-3.0982,-3.0599,-2.9859,-2.878,-2.7625,-2.7055,-2.6939,-2.6761,-2.5583,-2.3674,-2.1545,-2.0575,-2.0641,-1.9553,-1.9414,-1.9852,-1.9423,-1.9173,-1.922,-1.9169,-1.9072,-1.9072,-1.8863,-1.8337,-1.7647,-1.6872,-1.6224,-1.5814,-1.5495,-1.5286,-1.5162,-1.5176,-1.4741,-1.3769,-1.3712,-1.3846,-1.4142,-1.4395,-1.4393,-1.4039,-1.3698,-1.3195,-1.2652,-1.2495,-1.2083,-1.1368,-1.1298,-1.1081,-1.082,-1.0877,-1.0962,-1.0962,-1.1104,-1.1189,-1.1189,-1.1189,-1.1132,-1.0779,-0.9664,-0.86,-0.7945,-0.6789,-0.5847,-0.5508,-0.4708,-0.4138,-0.4021,-0.3975,-0.3935,-0.391,-0.4135,-0.4361,-0.4361,-0.4361,-0.4357,-0.4336,-0.4418,-0.4405,-0.4308,-0.4032,-0.4032,-0.421,-0.3942,-0.3942,-0.4389,-0.4741,-0.5191,-0.5552,-0.5552,-0.4656,-0.3403,-0.224,-0.1345,-0.0448,0.0269,0.0718,0.1076,0.0532,-0.0,-0.0,-0.0,-0.0,-0.0,-0.0,-0.0,0.0897,0.1256,0.1346,0.1436,0.1436,0.1346,0.1256,0.1166,0.1346,-3.1331,-3.13,-3.0998,-3.0159,-2.9043,-2.8377,-2.8141,-2.8151,-2.6668,-2.5548,-2.4651,-2.2819,-2.1443,-2.0653,-1.9702,-1.9197,-1.8979,-1.8668,-1.8427,-1.8231,-1.8828,-1.9072,-1.8944,-1.7787,-1.7141,-1.7001,-1.5834,-1.5323,-1.5183,-1.4862,-1.4652,-1.4433,-1.4081,-1.3977,-1.3958,-1.3788,-1.3674,-1.3775,-1.3575,-1.3605,-1.3628,-1.2949,-1.2402,-1.2164,-1.1782,-1.1573,-1.1496,-1.1344,-1.123,-1.1142,-1.1151,-1.1161,-1.117,-1.1189,-1.1189,-1.1189,-1.1189,-1.1091,-1.0779,-0.9976,-0.9174,-0.8308,-0.7111,-0.6121,-0.5632,-0.5422,-0.507,-0.4704,-0.4675,-0.4634,-0.4569,-0.4639,-0.4716,-0.4801,-0.4716,-0.461,-0.4618,-0.4881,-0.4936,-0.4308,-0.4652,-0.4746,-0.4478,-0.43,-0.4478,-0.4835,-0.5008,-0.5191,-0.5552,-0.5552,-0.528,-0.4389,-0.3314,-0.2151,-0.1255,-0.009,0.0359,0.0269,-0.0,-0.0,-0.0,-0.0,-0.0,-0.0,-0.0,-0.0,-0.0,0.0718,0.1346,0.1346,0.1346,0.1256,0.0897,0.0808,0.0987,-3.1395,-3.1379,-3.1236,-3.0735,-2.975,-2.8542,-2.8372,-2.8489,-2.7672,-2.6393,-2.5086,-2.3532,-2.2039,-2.0653,-1.9553,-1.9107,-1.9004,-1.8753,-1.8237,-1.7762,-1.8592,-1.8641,-1.7798,-1.726,-1.7001,-1.7001,-1.6353,-1.5964,-1.5544,-1.4862,-1.4591,-1.4487,-1.4163,-1.4128,-1.4014,-1.3798,-1.3695,-1.3693,-1.3608,-1.3546,-1.3375,-1.3031,-1.2654,-1.2342,-1.2153,-1.1822,-1.1597,-1.1491,-1.1288,-1.1169,-1.1166,-1.1189,-1.1189,-1.1189,-1.1189,-1.1189,-1.1189,-1.1002,-1.0609,-0.992,-0.9229,-0.8237,-0.7335,-0.6637,-0.6137,-0.6037,-0.5917,-0.5674,-0.5419,-0.5174,-0.5234,-0.537,-0.5516,-0.5521,-0.5521,-0.5482,-0.5368,-0.5445,-0.5491,-0.5211,-0.5013,-0.5102,-0.5102,-0.5107,-0.5196,-0.5374,-0.5374,-0.5463,-0.5646,-0.5641,-0.5463,-0.5102,-0.421,-0.3135,-0.1973,-0.1077,-0.0448,-0.0,-0.0,-0.0,-0.0,-0.0,-0.0,-0.0,-0.0,-0.0,-0.0,-0.0,0.0987,0.0987,0.1256,0.1346,0.1166,0.0897,0.0898,-3.1395,-3.1395,-3.1395,-3.1035,-3.0338,-2.9477,-2.9065,-2.8866,-2.8563,-2.7523,-2.5741,-2.4228,-2.2873,-2.1278,-1.9898,-1.9164,-1.913,-1.8643,-1.8039,-1.7486,-1.8195,-1.8049,-1.712,-1.6567,-1.6535,-1.6623,-1.6483,-1.6104,-1.5694,-1.5058,-1.4714,-1.4685,-1.4506,-1.4461,-1.4328,-1.4004,-1.3854,-1.3676,-1.3778,-1.3674,-1.3476,-1.3315,-1.3041,-1.2654,-1.2493,-1.2187,-1.1887,-1.1578,-1.1419,-1.1299,-1.1213,-1.11,-1.11,-1.1002,-1.0993,-1.11,-1.0993,-1.0806,-1.0413,-0.9821,-0.9031,-0.8137,-0.7441,-0.6936,-0.6537,-0.6437,-0.6437,-0.6331,-0.5965,-0.5728,-0.5816,-0.6042,-0.6187,-0.6181,-0.6181,-0.6037,-0.5842,-0.5887,-0.5823,-0.553,-0.5305,-0.528,-0.5641,-0.5646,-0.5646,-0.5646,-0.5646,-0.5735,-0.5735,-0.5646,-0.5641,-0.5374,-0.4835,-0.3853,-0.2601,-0.1705,-0.1076,-0.0,-0.0,-0.0,-0.0,-0.0,-0.0,-0.0,-0.0,-0.0,-0.0,-0.0,-0.0,-0.0,-0.0,-0.0,0.0808,-0.0,-0.0,-3.1395,-3.1395,-3.1395,-3.1188,-3.0839,-3.1134,-3.0647,-2.9723,-2.9407,-2.831,-2.6959,-2.5439,-2.4125,-2.2924,-2.0491,-1.9187,-1.9153,-1.8281,-1.789,-1.7701,-1.7276,-1.7149,-1.7224,-1.5707,-1.5346,-1.6035,-1.5482,-1.5071,-1.5071,-1.4922,-1.4922,-1.4903,-1.4852,-1.4885,-1.4817,-1.4392,-1.407,-1.3892,-1.3854,-1.3892,-1.3703,-1.3655,-1.3438,-1.3051,-1.2663,-1.2465,-1.2234,-1.1841,-1.1529,-1.152,-1.1123,-1.0815,-1.0806,-1.0609,-1.0609,-1.0806,-1.0609,-1.0413,-1.0314,-0.9624,-0.884,-0.8038,-0.7335,-0.6836,-0.6437,-0.6437,-0.6437,-0.6437,-0.6326,-0.6315,-0.6315,-0.6289,-0.6393,-0.6393,-0.6404,-0.6054,-0.5567,-0.5831,-0.5748,-0.5354,-0.543,-0.5563,-0.5735,-0.5735,-0.5735,-0.5735,-0.5735,-0.5735,-0.5735,-0.5735,-0.5641,-0.5374,-0.5018,-0.4393,-0.3585,-0.2422,-0.1525,-0.0897,-0.0,-0.0,-0.0,-0.0,-0.0,-0.0,-0.0,-0.0,-0.0,-0.0,-0.0,-0.0,-0.0,-0.0,-0.0,-0.0,-0.0,-3.1395,-3.1395,-3.1395,-3.1315,-3.1309,-3.1296,-3.1086,-3.041,-2.9565,-2.8831,-2.803,-2.6517,-2.5268,-2.4125,-2.2307,-2.0762,-1.9632,-1.9262,-1.8644,-1.797,-1.695,-1.6702,-1.6799,-1.5827,-1.5394,-1.5596,-1.5319,-1.5054,-1.4941,-1.4931,-1.4931,-1.4931,-1.4865,-1.49,-1.4913,-1.4827,-1.4556,-1.4471,-1.4213,-1.3977,-1.3892,-1.3759,-1.3608,-1.3466,-1.3192,-1.2805,-1.2423,-1.2187,-1.1878,-1.1298,-1.1107,-1.0843,-1.0529,-1.0413,-1.0413,-1.0511,-1.0314,-1.0019,-0.9616,-0.9023,-0.8336,-0.7534,-0.7141,-0.6736,-0.6437,-0.6437,-0.6437,-0.6437,-0.6437,-0.6437,-0.6437,-0.6437,-0.6437,-0.6337,-0.6132,-0.5797,-0.5596,-0.5585,-0.5477,-0.5271,-0.544,-0.5735,-0.5735,-0.5735,-0.5735,-0.5735,-0.5735,-0.5735,-0.5735,-0.5735,-0.5646,-0.5552,-0.5374,-0.5018,-0.4567,-0.3048,-0.1886,-0.1436,-0.0,-0.0,-0.0,-0.0,-0.0,-0.0,-0.0,-0.0,-0.0,-0.0,-0.0,-0.0,-0.0,-0.0,-0.0,-0.0,-0.0,-3.149,-3.1395,-3.1395,-3.1395,-3.1347,-3.142,-3.1259,-3.0775,-2.985,-2.9273,-2.8804,-2.759,-2.6488,-2.5422,-2.4174,-2.2653,-2.0971,-2.019,-1.9363,-1.8571,-1.7493,-1.6934,-1.6636,-1.606,-1.5748,-1.5536,-1.5337,-1.5158,-1.5035,-1.4969,-1.4931,-1.4931,-1.4931,-1.4865,-1.489,-1.4871,-1.4904,-1.4828,-1.4413,-1.4185,-1.4099,-1.3901,-1.3788,-1.3769,-1.3589,-1.3287,-1.2636,-1.2477,-1.2178,-1.1517,-1.1253,-1.0925,-1.0439,-1.0413,-1.0413,-1.0413,-1.0019,-0.9517,-0.9114,-0.8528,-0.7832,-0.7141,-0.6942,-0.6642,-0.6437,-0.6437,-0.6437,-0.6437,-0.6437,-0.6437,-0.6437,-0.6437,-0.6437,-0.6337,-0.6037,-0.5807,-0.5541,-0.5509,-0.5462,-0.5415,-0.551,-0.5646,-0.5735,-0.5735,-0.5735,-0.5735,-0.5735,-0.5735,-0.5735,-0.5735,-0.5735,-0.5646,-0.5552,-0.5285,-0.4924,-0.3764,-0.269,-0.2153,-0.1346,-0.0897,-0.0449,-0.018,-0.0,-0.0,-0.0,-0.0,-0.0,-0.0,-0.0,-0.0,-0.0,-0.0,-0.0,-0.0,-0.0,-3.1697,-3.1411,-3.1395,-3.1395,-3.1379,-3.1331,-3.1172,-3.0855,-3.0292,-2.996,-2.9561,-2.8588,-2.768,-2.6765,-2.5604,-2.4369,-2.2721,-2.0805,-1.9864,-1.9804,-1.892,-1.8004,-1.7251,-1.6658,-1.6147,-1.5729,-1.5356,-1.5243,-1.5196,-1.5044,-1.4959,-1.4941,-1.4931,-1.4922,-1.4922,-1.4903,-1.4957,-1.4804,-1.46,-1.4496,-1.4317,-1.4109,-1.3996,-1.3977,-1.3797,-1.3495,-1.3079,-1.2691,-1.2281,-1.2028,-1.1465,-1.0934,-1.0474,-1.0422,-1.0413,-1.0216,-0.9616,-0.9122,-0.8726,-0.8024,-0.7335,-0.6942,-0.6742,-0.6642,-0.6437,-0.6437,-0.6437,-0.6437,-0.6437,-0.6437,-0.6437,-0.6437,-0.6437,-0.6437,-0.6237,-0.6032,-0.5792,-0.5843,-0.6002,-0.5732,-0.5768,-0.5741,-0.5735,-0.5735,-0.5735,-0.5735,-0.5735,-0.5735,-0.5735,-0.5735,-0.5735,-0.5646,-0.5552,-0.5463,-0.5013,-0.4389,-0.3674,-0.2867,-0.1884,-0.1166,-0.0628,-0.0,-0.0,-0.0,-0.0,-0.0,-0.0,-0.0,-0.0,-0.0,-0.0,-0.0,-0.0,-0.0,-0.0,-3.149,-3.1395,-3.1395,-3.1395,-3.1395,-3.1395,-3.1315,-3.1188,-3.0839,-3.0489,-3.014,-2.9514,-2.865,-2.7665,-2.6301,-2.5098,-2.3956,-2.2194,-2.1148,-2.0639,-2.0132,-1.9537,-1.8765,-1.8015,-1.7344,-1.6609,-1.5971,-1.5508,-1.5262,-1.5167,-1.5073,-1.4959,-1.4931,-1.4931,-1.4931,-1.4931,-1.4893,-1.4837,-1.4704,-1.4591,-1.4515,-1.4326,-1.4156,-1.4014,-1.3939,-1.3712,-1.3306,-1.3013,-1.2599,-1.2154,-1.1769,-1.1268,-1.0768,-1.0483,-1.0323,-1.0117,-0.9418,-0.8726,-0.8237,-0.7534,-0.6942,-0.6637,-0.6542,-0.6537,-0.6437,-0.6437,-0.6437,-0.6437,-0.6437,-0.6437,-0.6437,-0.6437,-0.6437,-0.6437,-0.6037,-0.5837,-0.5717,-0.5713,-0.5772,-0.5909,-0.5904,-0.5855,-0.5833,-0.5801,-0.5752,-0.5746,-0.5746,-0.5752,-0.5741,-0.5757,-0.5735,-0.5646,-0.5641,-0.5468,-0.5107,-0.4656,-0.3853,-0.3045,-0.2153,-0.1346,-0.0808,-0.0,-0.0,-0.0,-0.0,-0.0,-0.0,-0.0,-0.0,-0.0,-0.0,-0.0,-0.0,-0.0,-0.0,-3.1506,-3.1395,-3.1395,-3.1395,-3.1395,-3.1395,-3.1395,-3.1331,-3.1014,-3.0648,-3.0299,-2.9965,-2.9325,-2.813,-2.6879,-2.5749,-2.4703,-2.319,-2.2186,-2.1341,-2.084,-2.0262,-1.9526,-1.8724,-1.7928,-1.7235,-1.6589,-1.5961,-1.5366,-1.5271,-1.513,-1.4969,-1.4931,-1.4931,-1.4931,-1.4931,-1.4931,-1.4912,-1.4808,-1.4742,-1.4704,-1.4534,-1.4364,-1.4241,-1.409,-1.3882,-1.3618,-1.3343,-1.2994,-1.2376,-1.2089,-1.1535,-1.1051,-1.0888,-1.0591,-1.0126,-0.932,-0.8528,-0.8038,-0.7141,-0.6542,-0.6437,-0.6437,-0.6437,-0.6437,-0.6437,-0.6437,-0.6437,-0.6437,-0.6437,-0.6437,-0.6437,-0.6437,-0.6437,-0.6137,-0.5922,-0.5887,-0.5821,-0.5828,-0.6,-0.6013,-0.598,-0.5947,-0.592,-0.5839,-0.5817,-0.5833,-0.5833,-0.5828,-0.5844,-0.5833,-0.5817,-0.5716,-0.561,-0.5379,-0.4746,-0.4032,-0.3224,-0.2422,-0.1525,-0.0897,-0.0,-0.0,-0.0,-0.0,-0.0,-0.0,-0.0,-0.0,-0.0,-0.0,-0.0,-0.0,-0.0,-0.0,-3.1681,-3.1411,-3.1395,-3.1395,-3.1395,-3.1395,-3.1395,-3.1331,-3.1061,-3.0696,-3.0315,-3.0029,-2.9356,-2.8625,-2.7346,-2.6196,-2.5198,-2.3844,-2.2793,-2.1898,-2.1234,-2.0627,-1.9933,-1.9049,-1.8261,-1.7669,-1.7225,-1.6609,-1.5846,-1.551,-1.5148,-1.4997,-1.495,-1.4931,-1.4931,-1.4931,-1.4931,-1.4931,-1.4922,-1.4912,-1.4903,-1.4752,-1.4629,-1.4591,-1.427,-1.4052,-1.391,-1.3561,-1.3173,-1.2776,-1.238,-1.1906,-1.1652,-1.1539,-1.1116,-1.0457,-0.9426,-0.8627,-0.7939,-0.7135,-0.6437,-0.6437,-0.6437,-0.6437,-0.6437,-0.6437,-0.6437,-0.6437,-0.6437,-0.6437,-0.6437,-0.6437,-0.6437,-0.6437,-0.6337,-0.6299,-0.6306,-0.629,-0.6252,-0.6159,-0.6105,-0.6094,-0.6094,-0.6078,-0.6007,-0.5964,-0.5991,-0.598,-0.5958,-0.5958,-0.5996,-0.5969,-0.592,-0.5684,-0.5365,-0.4709,-0.398,-0.3224,-0.2422,-0.1705,-0.0897,-0.0,-0.0,-0.0,-0.0,-0.0,-0.0,-0.0,-0.0,-0.0,-0.0,-0.0,-0.0,-0.0,-0.0,-3.1474,-3.1395,-3.1395,-3.1395,-3.1395,-3.1395,-3.1395,-3.1379,-3.13,-3.0886,-3.041,-3.0235,-2.9707,-2.8594,-2.755,-2.6371,-2.5198,-2.3883,-2.298,-2.2238,-2.2091,-2.1302,-2.0554,-1.9575,-1.9111,-1.8821,-1.8186,-1.7513,-1.6736,-1.637,-1.5883,-1.5158,-1.4997,-1.4931,-1.4931,-1.4931,-1.4931,-1.4931,-1.4931,-1.4931,-1.4922,-1.4884,-1.478,-1.4629,-1.4515,-1.4298,-1.4014,-1.3608,-1.3202,-1.2795,-1.2521,-1.2247,-1.1964,-1.1699,-1.1309,-1.0815,-0.9788,-0.8825,-0.8237,-0.7341,-0.6642,-0.6437,-0.6437,-0.6437,-0.6437,-0.6437,-0.6437,-0.6437,-0.6437,-0.6437,-0.6437,-0.6437,-0.6437,-0.6437,-0.6437,-0.642,-0.6393,-0.6393,-0.6377,-0.6344,-0.6268,-0.623,-0.6208,-0.6154,-0.6094,-0.6062,-0.6072,-0.6094,-0.6067,-0.6078,-0.6111,-0.6078,-0.6024,-0.5686,-0.5267,-0.4597,-0.3923,-0.3147,-0.2422,-0.1705,-0.0987,-0.0,-0.0,-0.0,-0.0,-0.0,-0.0,-0.0,-0.0,-0.0,-0.0,-0.0,-0.0,-0.0,-0.0,-3.1395,-3.1395,-3.1395,-3.1395,-3.1395,-3.1395,-3.1395,-3.1395,-3.1379,-3.1077,-3.0632,-3.0553,-3.0008,-2.8811,-2.7744,-2.6485,-2.5212,-2.3883,-2.2992,-2.2323,-2.2032,-2.1493,-2.0786,-2.011,-1.982,-1.939,-1.9111,-1.8133,-1.7093,-1.6752,-1.6116,-1.5357,-1.5035,-1.4941,-1.4931,-1.4931,-1.4931,-1.4931,-1.4931,-1.4931,-1.4931,-1.4931,-1.4884,-1.4752,-1.4685,-1.444,-1.4033,-1.3778,-1.3419,-1.2975,-1.2691,-1.2446,-1.2153,-1.1926,-1.1494,-1.1143,-1.0088,-0.9207,-0.8443,-0.754,-0.6842,-0.6537,-0.6437,-0.6437,-0.6437,-0.6437,-0.6437,-0.6437,-0.6437,-0.6437,-0.6437,-0.6437,-0.6437,-0.6437,-0.6437,-0.6437,-0.6437,-0.6431,-0.6437,-0.642,-0.6382,-0.6339,-0.6339,-0.6268,-0.6214,-0.6192,-0.6219,-0.6208,-0.6181,-0.6203,-0.6203,-0.6176,-0.6053,-0.581,-0.5373,-0.4686,-0.3793,-0.3009,-0.2061,-0.1436,-0.0,-0.0,-0.0,-0.0,-0.0,-0.0,-0.0,-0.0,-0.0,-0.0,-0.0,-0.0,-0.0,-0.0,-0.0,-3.1395,-3.1395,-3.1395,-3.1395,-3.1395,-3.1395,-3.1395,-3.1395,-3.1395,-3.1188,-3.0886,-3.0855,-3.0292,-2.9136,-2.7999,-2.6686,-2.5267,-2.3909,-2.3078,-2.2325,-2.1813,-2.1197,-2.0714,-2.0665,-2.0249,-1.982,-1.9669,-1.8721,-1.7845,-1.7213,-1.657,-1.5825,-1.5346,-1.495,-1.5052,-1.5052,-1.5062,-1.4922,-1.4931,-1.4931,-1.4931,-1.4931,-1.4912,-1.4884,-1.4714,-1.4496,-1.4203,-1.3996,-1.3721,-1.3154,-1.2918,-1.2616,-1.2276,-1.2191,-1.1868,-1.128,-1.0459,-0.9548,-0.8621,-0.7818,-0.7095,-0.6704,-0.6486,-0.6453,-0.6464,-0.6458,-0.6437,-0.6437,-0.6437,-0.6437,-0.6437,-0.6437,-0.6437,-0.6437,-0.6437,-0.6437,-0.6437,-0.6437,-0.6437,-0.6437,-0.6437,-0.6437,-0.6437,-0.6431,-0.6393,-0.6295,-0.6323,-0.6317,-0.6306,-0.6317,-0.6312,-0.629,-0.6166,-0.6037,-0.5494,-0.4871,-0.3762,-0.2775,-0.1627,-0.0,-0.0,-0.0,-0.0,-0.0,-0.0,-0.0,-0.0,-0.0,-0.0,-0.0,-0.0,-0.0,-0.0,-0.0,-0.0,-3.1395,-3.1395,-3.1395,-3.1395,-3.1395,-3.1395,-3.1395,-3.1395,-3.1395,-3.1204,-3.0934,-3.0871,-3.0466,-2.961,-2.8178,-2.68,-2.5486,-2.411,-2.2965,-2.2273,-2.1728,-2.1172,-2.0762,-2.0678,-2.0527,-2.0388,-2.0388,-1.9924,-1.9104,-1.849,-1.8145,-1.7099,-1.6308,-1.5672,-1.5135,-1.5724,-1.5574,-1.5024,-1.4912,-1.5062,-1.5062,-1.5062,-1.5062,-1.4922,-1.4752,-1.461,-1.4459,-1.4185,-1.3873,-1.3551,-1.3211,-1.2899,-1.2606,-1.2323,-1.2009,-1.1659,-1.0993,-1.0182,-0.9412,-0.846,-0.7657,-0.6998,-0.6724,-0.6578,-0.6573,-0.6491,-0.6448,-0.6437,-0.6437,-0.6437,-0.6437,-0.6437,-0.6437,-0.6437,-0.6437,-0.6437,-0.6437,-0.6437,-0.6437,-0.6437,-0.6437,-0.6437,-0.6437,-0.6437,-0.642,-0.6399,-0.6404,-0.6415,-0.642,-0.642,-0.6399,-0.6366,-0.6355,-0.6126,-0.5484,-0.4651,-0.3528,-0.2623,-0.1466,-0.0,-0.0,-0.0,-0.0,-0.0,-0.0,-0.0,-0.0,-0.0,-0.0,-0.0,-0.0,-0.0,-0.0,-0.0,-0.0,-3.1141,-3.1157,-3.1315,-3.1395,-3.1395,-3.1395,-3.1395,-3.1395,-3.1395,-3.1284,-3.1141,-3.1109,-3.0672,-2.975,-2.8342,-2.6944,-2.531,-2.3664,-2.267,-2.219,-2.186,-2.1257,-2.0754,-2.0714,-2.0665,-2.0665,-2.0665,-2.0237,-1.9611,-1.9301,-1.8686,-1.8009,-1.7347,-1.6695,-1.6065,-1.6488,-1.6447,-1.6084,-1.5954,-1.5844,-1.5844,-1.5844,-1.5714,-1.5443,-1.5336,-1.5129,-1.46,-1.444,-1.4156,-1.3844,-1.3532,-1.3164,-1.2824,-1.2559,-1.2361,-1.2037,-1.1415,-1.0548,-0.9758,-0.8898,-0.7947,-0.7223,-0.6945,-0.6681,-0.6632,-0.6551,-0.6491,-0.6453,-0.6437,-0.6437,-0.6437,-0.6437,-0.6437,-0.6437,-0.6437,-0.6437,-0.6437,-0.6437,-0.6437,-0.6437,-0.6437,-0.6437,-0.6437,-0.6437,-0.6437,-0.642,-0.642,-0.6431,-0.6431,-0.6431,-0.6431,-0.6415,-0.6426,-0.6106,-0.5461,-0.4516,-0.3286,-0.237,-0.1391,-0.0637,-0.0,-0.0,-0.0,-0.0,-0.0,-0.0,-0.0,-0.0,-0.0,-0.0,-0.0,-0.0,-0.0,-0.0,-0.0,-3.0807,-3.0886,-3.1188,-3.1331,-3.1379,-3.1331,-3.13,-3.1453,-3.1252,-3.1125,-3.122,-3.122,-3.0624,-2.9678,-2.8432,-2.6886,-2.4905,-2.329,-2.2399,-2.2313,-2.1825,-2.1414,-2.097,-2.0742,-2.0762,-2.0726,-2.069,-2.0249,-1.99,-1.9485,-1.9221,-1.8594,-1.8303,-1.8039,-1.7708,-1.7467,-1.7522,-1.738,-1.6904,-1.6742,-1.6872,-1.6872,-1.6613,-1.6224,-1.5954,-1.5614,-1.4981,-1.4728,-1.444,-1.4081,-1.3854,-1.3438,-1.3022,-1.2758,-1.2644,-1.2149,-1.1693,-1.0954,-1.011,-0.9111,-0.8255,-0.7381,-0.7046,-0.679,-0.6714,-0.6638,-0.6562,-0.6502,-0.6464,-0.6437,-0.6437,-0.6437,-0.6437,-0.6437,-0.6437,-0.6437,-0.6437,-0.6437,-0.6437,-0.6437,-0.6437,-0.6437,-0.6437,-0.6437,-0.6437,-0.6437,-0.6437,-0.6437,-0.6437,-0.6437,-0.6537,-0.6537,-0.6537,-0.5737,-0.5001,-0.435,-0.3017,-0.2112,-0.1316,-0.0738,-0.0,-0.0,-0.0,-0.0,-0.0,-0.0,-0.0,-0.0,-0.0,-0.0,-0.0,-0.0,-0.0,-0.0,-0.0,-3.0585,-3.0871,-3.0918,-3.1109,-3.1315,-3.1077,-3.1118,-3.1253,-3.068,-3.0671,-3.0702,-3.0521,-3.019,-2.9524,-2.8223,-2.6122,-2.4097,-2.2694,-2.2299,-2.2252,-2.1946,-2.1619,-2.139,-2.0934,-2.0826,-2.0931,-2.0798,-2.0527,-2.0527,-2.0467,-2.006,-1.9894,-1.9823,-1.9522,-1.9142,-1.868,-1.8444,-1.8307,-1.7781,-1.7303,-1.726,-1.726,-1.713,-1.6872,-1.6483,-1.6073,-1.5624,-1.509,-1.4515,-1.427,-1.4071,-1.3731,-1.3334,-1.2994,-1.2767,-1.2496,-1.19,-1.1125,-1.0434,-0.9479,-0.862,-0.795,-0.7334,-0.7067,-0.6877,-0.6752,-0.6649,-0.6567,-0.6497,-0.6442,-0.6437,-0.6437,-0.6437,-0.6437,-0.6437,-0.6437,-0.6437,-0.6437,-0.6437,-0.6437,-0.6437,-0.6437,-0.6437,-0.6437,-0.6437,-0.6437,-0.6437,-0.6542,-0.6642,-0.6637,-0.6637,-0.6637,-0.6637,-0.5536,-0.4425,-0.3772,-0.284,-0.1941,-0.124,-0.0842,-0.0,-0.0,-0.0,-0.0,-0.0,-0.0,-0.0,-0.0,-0.0,-0.0,-0.0,-0.0,-0.0,-0.0,-0.0,-3.0172,-3.033,-3.0505,-3.068,-3.0791,-3.0664,-3.075,-3.0734,-3.041,-3.015,-2.9986,-3.0001,-2.9774,-2.8877,-2.7539,-2.5499,-2.3502,-2.2558,-2.2335,-2.2226,-2.2092,-2.1983,-2.1776,-2.1424,-2.11,-2.0979,-2.0798,-2.0665,-2.0665,-2.0665,-2.0581,-2.0521,-2.0484,-2.0488,-2.0269,-1.9709,-1.9326,-1.9017,-1.8557,-1.8159,-1.8045,-1.8045,-1.7916,-1.7518,-1.726,-1.6872,-1.6333,-1.5764,-1.5327,-1.4993,-1.4529,-1.4014,-1.3684,-1.3325,-1.2984,-1.2683,-1.2027,-1.1244,-1.0468,-0.9471,-0.8582,-0.7814,-0.743,-0.7155,-0.6986,-0.6872,-0.6752,-0.6638,-0.6584,-0.6502,-0.6448,-0.6442,-0.6437,-0.6437,-0.6437,-0.6437,-0.6437,-0.6437,-0.6437,-0.6437,-0.6437,-0.6437,-0.6437,-0.6437,-0.6437,-0.6437,-0.6537,-0.6642,-0.6842,-0.6842,-0.6836,-0.6736,-0.6637,-0.5636,-0.4433,-0.3601,-0.2769,-0.1764,-0.1163,-0.0761,-0.0,-0.0,-0.0,-0.0,-0.0,-0.0,-0.0,-0.0,-0.0,-0.0,-0.0,-0.0,-0.0,-0.0,-0.0,-2.9727,-2.9743,-2.9997,-3.0108,-3.0124,-2.996,-3.0124,-3.0156,-2.996,-2.9361,-2.8694,-2.8964,-2.871,-2.7762,-2.639,-2.4688,-2.2856,-2.2558,-2.2259,-2.236,-2.2238,-2.2276,-2.2129,-2.1775,-2.1327,-2.1148,-2.081,-2.0678,-2.0665,-2.0665,-2.0665,-2.0641,-2.0653,-2.0731,-2.0537,-2.0255,-1.9831,-1.9615,-1.934,-1.9338,-1.9145,-1.9072,-1.8816,-1.8291,-1.8033,-1.7647,-1.713,-1.6602,-1.609,-1.563,-1.5041,-1.4452,-1.4108,-1.3737,-1.324,-1.2805,-1.2099,-1.1194,-1.0359,-0.9368,-0.8595,-0.7937,-0.7382,-0.721,-0.704,-0.6975,-0.6883,-0.6709,-0.6616,-0.6584,-0.6502,-0.6453,-0.6442,-0.6437,-0.6437,-0.6437,-0.6437,-0.6437,-0.6437,-0.6437,-0.6437,-0.6437,-0.6437,-0.6437,-0.6437,-0.6437,-0.6542,-0.6842,-0.6942,-0.7042,-0.7036,-0.6836,-0.6537,-0.5737,-0.4734,-0.3729,-0.2697,-0.1587,-0.108,-0.0678,-0.0,-0.0,-0.0,-0.0,-0.0,-0.0,-0.0,-0.0,-0.0,-0.0,-0.0,-0.0,-0.0,-0.0,-0.0,-2.9361,-2.9361,-2.9393,-2.9409,-2.9409,-2.8976,-2.9488,-3.0034,-2.8894,-2.7575,-2.6603,-2.7026,-2.675,-2.5763,-2.4449,-2.3464,-2.2856,-2.2558,-2.2259,-2.2247,-2.236,-2.2311,-2.2262,-2.1679,-2.1533,-2.1245,-2.0871,-2.0702,-2.0665,-2.0665,-2.0665,-2.0665,-2.0665,-2.0641,-2.0707,-2.0424,-2.0403,-2.0392,-1.9844,-1.935,-1.9145,-1.9084,-1.8944,-1.8688,-1.8302,-1.8033,-1.7776,-1.726,-1.6776,-1.6573,-1.5689,-1.5082,-1.4831,-1.3856,-1.3546,-1.3105,-1.2397,-1.1535,-1.0634,-0.9588,-0.8706,-0.8048,-0.7604,-0.7254,-0.7105,-0.704,-0.6942,-0.6801,-0.6703,-0.6622,-0.6573,-0.6497,-0.6458,-0.6437,-0.6437,-0.6437,-0.6437,-0.6437,-0.6437,-0.6437,-0.6437,-0.6437,-0.6437,-0.6437,-0.6437,-0.6537,-0.6642,-0.6842,-0.7141,-0.7235,-0.7235,-0.7036,-0.6537,-0.5737,-0.4834,-0.383,-0.2819,-0.1602,-0.1192,-0.0787,-0.0,-0.0,-0.0,-0.0,-0.0,-0.0,-0.0,-0.0,-0.0,-0.0,-0.0,-0.0,-0.0,-0.0,-0.0,-2.8519,-2.8694,-2.8412,-2.8272,-2.8146,-2.7706,-2.8082,-2.8617,-2.7342,-2.5982,-2.5102,-2.527,-2.4966,-2.4037,-2.3171,-2.2707,-2.2521,-2.2408,-2.2259,-2.2259,-2.2247,-2.2174,-2.181,-2.1655,-2.1438,-2.1172,-2.0895,-2.069,-2.0665,-2.0665,-2.0665,-2.0665,-2.0665,-2.0665,-2.0665,-2.0557,-2.0573,-2.033,-1.9796,-1.9173,-1.903,-1.8641,-1.8431,-1.8431,-1.8162,-1.8162,-1.8045,-1.7658,-1.7356,-1.7202,-1.6624,-1.6013,-1.5648,-1.4862,-1.4252,-1.383,-1.2882,-1.1828,-1.0667,-0.9536,-0.8719,-0.8048,-0.7493,-0.7265,-0.7143,-0.7105,-0.7029,-0.6915,-0.6861,-0.6774,-0.6654,-0.6573,-0.6507,-0.6469,-0.6448,-0.6437,-0.6437,-0.6437,-0.6437,-0.6437,-0.6437,-0.6437,-0.6437,-0.6437,-0.6437,-0.6537,-0.6736,-0.7036,-0.7341,-0.754,-0.7434,-0.7135,-0.6537,-0.5842,-0.4834,-0.393,-0.3128,-0.2111,-0.161,-0.1299,-0.1099,-0.0,-0.0495,-0.0198,-0.0,-0.0,-0.0,-0.0,-0.0,-0.0,-0.0,-0.0,-0.0,-0.0,-0.0,-2.7431,-2.7437,-2.7274,-2.6893,-2.6496,-2.6141,-2.6459,-2.7089,-2.5765,-2.4313,-2.3474,-2.3426,-2.321,-2.2746,-2.2422,-2.2276,-2.215,-2.2223,-2.2259,-2.2259,-2.2174,-2.2042,-2.1666,-2.1402,-2.1245,-2.104,-2.081,-2.0678,-2.0665,-2.0665,-2.0665,-2.0665,-2.0665,-2.0665,-2.0665,-2.0629,-2.0671,-2.0267,-1.9444,-1.8909,-1.8638,-1.79,-1.781,-1.7776,-1.7776,-1.7916,-1.8302,-1.8045,-1.7916,-1.7976,-1.7401,-1.6768,-1.6393,-1.5523,-1.4761,-1.4124,-1.3021,-1.1828,-1.0768,-0.9687,-0.8654,-0.7832,-0.7382,-0.7154,-0.7154,-0.7154,-0.7133,-0.7029,-0.6975,-0.6872,-0.6752,-0.6676,-0.6578,-0.6513,-0.6464,-0.6448,-0.6442,-0.6448,-0.6448,-0.6437,-0.6437,-0.6537,-0.6537,-0.6542,-0.6537,-0.6537,-0.6736,-0.7235,-0.7534,-0.7739,-0.764,-0.7335,-0.6637,-0.5942,-0.5135,-0.4232,-0.3327,-0.2523,-0.2021,-0.1615,-0.1308,-0.1208,-0.1004,-0.0604,-0.0303,-0.0,-0.0,-0.0,-0.0,-0.0,-0.0,-0.0,-0.0,-0.0202,-0.0,-2.5897,-2.539,-2.5712,-2.5336,-2.4715,-2.4303,-2.4507,-2.5082,-2.43,-2.2717,-2.1455,-2.1579,-2.1944,-2.1775,-2.1837,-2.1971,-2.1921,-2.215,-2.2223,-2.2323,-2.2202,-2.1909,-2.1522,-2.1078,-2.0922,-2.0991,-2.0786,-2.0678,-2.0665,-2.0665,-2.0665,-2.0665,-2.0665,-2.0665,-2.0665,-2.0653,-2.0419,-1.9918,-1.9194,-1.8528,-1.7928,-1.7173,-1.6774,-1.7012,-1.713,-1.7389,-1.8033,-1.8045,-1.8302,-1.8547,-1.7851,-1.7233,-1.6739,-1.5648,-1.4882,-1.4182,-1.2913,-1.1719,-1.074,-0.9724,-0.8745,-0.7979,-0.7487,-0.7154,-0.7154,-0.7154,-0.7143,-0.7122,-0.7056,-0.6991,-0.6883,-0.6785,-0.6681,-0.6611,-0.6567,-0.654,-0.6518,-0.6475,-0.6469,-0.6448,-0.6437,-0.6537,-0.6642,-0.6642,-0.6742,-0.6736,-0.6936,-0.7441,-0.764,-0.7939,-0.7739,-0.7441,-0.6836,-0.6137,-0.5436,-0.4533,-0.333,-0.2523,-0.2021,-0.1718,-0.1515,-0.1415,-0.1314,-0.1112,-0.0,-0.0,-0.0,-0.0,-0.0,-0.0,-0.1415,-0.1112,-0.0808,-0.0505,-0.0,-2.4668,-2.3907,-2.3435,-2.3249,-2.3224,-2.2671,-2.27,-2.2863,-2.2102,-2.1333,-2.0521,-2.0853,-2.1108,-2.1197,-2.1317,-2.1583,-2.1836,-2.1957,-2.2102,-2.2299,-2.2189,-2.1788,-2.1233,-2.0805,-2.0814,-2.0834,-2.0702,-2.0665,-2.0665,-2.0665,-2.0665,-2.0665,-2.0665,-2.0665,-2.0665,-2.0665,-2.0316,-1.9657,-1.8879,-1.809,-1.7315,-1.6277,-1.5712,-1.5714,-1.5964,-1.6353,-1.7001,-1.7389,-1.7787,-1.7893,-1.7686,-1.7356,-1.6757,-1.5535,-1.4819,-1.4106,-1.2586,-1.1375,-1.0414,-0.9525,-0.8546,-0.7731,-0.7321,-0.716,-0.7171,-0.716,-0.7154,-0.7138,-0.7116,-0.7062,-0.6964,-0.6899,-0.6834,-0.6752,-0.6687,-0.6649,-0.6616,-0.6573,-0.6551,-0.6556,-0.6486,-0.6537,-0.6642,-0.6742,-0.6842,-0.6936,-0.7241,-0.754,-0.7839,-0.7939,-0.7739,-0.7441,-0.6836,-0.6037,-0.5336,-0.4232,-0.3128,-0.2523,-0.2021,-0.1819,-0.1617,-0.1617,-0.1415,-0.1415,-0.1213,-0.0,-0.0,-0.0,-0.0,-0.0,-0.1415,-0.1516,-0.1112,-0.0707,-0.0,-2.3672,-2.2539,-2.157,-2.1518,-2.183,-2.1332,-2.1159,-2.1117,-2.0597,-2.0294,-2.0291,-2.0484,-2.0702,-2.0895,-2.1064,-2.1233,-2.1583,-2.1776,-2.2068,-2.2227,-2.2263,-2.1595,-2.1019,-2.0757,-2.0671,-2.069,-2.0665,-2.0665,-2.0665,-2.0665,-2.0665,-2.0665,-2.0665,-2.0665,-2.0665,-2.0376,-2.0098,-1.9206,-1.8473,-1.7265,-1.635,-1.5194,-1.459,-1.4435,-1.4791,-1.5443,-1.5964,-1.6483,-1.6742,-1.7001,-1.6969,-1.6733,-1.617,-1.5332,-1.451,-1.3419,-1.2264,-1.0906,-0.9905,-0.9007,-0.8299,-0.7508,-0.7334,-0.7269,-0.722,-0.7203,-0.7214,-0.7154,-0.7149,-0.7122,-0.7029,-0.6986,-0.6937,-0.685,-0.6779,-0.6736,-0.673,-0.6703,-0.6687,-0.6676,-0.6691,-0.6709,-0.6983,-0.719,-0.7241,-0.7241,-0.7341,-0.764,-0.7839,-0.7939,-0.7739,-0.7335,-0.6736,-0.5937,-0.5135,-0.4131,-0.3229,-0.2725,-0.2223,-0.1819,-0.1617,-0.1617,-0.1415,-0.1213,-0.101,-0.0909,-0.0,-0.0,-0.0,-0.0,-0.1213,-0.1415,-0.1516,-0.1112,-0.0606,-2.2779,-2.1502,-2.0602,-2.0246,-2.0513,-2.0135,-2.0022,-2.0062,-1.9978,-1.9977,-2.0183,-2.0279,-2.0436,-2.069,-2.0742,-2.0934,-2.0959,-2.145,-2.1764,-2.1946,-2.2042,-2.1509,-2.0805,-2.0286,-2.0296,-2.0539,-2.0527,-2.0388,-2.0665,-2.0527,-2.0665,-2.0678,-2.0678,-2.0678,-2.0665,-1.9796,-1.896,-1.7959,-1.7354,-1.6196,-1.5001,-1.3883,-1.3587,-1.3401,-1.3613,-1.4268,-1.5062,-1.5443,-1.5704,-1.5964,-1.5954,-1.5724,-1.5307,-1.4728,-1.3879,-1.2819,-1.1657,-1.0443,-0.9323,-0.8473,-0.7903,-0.763,-0.7459,-0.7415,-0.735,-0.7323,-0.7285,-0.722,-0.7182,-0.7165,-0.7111,-0.7062,-0.7013,-0.697,-0.6899,-0.6872,-0.6866,-0.6828,-0.6806,-0.6785,-0.6906,-0.7129,-0.7388,-0.7642,-0.7672,-0.7646,-0.7646,-0.7739,-0.7939,-0.7939,-0.7739,-0.7441,-0.6836,-0.6137,-0.5336,-0.4228,-0.3428,-0.2927,-0.2324,-0.192,-0.1718,-0.1617,-0.1415,-0.101,-0.1112,-0.1213,-0.0606,-0.0,-0.0,-0.0,-0.0,-0.1314,-0.1415,-0.1415,-0.0808,-2.1443,-2.0208,-1.9699,-1.9249,-1.8935,-1.9217,-1.9407,-1.9362,-1.9388,-1.952,-1.9808,-2.0086,-2.0179,-2.0209,-2.0261,-2.018,-2.0083,-2.0009,-2.0445,-2.0944,-2.1426,-2.0232,-1.9424,-1.9082,-1.9262,-1.9541,-1.9552,-1.997,-2.0249,-2.0249,-2.0527,-2.0665,-2.0599,-2.0423,-1.9518,-1.8497,-1.7207,-1.7268,-1.6627,-1.5496,-1.4216,-1.3287,-1.2728,-1.246,-1.2708,-1.3358,-1.4277,-1.4539,-1.466,-1.452,-1.452,-1.4344,-1.3855,-1.3302,-1.2578,-1.1705,-1.0628,-0.9607,-0.8634,-0.8015,-0.784,-0.7655,-0.7578,-0.7524,-0.7459,-0.7343,-0.7388,-0.7307,-0.7269,-0.723,-0.7154,-0.7133,-0.71,-0.71,-0.7062,-0.7056,-0.704,-0.697,-0.6921,-0.6888,-0.6929,-0.7217,-0.7443,-0.7775,-0.7905,-0.7846,-0.7839,-0.7839,-0.7939,-0.7939,-0.7839,-0.754,-0.7042,-0.6337,-0.5536,-0.4433,-0.3528,-0.2927,-0.2425,-0.192,-0.1718,-0.1617,-0.1415,-0.1112,-0.1314,-0.1415,-0.0808,-0.0,-0.0,-0.0,-0.0,-0.0,-0.1213,-0.1314,-0.1112,-2.0335,-1.9188,-1.8547,-1.8045,-1.7647,-1.8419,-1.8688,-1.8711,-1.8724,-1.8841,-1.9137,-1.9323,-1.9446,-1.9324,-1.9209,-1.9133,-1.8921,-1.8899,-1.8702,-1.9227,-2.0267,-1.9063,-1.7876,-1.7319,-1.783,-1.8261,-1.8843,-1.9122,-1.9831,-1.997,-2.0029,-2.011,-2.0298,-1.9464,-1.8378,-1.6997,-1.5924,-1.599,-1.5397,-1.4587,-1.3522,-1.2681,-1.2134,-1.1933,-1.2094,-1.2576,-1.3104,-1.3358,-1.335,-1.3079,-1.2955,-1.2955,-1.2389,-1.2057,-1.1523,-1.0735,-0.9903,-0.9007,-0.8395,-0.8111,-0.8049,-0.7769,-0.7676,-0.7627,-0.7595,-0.7584,-0.7508,-0.7437,-0.7377,-0.7301,-0.723,-0.7209,-0.716,-0.716,-0.7149,-0.7143,-0.7127,-0.7046,-0.7029,-0.6997,-0.7248,-0.7428,-0.7595,-0.7814,-0.8133,-0.8085,-0.7939,-0.8038,-0.8038,-0.7939,-0.7839,-0.7441,-0.7042,-0.6337,-0.5536,-0.4634,-0.383,-0.3027,-0.2523,-0.2021,-0.1718,-0.1617,-0.1314,-0.1112,-0.101,-0.0909,-0.0808,-0.0,-0.0,-0.0,-0.0,-0.0,-0.0,-0.0,-0.0,-1.9431,-1.8419,-1.7389,-1.6742,-1.6602,-1.7389,-1.7776,-1.7905,-1.7905,-1.8041,-1.8256,-1.8027,-1.805,-1.8276,-1.7781,-1.7663,-1.759,-1.7501,-1.7176,-1.7298,-1.8143,-1.7146,-1.633,-1.552,-1.6103,-1.7268,-1.7991,-1.8131,-1.9251,-1.9262,-1.9234,-1.9379,-1.9577,-1.8549,-1.7146,-1.5603,-1.4823,-1.4725,-1.4441,-1.3625,-1.2617,-1.208,-1.179,-1.1617,-1.1629,-1.1961,-1.2204,-1.2312,-1.2041,-1.1909,-1.1909,-1.1776,-1.1776,-1.1776,-1.1279,-1.0453,-0.9564,-0.9019,-0.8518,-0.8372,-0.8244,-0.7967,-0.7845,-0.7796,-0.7741,-0.7698,-0.7638,-0.7546,-0.747,-0.7394,-0.7323,-0.7247,-0.7176,-0.7165,-0.7154,-0.7154,-0.7154,-0.7243,-0.7243,-0.7309,-0.7551,-0.7849,-0.8001,-0.8193,-0.8201,-0.8133,-0.8079,-0.8038,-0.8038,-0.8038,-0.7839,-0.7441,-0.6942,-0.6337,-0.5536,-0.4634,-0.383,-0.3027,-0.2624,-0.2221,-0.192,-0.1516,-0.1213,-0.0909,-0.0404,-0.0,-0.0,-0.0,-0.0,-0.0,-0.0,-0.0,-0.0,-0.0,-0.0,-1.7636,-1.6742,-1.6084,-1.5704,-1.5443,-1.5684,-1.6073,-1.6462,-1.6043,-1.6094,-1.6707,-1.6755,-1.6851,-1.6858,-1.6746,-1.638,-1.5962,-1.5781,-1.5355,-1.5515,-1.5997,-1.5373,-1.475,-1.3989,-1.4566,-1.5434,-1.616,-1.6856,-1.7851,-1.8272,-1.8142,-1.7945,-1.8549,-1.7358,-1.5703,-1.4022,-1.388,-1.388,-1.3603,-1.2806,-1.2284,-1.1902,-1.1593,-1.1295,-1.1319,-1.1502,-1.1423,-1.1659,-1.1512,-1.1108,-1.1247,-1.1247,-1.0982,-1.0975,-1.0629,-1.0095,-0.9393,-0.9001,-0.8763,-0.8488,-0.8366,-0.8244,-0.8116,-0.7867,-0.7828,-0.7796,-0.7758,-0.7665,-0.7584,-0.7513,-0.7399,-0.7301,-0.722,-0.7171,-0.716,-0.7265,-0.7265,-0.7382,-0.7382,-0.7686,-0.7932,-0.8062,-0.8315,-0.8391,-0.8296,-0.8208,-0.814,-0.8106,-0.8052,-0.8058,-0.7739,-0.7341,-0.6842,-0.6237,-0.5536,-0.4634,-0.383,-0.3027,-0.2725,-0.2225,-0.1521,-0.1217,-0.1113,-0.0,-0.0,-0.0,-0.0,-0.0,-0.0,-0.0,-0.0,-0.0,-0.0,-0.0,-0.0,-1.6213,-1.5313,-1.4782,-1.4399,-1.3884,-1.3997,-1.439,-1.4642,-1.4595,-1.4985,-1.5974,-1.5702,-1.5623,-1.5557,-1.5211,-1.4718,-1.4339,-1.4156,-1.3896,-1.3904,-1.392,-1.3912,-1.3325,-1.2873,-1.3444,-1.4022,-1.4884,-1.5735,-1.6574,-1.7157,-1.7178,-1.6606,-1.7521,-1.6205,-1.4593,-1.313,-1.2798,-1.2775,-1.2745,-1.2273,-1.2066,-1.1854,-1.1406,-1.1276,-1.1316,-1.1028,-1.0799,-1.1304,-1.1115,-1.0711,-1.0982,-1.085,-1.0717,-1.0711,-1.0582,-1.0082,-0.9836,-0.9411,-0.9148,-0.8854,-0.861,-0.8366,-0.8244,-0.8116,-0.7989,-0.7845,-0.7818,-0.7769,-0.7709,-0.7627,-0.7491,-0.7355,-0.7258,-0.7165,-0.7271,-0.7265,-0.7382,-0.7493,-0.7709,-0.7925,-0.82,-0.8349,-0.8448,-0.8407,-0.8411,-0.8357,-0.8323,-0.8296,-0.8201,-0.8113,-0.7672,-0.7141,-0.6742,-0.6237,-0.5441,-0.4541,-0.3732,-0.3128,-0.2932,-0.233,-0.1423,-0.0817,-0.0614,-0.0,-0.0,-0.0,-0.0,-0.0,-0.0,-0.0,-0.0,-0.0,-0.0,-0.0,-0.0,-1.4912,-1.4259,-1.3604,-1.3087,-1.2444,-1.2832,-1.2964,-1.2964,-1.3683,-1.4465,-1.5313,-1.467,-1.4271,-1.4209,-1.3593,-1.3213,-1.3115,-1.3105,-1.2896,-1.2753,-1.276,-1.276,-1.2459,-1.2144,-1.2529,-1.3421,-1.4123,-1.4463,-1.5548,-1.5867,-1.5675,-1.5162,-1.5587,-1.4822,-1.3481,-1.2308,-1.2114,-1.2201,-1.2194,-1.2029,-1.1715,-1.1491,-1.1396,-1.1328,-1.1151,-1.0819,-1.0766,-1.0692,-1.0717,-1.0717,-1.0717,-1.0717,-1.0717,-1.0677,-1.0514,-1.0358,-1.0102,-0.981,-0.9406,-0.922,-0.8854,-0.861,-0.8372,-0.8244,-0.7994,-0.7872,-0.7845,-0.7834,-0.7774,-0.766,-0.7524,-0.7426,-0.7334,-0.7332,-0.7271,-0.7382,-0.7493,-0.7715,-0.8048,-0.8257,-0.8465,-0.862,-0.8675,-0.8642,-0.8554,-0.8513,-0.8452,-0.8431,-0.8377,-0.8241,-0.7788,-0.7125,-0.6698,-0.6199,-0.5069,-0.4261,-0.3635,-0.3131,-0.2838,-0.2345,-0.1336,-0.062,-0.0104,-0.0,-0.0,-0.0,-0.0,-0.0,-0.0,-0.0,-0.0,-0.0,-0.0,-0.0,-0.0,-1.3613,-1.3227,-1.2964,-1.284,-1.27,-1.2824,-1.2964,-1.3235,-1.3456,-1.3456,-1.3218,-1.298,-1.2789,-1.2673,-1.2573,-1.2335,-1.2219,-1.2357,-1.2173,-1.2043,-1.2043,-1.2022,-1.1865,-1.164,-1.1875,-1.21,-1.2625,-1.3192,-1.3999,-1.4098,-1.4047,-1.3818,-1.3993,-1.3426,-1.2706,-1.1825,-1.1647,-1.1763,-1.1763,-1.1763,-1.1599,-1.1579,-1.1518,-1.1389,-1.1206,-1.1063,-1.0833,-1.0819,-1.0744,-1.0717,-1.0717,-1.0717,-1.0717,-1.0616,-1.0466,-1.0304,-1.0181,-0.9895,-0.9652,-0.9335,-0.9098,-0.8732,-0.8488,-0.8244,-0.7994,-0.7994,-0.7867,-0.7861,-0.7812,-0.7693,-0.7573,-0.7486,-0.7388,-0.7381,-0.7382,-0.7493,-0.761,-0.8048,-0.838,-0.8602,-0.8712,-0.8789,-0.8859,-0.8798,-0.8716,-0.8621,-0.852,-0.8479,-0.8499,-0.8431,-0.8131,-0.7547,-0.6924,-0.618,-0.4928,-0.3895,-0.3275,-0.2557,-0.2055,-0.155,-0.1144,-0.0625,-0.0313,-0.0931,-0.0,-0.1017,-0.0808,-0.0,-0.0,-0.0,-0.0,-0.0,-0.0,-0.0,-0.0,-1.2437,-1.2173,-1.2305,-1.2312,-1.2437,-1.2692,-1.2832,-1.2972,-1.2824,-1.2429,-1.1909,-1.2048,-1.2102,-1.1799,-1.1818,-1.1703,-1.172,-1.1733,-1.183,-1.1592,-1.1586,-1.1558,-1.1504,-1.1275,-1.1629,-1.1706,-1.2006,-1.2462,-1.2795,-1.309,-1.3182,-1.2904,-1.2617,-1.2481,-1.2051,-1.1756,-1.1613,-1.1619,-1.1619,-1.1619,-1.1619,-1.1599,-1.1592,-1.1457,-1.1341,-1.1192,-1.105,-1.09,-1.0799,-1.0744,-1.0717,-1.0717,-1.0683,-1.0582,-1.0432,-1.0283,-1.0141,-0.9861,-0.9632,-0.9335,-0.9098,-0.8732,-0.861,-0.8244,-0.7994,-0.7872,-0.7872,-0.7867,-0.7867,-0.7763,-0.7595,-0.7486,-0.7475,-0.746,-0.7516,-0.7604,-0.7937,-0.838,-0.8602,-0.8712,-0.8823,-0.8706,-0.8783,-0.8666,-0.86,-0.8818,-0.8703,-0.8669,-0.8662,-0.8621,-0.8321,-0.7974,-0.7323,-0.6093,-0.4713,-0.3656,-0.2812,-0.2084,-0.1563,-0.1582,-0.149,-0.0845,-0.0629,-0.1254,-0.1758,-0.1826,-0.1617,-0.1416,-0.1112,-0.0,-0.0,-0.0,-0.0,-0.0,-0.0,-1.138,-1.1247,-1.1644,-1.1909,-1.1916,-1.2444,-1.2576,-1.2305,-1.2173,-1.1776,-1.138,-1.1909,-1.1909,-1.157,-1.1149,-1.1145,-1.1151,-1.1434,-1.143,-1.1497,-1.1525,-1.1443,-1.1375,-1.1314,-1.1614,-1.1877,-1.2204,-1.2256,-1.2315,-1.2492,-1.2617,-1.2338,-1.2201,-1.2345,-1.1763,-1.1619,-1.1619,-1.1619,-1.1619,-1.1619,-1.1619,-1.1619,-1.1606,-1.1558,-1.147,-1.1321,-1.1172,-1.1023,-1.0873,-1.0785,-1.0717,-1.0717,-1.0677,-1.0575,-1.0432,-1.0283,-1.0134,-0.9738,-0.9496,-0.9335,-0.8976,-0.861,-0.8488,-0.8244,-0.7994,-0.7872,-0.7872,-0.7872,-0.7872,-0.7801,-0.7638,-0.7608,-0.7589,-0.7691,-0.7762,-0.7943,-0.838,-0.8712,-0.8823,-0.894,-0.8823,-0.8712,-0.8706,-0.8595,-0.8706,-0.8823,-0.894,-0.894,-0.8906,-0.8722,-0.858,-0.8227,-0.772,-0.6358,-0.4915,-0.403,-0.3273,-0.2645,-0.2333,-0.2155,-0.1957,-0.1616,-0.1496,-0.1701,-0.2101,-0.2361,-0.2333,-0.2129,-0.1923,-0.162,-0.0,-0.0,-0.0,-0.0,-0.0,-1.0585,-1.0857,-1.1776,-1.2048,-1.1909,-1.2173,-1.2173,-1.1909,-1.1909,-1.1644,-1.1247,-1.1247,-1.1247,-1.0989,-1.1015,-1.0989,-1.1029,-1.1158,-1.1192,-1.124,-1.1454,-1.1399,-1.1469,-1.1523,-1.1632,-1.1939,-1.2057,-1.2022,-1.2021,-1.2222,-1.2194,-1.1763,-1.1763,-1.1763,-1.1763,-1.1619,-1.1619,-1.1619,-1.1619,-1.1619,-1.1619,-1.1619,-1.1619,-1.1558,-1.147,-1.1321,-1.1172,-1.1023,-1.088,-1.0772,-1.0717,-1.0717,-1.067,-1.0575,-1.0432,-1.0283,-1.0134,-0.9738,-0.9387,-0.9226,-0.8854,-0.8488,-0.8244,-0.8244,-0.7994,-0.7994,-0.7994,-0.7994,-0.7978,-0.7933,-0.7795,-0.7786,-0.7887,-0.7975,-0.8003,-0.8406,-0.8712,-0.8823,-0.8933,-0.8933,-0.8823,-0.8823,-0.8823,-0.8823,-0.8823,-0.8823,-0.894,-0.894,-0.894,-0.8823,-0.883,-0.8452,-0.8072,-0.7144,-0.6093,-0.5153,-0.4383,-0.3642,-0.3127,-0.306,-0.2969,-0.2852,-0.2724,-0.2806,-0.2863,-0.3112,-0.2983,-0.2966,-0.2445,-0.2036,-0.1721,-0.0,-0.0,-0.0,-0.0]},{"header":{"parameterUnit":"m.s-1","parameterCategory":1,"la1":31.0,"la2":29.5877,"lo1":-88.7671,"lo2":-86.6584,"dy":0.0162,"dx":0.0185,"nx":115,"ny":88,"refTime":"2023-08-05T00:00:00:Z","depth":0,"parameterNumber":3,"parameterNumberName":"V-component_of_WINDS"},"data":[0.0,0.0,0.0,0.0,0.0,0.0,0.0,0.0,0.0,0.0,0.0,0.0,0.0,0.0,0.0,0.0,0.0,0.0,0.0,0.0,0.0,0.0,0.0,0.0,0.0,0.0,0.0,0.0,0.0,0.0,0.0,0.0,0.0,0.0,0.0,0.0,0.0,0.0,0.0,0.0,0.0,0.0,0.0,0.0,0.0,0.0,0.0,0.0,0.0,0.0,0.0,0.0,0.0,0.0,0.0,0.0,0.0,0.0,0.0,0.0,0.0,0.0,0.0,0.0,0.0,0.0,0.0,0.0,0.0,0.0,0.0,0.0,0.0,0.0,0.0,0.0,0.0,0.0,0.0,0.0,0.0,0.0,0.0,0.0,0.0,0.0,0.0,0.0,0.0,0.0,0.0,0.0,0.0,0.0,0.0,0.0,0.0,0.0,0.0,0.0,0.0,0.0,0.0,0.0,0.0,0.0,0.0,0.0,0.0,0.0,0.0,0.0,0.0,0.0,0.0,0.0,0.0,0.0,0.0,0.0,0.0,0.0,0.0,0.0,0.0,0.0,0.0,0.0,0.0,0.0,0.0,0.0,0.0,0.0,0.0,0.0,0.0,0.0,0.0,0.0,0.0,0.0,0.0,0.0,0.0,0.0,0.0,0.0,0.0,0.0,0.0,0.0,0.0,0.0,0.0,0.0,0.0,0.0,0.0,0.0,0.0,0.0,0.0,0.0,0.0,0.0,0.0,0.0,0.0,0.0,0.0,0.0,0.0,0.0,0.0,0.0,0.0,0.0,0.0,0.0,0.0,0.0,0.0,0.0,0.0,0.0,0.0,0.0,0.0,0.0,0.0,0.0,0.0,0.0,0.0,0.0,0.0,0.0,0.0,0.0,0.0,0.0,0.0,0.0,0.0,0.0,0.0,0.0,0.0,0.0,0.0,0.0,0.0,0.0,0.0,0.0,0.0,0.0,0.0,0.0,0.0,0.0,0.0,0.0,0.0,0.0,0.0,0.0,0.0,0.0,0.0,0.0,0.0,0.0,0.0,0.0,0.0,0.0,0.0,0.0,0.0,0.0,0.0,0.0,0.0,0.0,0.0,0.0,0.0,0.0,0.0,0.0,0.0,0.0,0.0,0.0,0.0,0.0,0.0,0.0,0.0,0.0,0.0,0.0,0.0,0.0,0.0,0.0,0.0,0.0,0.0,0.0,0.0,0.0,0.0,0.0,0.0,0.0,0.0,0.0,0.0,0.0,0.0,0.0,0.0,0.0,0.0,0.0,0.0,0.0,0.0,0.0,0.0,0.0,0.0,0.0,0.0,0.0,0.0,0.0,0.0,0.0,0.0,0.0,0.0,0.0,0.0,0.0,0.0,0.0,0.0,0.0,0.0,0.0,0.0,0.0,0.0,0.0,0.0,0.0,0.0,0.0,0.0,0.0,0.0,0.0,0.0,0.0,0.0,0.0,0.0,0.0,0.0,0.0,0.0,0.0,0.0,0.0,0.0,0.0,0.0,0.0,0.0,0.0,0.0,0.0,0.0,0.0,0.0,0.0,0.0,0.0,0.0,0.0,0.0,0.0,0.0,0.0,0.0,0.0,0.0,0.0,0.0,0.0,0.0,0.0,0.0,0.0,0.0,0.0,0.0,0.0,0.0,0.0,0.0,0.0,0.0,0.0,0.0,0.0,0.0,0.0,0.0,0.0,0.0,0.0,0.0,0.0,0.0,0.0,0.0,0.0,0.0,0.0,0.0,0.0,0.0,0.0,0.0,0.0,0.0,0.0,0.0,0.0,0.0,0.0,0.0,0.0,0.0,0.0,0.0,0.0,0.0,0.0,0.0,0.0,0.0,0.0,0.0,0.0,0.0,0.0,0.0,0.0,0.0,0.0,0.0,0.0,0.0,0.0,0.0,0.0,0.0,0.0,0.0,0.0,0.0,0.0,0.0,0.0,0.0,0.0,0.0,0.0,0.0,0.0,0.0,0.0,0.0,0.0,0.0,0.0,0.0,0.0,0.0,0.0,0.0,0.0,0.0,0.0,0.0,0.0,0.0,0.0,0.0,0.0,0.0,0.0,0.0,0.0,0.0,0.0,0.0,0.0,0.0,0.0,0.0,0.0,0.0,0.0,0.0,0.0,0.0,0.0,0.0,0.0,0.0,0.0,0.0,0.0,0.0,0.0,0.0,0.0,0.0,0.0,0.0,0.0,0.0,0.0,0.0,0.0,0.0,0.0,0.0,0.0,0.0,0.0,0.0,0.0,0.0,0.0,0.0,0.0,0.0,0.0,0.0,0.0,0.0,0.0,0.0,0.0,0.0,0.0,0.0,0.0,0.0,0.0,0.0,0.0,0.0,0.0,0.0,0.0,0.0,0.0,0.0,0.0,0.0,0.0,0.0,0.0,0.0,0.0,0.0,0.0,0.0,0.0,0.0,0.0,0.0,0.0,0.0,0.0,0.0,0.0,0.0,0.0,0.0,0.0,0.0,0.0,0.0,0.0,0.0,0.0,0.0,0.0,0.0,0.0,0.0,0.0,0.0,0.0,0.0,0.0,0.0,0.0,0.0,0.0,0.0,0.0,0.0,0.0,0.0,0.0,0.0,0.0,0.0,0.0,0.0,0.0,0.0,0.0,0.0,0.0,0.0,0.0,0.0,0.0,0.0,0.0,0.0,0.0,0.0,0.0,0.0,0.0,0.0,0.0,0.0,0.0,0.0,0.0,0.0,0.0,0.0,0.0,0.0,0.0,0.0,0.0,0.0,0.0,0.0,0.0,0.0,0.0,0.0,0.0,0.0,0.0,0.0,0.0,0.0,0.0,0.0,0.0,0.0,0.0,0.0,0.0,0.0,0.0,0.0,0.0,0.0,0.0,0.0,0.0,0.0,0.0,0.0,0.0,0.0,0.0,0.0,0.0,0.0,0.0,0.0,0.0,0.0,0.0,0.0,0.0,0.0,0.0,0.0,0.0,0.0,0.0,0.0,0.0,0.0,0.0,0.0,0.0,0.0,0.0,0.0,0.0,0.0,0.0,0.0,0.0,0.0,0.0,0.0,0.0,0.0,0.0,0.0,0.0,0.0,0.0,0.0,0.0,0.0,0.0,0.0,0.0,0.0,0.0,0.0,0.0,0.0,0.0,0.0,0.0,0.0,0.0,0.0,0.0,0.0,0.0,0.0,0.0,0.0,0.0,0.0,0.0,0.0,0.0,0.0,0.0,0.0,0.0,0.0,0.0,0.0,0.0,0.0,0.0,0.0,0.0,0.0,0.0,0.0,0.0,0.0,0.0,0.0,0.0,0.0,0.0,0.0,0.0,0.0,0.0,0.0,0.0,0.0,0.0,0.0,0.0,0.0,0.0,0.0,0.0,0.0,0.0,0.0,0.0,0.0,0.0,0.0,0.0,0.0,0.0,0.0,0.0,0.0,0.0,0.0,0.0,0.0,0.0,0.0,0.0,0.0,0.0,0.0,0.0,0.0,0.0,0.0,0.0,0.0,0.0,0.0,0.0,0.0,0.0,0.0,0.0,0.0,0.0,0.0,0.0,0.0,0.0,0.0,0.0,0.0,0.0,0.0,0.0,0.0,0.0,0.0,0.0,0.0,0.0,0.0,0.0,0.0,0.0,0.0,0.0,0.0,0.0,0.0,0.0,0.0,0.0,0.0,0.0,0.0,0.0,0.0,0.0,0.0,0.0,0.0,0.0,0.0,0.0,0.0,0.0,0.0,0.0,0.0,0.0,0.0,0.0,0.0,0.0,0.0,0.0,0.0,0.0,0.0,0.0,0.0,0.0,0.0,0.0,0.0,0.0,0.0,0.0,0.0,0.0,0.0,0.0,0.0,0.0,0.0,0.0,0.0,0.0,0.0,0.0,0.0,0.0,0.0,0.0,0.0,0.0,0.0,0.0,0.0,0.0,0.0,0.0,0.0,0.0,0.0,0.0,0.0,0.0,0.0,0.0,0.0,0.0,0.0,0.0,0.0,0.0,0.0,0.0,0.0,0.0,0.0,0.0,0.0,0.0,0.0,0.0,0.0,0.0,0.0,0.0,0.0,0.0,0.0,0.0,0.0,0.0,0.0,0.0,0.0,0.0,0.0,0.0,0.0,0.0,0.0,0.0,0.0,0.0,0.0,0.0,0.0,0.0,0.0,0.0,0.0,0.0,0.0,0.0,0.0,0.0,0.0,0.0,0.0,0.0,0.0,0.0,0.0,0.0,0.0,0.0,0.0,0.0,0.0,0.0,0.0,0.0,0.0,0.0,0.0,0.0,0.0,0.0,-0.7284,0.0,0.0,0.0,0.0,0.0,0.0,0.0,0.0,0.0,0.0,0.0,0.0,0.0,0.0,0.0,0.0,0.0,0.0,0.0,0.0,0.0,0.0,0.0,0.0,0.0,0.0,0.0,0.0,0.0,0.0,0.0,0.0,0.0,0.0,0.0,0.0,0.0,0.0,0.0,0.0,0.0,0.0,0.0,0.0,0.0,0.0,0.0,0.0,0.0,0.0,0.0,0.0,0.0,0.0,0.0,0.0,0.0,0.0,0.0,0.0,0.0,0.0,0.0,0.0,0.0,0.0,0.0,0.0,0.0,0.0,0.0,0.0,0.0,0.0,0.0,0.0,0.0,0.0,0.0,0.0,0.0,0.0,0.0,0.0,0.0,0.0,0.0,0.0,0.0,0.0,0.0,0.0,0.0,0.0,0.0,0.0,0.0,0.0,0.0,0.0,0.0,0.0,0.0,0.0,0.0,0.0,0.0,0.0,0.0,0.0,-0.7574,-0.7513,-0.7748,-0.7868,-0.7835,0.0,0.0,0.0,0.0,0.0,0.0,0.0,0.0,0.0,0.0,0.0,0.0,0.0,0.0,0.0,0.0,0.0,0.0,0.0,0.0,0.0,0.0,0.0,0.0,0.0,0.0,0.0,0.0,0.0,0.0,0.0,0.0,0.0,0.0,0.0,0.0,0.0,0.0,0.0,0.0,0.0,0.0,0.0,0.0,0.0,0.0,0.0,0.0,0.0,0.0,0.0,0.0,0.0,0.0,0.0,0.0,0.0,0.0,0.0,0.0,0.0,0.0,0.0,0.0,0.0,0.0,0.0,0.0,0.0,0.0,0.0,0.0,0.0,0.0,0.0,0.0,0.0,0.0,0.0,0.0,0.0,0.0,0.0,0.0,0.0,0.0,0.0,0.0,0.0,0.0,0.0,0.0,0.0,0.0,0.0,0.0,0.0,0.0,0.0,0.0,0.0,0.0,0.0,0.0,0.0,0.0,0.0,0.0,0.0,0.0,0.0,0.0,-0.8348,-0.8483,-0.8387,0.0,0.0,0.0,0.0,0.0,0.0,0.0,0.0,0.0,0.0,0.0,0.0,0.0,0.0,0.0,0.0,0.0,0.0,0.0,0.0,0.0,0.0,0.0,0.0,0.0,0.0,0.0,0.0,0.0,0.0,0.0,0.0,0.0,0.0,0.0,0.0,0.0,0.0,0.0,0.0,0.0,0.0,0.0,0.0,0.0,0.0,0.0,0.0,0.0,0.0,0.0,0.0,0.0,0.0,0.0,0.0,0.0,0.0,0.0,0.0,0.0,0.0,0.0,0.0,0.0,0.0,0.0,0.0,0.0,0.0,0.0,0.0,0.0,0.0,0.0,0.0,0.0,0.0,0.0,0.0,0.0,0.0,0.0,0.0,0.0,0.0,0.0,0.0,0.0,0.0,0.0,0.0,0.0,0.0,0.0,0.0,0.0,0.0,0.0,0.0,0.0,0.0,0.0,0.0,0.0,0.0,0.0,0.0,0.0,0.0,-0.8847,-0.9302,-0.9322,0.0,-0.8634,0.0,0.0,0.0,0.0,0.0,0.0,0.0,0.0,0.0,0.0,0.0,0.0,0.0,0.0,0.0,0.0,0.0,0.0,0.0,0.0,0.0,0.0,0.0,0.0,0.0,0.0,0.0,0.0,0.0,0.0,0.0,0.0,0.0,0.0,0.0,0.0,0.0,0.0,0.0,0.0,0.0,0.0,0.0,0.0,0.0,0.0,0.0,0.0,0.0,0.0,0.0,0.0,0.0,0.0,0.0,0.0,0.0,0.0,0.0,0.0,0.0,0.0,0.0,0.0,0.0,0.0,0.0,0.0,0.0,0.0,0.0,0.0,0.0,0.0,0.0,0.0,0.0,0.0,0.0,0.0,0.0,0.0,0.0,0.0,0.0,0.0,0.0,0.0,0.0,0.0,0.0,0.0,0.0,0.0,0.0,0.0,0.0,0.0,0.0,0.0,0.0,0.0,0.0,0.0,0.0,0.0,0.0,0.0,0.0,0.0,-1.0042,-1.021,-1.0541,-1.062,0.0,0.0,0.0,0.0,0.0,0.0,0.0,0.0,0.0,0.0,0.0,0.0,0.0,0.0,0.0,0.0,0.0,0.0,0.0,0.0,0.0,0.0,0.0,0.0,0.0,0.0,0.0,0.0,0.0,0.0,0.0,0.0,0.0,0.0,0.0,0.0,0.0,0.0,0.0,0.0,0.0,0.0,0.0,0.0,0.0,0.0,0.0,0.0,0.0,0.0,0.0,0.0,0.0,0.0,0.0,0.0,0.0,0.0,0.0,0.0,0.0,0.0,0.0,0.0,0.0,0.0,0.0,0.0,0.0,0.0,0.0,0.0,0.0,0.0,0.0,0.0,0.0,0.0,0.0,0.0,0.0,0.0,0.0,0.0,0.0,0.0,0.0,0.0,0.0,0.0,0.0,0.0,0.0,0.0,0.0,0.0,0.0,0.0,0.0,0.0,0.0,0.0,0.0,0.0,0.0,0.0,0.0,0.0,0.0,0.0,-1.0146,-1.0723,-1.1029,-1.1622,-1.1733,-1.127,0.0,0.0,0.0,0.0,0.0,0.0,0.0,0.0,0.0,0.0,0.0,0.0,0.0,0.0,0.0,0.0,0.0,0.0,0.0,0.0,0.0,0.0,0.0,0.0,0.0,0.0,0.0,0.0,0.0,0.0,0.0,0.0,0.0,0.0,0.0,0.0,0.0,0.0,0.0,0.0,0.0,0.0,0.0,0.0,0.0,0.0,0.0,0.0,0.0,0.0,0.0,0.0,0.0,0.0,0.0,0.0,0.0,0.0,0.0,0.0,0.0,0.0,0.0,0.0,0.0,0.0,0.0,0.0,0.0,0.0,0.0,0.0,0.0,0.0,0.0,0.0,0.0,0.0,0.0,0.0,0.0,0.0,0.0,0.0,0.0,0.0,0.0,0.0,0.0,0.0,0.0,0.0,0.0,0.0,0.0,0.0,0.0,0.0,0.0,0.0,0.0,0.0,0.0,0.0,0.0,0.0,0.0,0.0,-1.0089,-1.0119,-1.061,-1.176,-1.2434,-1.2009,0.0,0.0,0.0,0.0,0.0,0.0,0.0,0.0,0.0,0.0,0.0,0.0,0.0,0.0,0.0,0.0,0.0,0.0,0.0,0.0,0.0,0.0,0.0,0.0,0.0,0.0,0.0,0.0,0.0,0.0,0.0,0.0,0.0,0.0,0.0,0.0,0.0,0.0,0.0,0.0,0.0,0.0,0.0,0.0,0.0,0.0,0.0,0.0,0.0,0.0,0.0,0.0,0.0,0.0,0.0,0.0,0.0,0.0,0.0,0.0,0.0,0.0,0.0,0.0,0.0,0.0,0.0,0.0,0.0,0.0,0.0,0.0,0.0,0.0,0.0,0.0,0.0,0.0,0.0,0.0,0.0,0.0,0.0,0.0,0.0,0.0,0.0,0.0,0.0,0.0,0.0,0.0,0.0,0.0,0.0,0.0,0.0,0.0,0.0,0.0,0.0,0.0,0.0,0.0,0.0,0.0,0.0,0.0,0.0,-1.0445,-1.1505,-1.2734,-1.3975,-1.3505,-1.2706,0.0,0.0,0.0,0.0,0.0,0.0,0.0,0.0,0.0,0.0,0.0,0.0,0.0,0.0,0.0,0.0,0.0,0.0,0.0,0.0,0.0,0.0,0.0,0.0,0.0,0.0,0.0,0.0,0.0,0.0,0.0,0.0,0.0,0.0,0.0,0.0,0.0,0.0,0.0,0.0,0.0,0.0,0.0,0.0,0.0,0.0,0.0,0.0,0.0,0.0,0.0,0.0,0.0,0.0,0.0,0.0,0.0,0.0,0.0,0.0,0.0,0.0,0.0,0.0,0.0,0.0,0.0,0.0,0.0,0.0,0.0,0.0,0.0,0.0,0.0,0.0,0.0,0.0,0.0,0.0,0.0,0.0,0.0,0.0,0.0,0.0,0.0,0.0,0.0,0.0,0.0,0.0,0.0,0.0,0.0,0.0,0.0,0.0,0.0,0.0,0.0,0.0,0.0,0.0,0.0,0.0,0.0,0.0,0.0,-1.1333,0.0,-1.4167,-1.4798,-1.4243,-1.3272,0.0,0.0,0.0,0.0,0.0,0.0,0.0,0.0,0.0,0.0,0.0,0.0,0.0,0.0,0.0,0.0,0.0,0.0,0.0,0.0,0.0,0.0,0.0,0.0,0.0,0.0,0.0,0.0,0.0,0.0,0.0,0.0,0.0,0.0,0.0,0.0,0.0,0.0,0.0,0.0,0.0,0.0,0.0,0.0,0.0,0.0,0.0,0.0,0.0,0.0,0.0,0.0,0.0,0.0,0.0,0.0,0.0,0.0,0.0,0.0,0.0,0.0,0.0,0.0,0.0,0.0,0.0,0.0,0.0,0.0,0.0,0.0,0.0,0.0,0.0,0.0,0.0,0.0,0.0,0.0,0.0,0.0,0.0,0.0,0.0,0.0,0.0,0.0,0.0,0.0,0.0,0.0,0.0,0.0,0.0,0.0,0.0,0.0,0.0,0.0,0.0,0.0,0.0,0.0,0.0,0.0,0.0,0.0,-1.1141,-1.298,-1.4288,-1.4681,-1.4031,-1.4658,-1.3688,0.0,0.0,0.0,0.0,0.0,0.0,0.0,0.0,0.0,0.0,0.0,0.0,0.0,0.0,0.0,0.0,0.0,0.0,0.0,0.0,0.0,0.0,0.0,0.0,0.0,0.0,0.0,0.0,0.0,0.0,0.0,0.0,0.0,0.0,0.0,0.0,0.0,0.0,0.0,0.0,0.0,0.0,0.0,0.0,0.0,0.0,0.0,0.0,0.0,0.0,0.0,0.0,0.0,0.0,0.0,0.0,0.0,0.0,0.0,0.0,0.0,0.0,0.0,0.0,0.0,0.0,0.0,0.0,0.0,0.0,0.0,0.0,0.0,0.0,0.0,0.0,0.0,0.0,0.0,0.0,0.0,0.0,0.0,0.0,0.0,0.0,0.0,0.0,0.0,0.0,0.0,0.0,0.0,0.0,0.0,0.0,0.0,0.0,0.0,0.0,0.0,0.0,0.0,0.0,0.0,0.0,0.0,0.0,0.0,-1.5581,-1.6008,-1.6336,-1.6605,-1.5832,-1.4286,0.0,0.0,0.0,0.0,0.0,0.0,0.0,0.0,0.0,0.0,0.0,0.0,0.0,0.0,0.0,0.0,0.0,0.0,0.0,0.0,0.0,0.0,0.0,0.0,0.0,0.0,0.0,0.0,0.0,0.0,0.0,0.0,0.0,0.0,0.0,0.0,0.0,0.0,0.0,0.0,0.0,0.0,0.0,0.0,0.0,0.0,0.0,0.0,0.0,0.0,0.0,0.0,0.0,0.0,0.0,0.0,0.0,0.0,0.0,0.0,0.0,0.0,0.0,0.0,0.0,0.0,0.0,0.0,0.0,0.0,0.0,0.0,0.0,0.0,0.0,0.0,0.0,0.0,0.0,0.0,0.0,0.0,0.0,0.0,0.0,0.0,0.0,0.0,0.0,0.0,0.0,0.0,0.0,0.0,0.0,0.0,0.0,0.0,0.0,0.0,0.0,0.0,0.0,0.0,0.0,0.0,0.0,0.0,0.0,-1.9234,-1.8669,-1.8551,-1.897,-1.7783,-1.5918,-1.3432,0.0,0.0,0.0,0.0,0.0,0.0,0.0,0.0,0.0,0.0,0.0,0.0,0.0,0.0,0.0,0.0,0.0,0.0,0.0,0.0,0.0,0.0,0.0,0.0,0.0,0.0,0.0,0.0,0.0,0.0,0.0,0.0,0.0,0.0,0.0,0.0,0.0,0.0,0.0,0.0,0.0,0.0,0.0,0.0,0.0,0.0,0.0,0.0,0.0,0.0,0.0,0.0,0.0,0.0,0.0,0.0,0.0,0.0,0.0,0.0,0.0,0.0,0.0,0.0,0.0,0.0,0.0,0.0,0.0,0.0,0.0,0.0,0.0,0.0,0.0,0.0,0.0,0.0,0.0,0.0,0.0,0.0,0.0,0.0,0.0,0.0,0.0,0.0,0.0,0.0,0.0,0.0,0.0,0.0,0.0,0.0,0.0,0.0,0.0,0.0,0.0,0.0,0.0,0.0,0.0,0.0,0.0,0.0,-2.3847,-2.2375,-2.1489,-2.126,-2.0428,-1.8526,0.0,0.0,0.0,0.0,0.0,0.0,0.0,0.0,0.0,0.0,0.0,0.0,0.0,0.0,0.0,0.0,0.0,0.0,0.0,0.0,0.0,0.0,0.0,0.0,0.0,0.0,0.0,0.0,0.0,0.0,0.0,0.0,0.0,0.0,0.0,0.0,0.0,0.0,0.0,0.0,0.0,0.0,0.0,0.0,0.0,0.0,0.0,0.0,0.0,0.0,0.0,0.0,0.0,0.0,0.0,0.0,0.0,0.0,0.0,0.0,0.0,0.0,0.0,0.0,0.0,0.0,0.0,0.0,0.0,0.0,0.0,0.0,0.0,0.0,0.0,0.0,0.0,0.0,0.0,0.0,0.0,0.0,0.0,0.0,0.0,0.0,0.0,0.0,0.0,0.0,0.0,0.0,0.0,0.0,0.0,0.0,0.0,0.0,0.0,0.0,0.0,0.0,0.0,0.0,0.0,0.0,0.0,0.0,0.0,-2.6409,-2.8458,-2.8489,-2.6397,-2.4444,-2.1946,0.0,0.0,0.0,0.0,0.0,0.0,0.0,0.0,0.0,0.0,0.0,0.0,0.0,0.0,0.0,0.0,0.0,0.0,0.0,0.0,0.0,0.0,0.0,0.0,0.0,0.0,0.0,0.0,0.0,0.0,0.0,0.0,0.0,0.0,0.0,0.0,0.0,0.0,0.0,0.0,0.0,0.0,0.0,0.0,0.0,0.0,0.0,0.0,0.0,0.0,0.0,0.0,0.0,0.0,0.0,0.0,0.0,0.0,0.0,0.0,0.0,0.0,0.0,0.0,0.0,0.0,0.0,0.0,0.0,0.0,0.0,0.0,0.0,0.0,0.0,0.0,0.0,0.0,0.0,0.0,0.0,0.0,0.0,0.0,0.0,0.0,0.0,0.0,0.0,0.0,0.0,0.0,0.0,0.0,0.0,0.0,0.0,0.0,0.0,0.0,0.0,0.0,0.0,0.0,0.0,0.0,0.0,0.0,-2.4907,-2.9219,-3.2407,-3.3377,-3.2089,-2.8717,-2.5252,0.0,0.0,0.0,0.0,0.0,0.0,0.0,0.0,0.0,0.0,0.0,0.0,0.0,0.0,0.0,0.0,0.0,0.0,0.0,0.0,0.0,0.0,0.0,0.0,0.0,0.0,0.0,0.0,0.0,0.0,0.0,0.0,0.0,0.0,0.0,0.0,0.0,0.0,0.0,0.0,0.0,0.0,0.0,0.0,0.0,0.0,0.0,0.0,0.0,0.0,0.0,0.0,0.0,0.0,0.0,0.0,0.0,0.0,0.0,0.0,0.0,0.0,0.0,0.0,0.0,0.0,0.0,0.0,0.0,0.0,0.0,0.0,0.0,0.0,0.0,0.0,0.0,0.0,0.0,0.0,0.0,0.0,0.0,0.0,0.0,0.0,0.0,0.0,0.0,0.0,0.0,0.0,0.0,0.0,0.0,0.0,0.0,0.0,0.0,0.0,0.0,0.0,0.0,0.0,0.0,0.0,0.0,0.0,-2.6908,-3.1676,-3.4816,-3.6787,-3.7308,-3.2785,-2.8372,0.0,0.0,0.0,0.0,0.0,0.0,0.0,0.0,0.0,0.0,0.0,0.0,0.0,0.0,0.0,0.0,0.0,0.0,0.0,0.0,0.0,0.0,0.0,0.0,0.0,0.0,0.0,0.0,0.0,0.0,0.0,0.0,0.0,0.0,0.0,0.0,0.0,0.0,0.0,0.0,0.0,0.0,0.0,0.0,0.0,0.0,0.0,0.0,0.0,0.0,0.0,0.0,0.0,0.0,0.0,0.0,0.0,0.0,0.0,0.0,0.0,0.0,0.0,0.0,0.0,0.0,0.0,0.0,0.0,0.0,0.0,0.0,0.0,0.0,0.0,0.0,0.0,0.0,0.0,0.0,0.0,0.0,0.0,0.0,0.0,0.0,0.0,0.0,0.0,0.0,0.0,0.0,0.0,0.0,0.0,0.0,0.0,0.0,0.0,0.0,0.0,0.0,0.0,0.0,0.0,0.0,0.0,0.0,-2.8539,-3.2701,-3.6608,-3.8637,-3.8588,-3.4852,-3.1227,0.0,0.0,0.0,0.0,0.0,0.0,0.0,0.0,0.0,0.0,0.0,0.0,0.0,0.0,0.0,0.0,0.0,0.0,0.0,0.0,0.0,0.0,0.0,0.0,0.0,0.0,0.0,0.0,0.0,0.0,0.0,0.0,0.0,0.0,0.0,0.0,0.0,0.0,0.0,0.0,0.0,0.0,0.0,0.0,0.0,0.0,0.0,0.0,-1.1443,0.0,0.0,0.0,0.0,0.0,0.0,0.0,0.0,0.0,0.0,0.0,0.0,0.0,0.0,0.0,0.0,0.0,0.0,0.0,0.0,0.0,0.0,0.0,0.0,0.0,0.0,0.0,0.0,0.0,0.0,0.0,0.0,0.0,0.0,0.0,0.0,0.0,0.0,0.0,0.0,0.0,0.0,0.0,0.0,0.0,0.0,0.0,0.0,0.0,0.0,0.0,0.0,0.0,0.0,0.0,0.0,0.0,0.0,0.0,-3.0171,-3.3827,-3.7539,-3.9376,-3.9133,-3.6578,-3.34,0.0,0.0,0.0,0.0,0.0,0.0,0.0,0.0,0.0,0.0,0.0,0.0,0.0,0.0,0.0,0.0,0.0,0.0,0.0,0.0,0.0,0.0,0.0,0.0,0.0,0.0,0.0,0.0,0.0,0.0,0.0,0.0,0.0,0.0,0.0,0.0,0.0,0.0,0.0,0.0,0.0,0.0,0.0,0.0,0.0,0.0,0.0,0.0,0.0,0.0,0.0,0.0,0.0,0.0,0.0,0.0,0.0,0.0,0.0,0.0,0.0,0.0,0.0,0.0,0.0,0.0,0.0,0.0,0.0,0.0,0.0,0.0,0.0,0.0,0.0,0.0,0.0,0.0,0.0,0.0,0.0,0.0,0.0,0.0,0.0,0.0,0.0,0.0,0.0,0.0,0.0,0.0,0.0,0.0,0.0,0.0,0.0,0.0,0.0,0.0,0.0,0.0,0.0,0.0,0.0,0.0,0.0,-2.7846,-3.1636,-3.4942,-3.8071,-3.9647,-3.9537,-3.7911,-3.4899,-3.0561,0.0,0.0,0.0,0.0,0.0,0.0,0.0,0.0,0.0,0.0,0.0,0.0,0.0,0.0,0.0,0.0,0.0,0.0,0.0,0.0,0.0,0.0,0.0,0.0,0.0,0.0,0.0,0.0,0.0,0.0,0.0,0.0,0.0,0.0,0.0,0.0,0.0,0.0,-1.3766,-1.6037,0.0,0.0,0.0,0.0,0.0,0.0,0.0,0.0,-1.2646,0.0,0.0,0.0,0.0,0.0,0.0,0.0,0.0,0.0,0.0,0.0,0.0,0.0,0.0,0.0,0.0,0.0,0.0,0.0,0.0,0.0,0.0,0.0,0.0,0.0,0.0,0.0,0.0,0.0,0.0,0.0,0.0,0.0,0.0,0.0,0.0,0.0,0.0,0.0,0.0,0.0,0.0,0.0,0.0,0.0,0.0,0.0,0.0,0.0,0.0,0.0,0.0,0.0,0.0,0.0,0.0,-2.3754,-2.8585,-3.2648,-3.5894,-3.8629,-3.9954,-3.9807,-3.826,-3.54,-3.1054,0.0,0.0,0.0,0.0,0.0,0.0,0.0,0.0,0.0,0.0,0.0,0.0,0.0,0.0,0.0,0.0,0.0,0.0,0.0,0.0,0.0,0.0,0.0,0.0,0.0,0.0,0.0,0.0,0.0,0.0,0.0,0.0,0.0,0.0,0.0,0.0,0.0,0.0,0.0,-1.6952,-1.7843,0.0,0.0,0.0,0.0,0.0,0.0,0.0,0.0,-1.4387,0.0,0.0,0.0,0.0,0.0,0.0,0.0,0.0,0.0,0.0,0.0,0.0,0.0,0.0,0.0,0.0,0.0,0.0,0.0,0.0,0.0,0.0,0.0,0.0,0.0,0.0,0.0,0.0,0.0,0.0,0.0,0.0,0.0,0.0,0.0,0.0,0.0,0.0,0.0,0.0,0.0,0.0,0.0,0.0,0.0,0.0,0.0,0.0,0.0,0.0,0.0,0.0,0.0,0.0,0.0,-2.5099,-2.9703,-3.3435,-3.6252,-3.8842,-3.9966,-3.9353,-3.7776,-3.4961,0.0,0.0,0.0,0.0,0.0,0.0,0.0,0.0,0.0,0.0,0.0,0.0,0.0,0.0,0.0,0.0,0.0,0.0,0.0,0.0,0.0,0.0,0.0,0.0,0.0,0.0,0.0,0.0,0.0,0.0,0.0,0.0,0.0,0.0,0.0,0.0,0.0,0.0,0.0,0.0,-1.9246,-1.9915,-2.0353,0.0,0.0,0.0,0.0,0.0,0.0,-1.6552,-1.5711,0.0,0.0,0.0,0.0,0.0,0.0,0.0,0.0,0.0,0.0,0.0,0.0,0.0,0.0,0.0,0.0,0.0,0.0,0.0,0.0,0.0,0.0,0.0,0.0,0.0,0.0,0.0,0.0,0.0,0.0,0.0,0.0,0.0,0.0,0.0,0.0,0.0,0.0,0.0,0.0,0.0,0.0,0.0,0.0,0.0,0.0,0.0,0.0,0.0,0.0,0.0,0.0,0.0,0.0,0.0,-2.6298,-3.0677,-3.4149,-3.6646,-3.9031,-3.9871,-3.8918,-3.6972,-3.4018,0.0,0.0,0.0,0.0,0.0,0.0,0.0,0.0,0.0,0.0,0.0,0.0,0.0,0.0,0.0,0.0,0.0,0.0,0.0,0.0,0.0,0.0,0.0,0.0,0.0,0.0,0.0,0.0,0.0,0.0,0.0,0.0,0.0,0.0,0.0,0.0,0.0,0.0,0.0,0.0,0.0,-2.1845,-2.2177,-2.1341,0.0,0.0,0.0,0.0,-1.9465,-1.8325,0.0,0.0,0.0,0.0,0.0,0.0,0.0,0.0,0.0,0.0,0.0,0.0,0.0,0.0,0.0,0.0,0.0,0.0,0.0,0.0,0.0,0.0,0.0,0.0,0.0,0.0,0.0,0.0,0.0,0.0,0.0,0.0,0.0,0.0,0.0,0.0,0.0,0.0,0.0,0.0,0.0,0.0,0.0,0.0,0.0,0.0,0.0,0.0,0.0,0.0,0.0,0.0,0.0,0.0,0.0,0.0,-2.6422,-3.1241,-3.4966,-3.7483,-3.9355,-3.989,-3.8993,-3.5954,-3.263,0.0,0.0,0.0,0.0,0.0,0.0,0.0,0.0,0.0,0.0,0.0,0.0,0.0,0.0,0.0,0.0,0.0,0.0,0.0,0.0,0.0,0.0,0.0,0.0,0.0,0.0,0.0,0.0,0.0,0.0,0.0,0.0,0.0,0.0,0.0,0.0,0.0,0.0,0.0,0.0,0.0,-2.2323,-2.3796,-2.2669,-2.1575,0.0,0.0,-2.138,-2.1384,-2.1166,0.0,0.0,0.0,0.0,0.0,0.0,0.0,0.0,0.0,0.0,0.0,0.0,0.0,0.0,0.0,0.0,0.0,0.0,0.0,0.0,0.0,0.0,0.0,0.0,0.0,0.0,0.0,0.0,0.0,0.0,0.0,0.0,0.0,0.0,0.0,0.0,0.0,0.0,0.0,0.0,0.0,0.0,0.0,0.0,0.0,0.0,0.0,0.0,0.0,0.0,0.0,0.0,0.0,0.0,0.0,-2.3271,-2.7124,-3.1645,-3.5223,-3.7742,-3.9447,-3.9659,-3.8359,-3.5971,-3.263,0.0,0.0,0.0,0.0,0.0,0.0,0.0,0.0,0.0,0.0,0.0,0.0,0.0,0.0,0.0,0.0,0.0,0.0,0.0,0.0,0.0,0.0,0.0,0.0,0.0,0.0,0.0,0.0,0.0,0.0,0.0,0.0,0.0,0.0,0.0,0.0,0.0,0.0,0.0,0.0,0.0,0.0,-2.4841,-2.4058,0.0,0.0,0.0,-2.3752,-2.3265,0.0,0.0,0.0,0.0,0.0,0.0,0.0,0.0,0.0,0.0,0.0,0.0,0.0,0.0,0.0,0.0,0.0,0.0,0.0,0.0,0.0,0.0,0.0,0.0,0.0,0.0,0.0,0.0,0.0,0.0,0.0,0.0,0.0,0.0,0.0,0.0,0.0,0.0,0.0,0.0,0.0,0.0,0.0,0.0,0.0,0.0,0.0,0.0,0.0,0.0,0.0,0.0,0.0,0.0,0.0,0.0,0.0,-2.7646,-3.2072,-3.5461,-3.783,-3.9444,-3.9503,-3.7857,-3.5895,0.0,0.0,0.0,0.0,0.0,0.0,0.0,0.0,0.0,0.0,0.0,0.0,0.0,0.0,0.0,0.0,0.0,0.0,0.0,0.0,0.0,0.0,0.0,0.0,0.0,0.0,0.0,-1.0847,0.0,0.0,0.0,0.0,0.0,0.0,0.0,0.0,0.0,0.0,0.0,0.0,0.0,0.0,-2.4035,-2.5757,-2.5632,-2.5317,0.0,0.0,-2.6038,-2.5362,-2.5113,-2.4286,0.0,0.0,0.0,0.0,0.0,0.0,0.0,0.0,0.0,0.0,0.0,0.0,0.0,0.0,0.0,0.0,0.0,0.0,0.0,0.0,0.0,0.0,0.0,0.0,0.0,0.0,0.0,0.0,0.0,0.0,0.0,0.0,0.0,0.0,0.0,0.0,0.0,0.0,0.0,0.0,0.0,0.0,0.0,0.0,0.0,0.0,0.0,0.0,0.0,0.0,0.0,0.0,0.0,0.0,0.0,-2.7736,-3.266,-3.6051,-3.7885,-3.9444,-3.9503,-3.7819,-3.5376,-3.2095,0.0,0.0,0.0,0.0,0.0,0.0,0.0,0.0,0.0,0.0,0.0,0.0,0.0,0.0,0.0,0.0,0.0,0.0,0.0,0.0,0.0,0.0,0.0,0.0,0.0,0.0,0.0,0.0,0.0,0.0,0.0,0.0,0.0,0.0,0.0,0.0,0.0,0.0,0.0,0.0,0.0,-2.4939,-2.6576,-2.7468,-2.7935,0.0,0.0,-2.8009,-2.7921,-2.725,-2.5878,-2.3339,0.0,0.0,0.0,0.0,0.0,0.0,0.0,0.0,0.0,0.0,0.0,0.0,0.0,0.0,0.0,0.0,0.0,0.0,0.0,0.0,0.0,0.0,0.0,0.0,0.0,0.0,0.0,0.0,0.0,0.0,0.0,0.0,0.0,0.0,0.0,0.0,0.0,0.0,0.0,0.0,0.0,0.0,0.0,0.0,0.0,0.0,0.0,0.0,0.0,0.0,0.0,0.0,0.0,-2.4321,-2.7774,-3.2752,-3.6213,-3.7924,-3.9533,-3.9806,-3.8618,-3.6599,-3.3547,0.0,0.0,0.0,0.0,0.0,0.0,0.0,0.0,0.0,0.0,0.0,0.0,0.0,0.0,0.0,0.0,0.0,0.0,0.0,0.0,0.0,0.0,0.0,0.0,0.0,0.0,0.0,0.0,-1.513,-1.551,-1.5574,0.0,0.0,0.0,0.0,0.0,0.0,0.0,0.0,0.0,0.0,-2.5796,-2.7468,-2.8017,0.0,0.0,-2.8636,-2.8792,-2.8281,-2.7926,-2.7021,-2.4914,-2.3474,0.0,0.0,0.0,0.0,0.0,0.0,0.0,0.0,0.0,0.0,0.0,0.0,0.0,0.0,0.0,0.0,0.0,0.0,0.0,0.0,0.0,0.0,0.0,0.0,0.0,0.0,0.0,0.0,0.0,0.0,0.0,0.0,0.0,0.0,0.0,0.0,0.0,0.0,0.0,0.0,0.0,0.0,0.0,0.0,0.0,0.0,0.0,0.0,0.0,0.0,0.0,0.0,-2.4803,-2.8487,-3.3257,-3.6543,-3.8278,-3.9844,-4.0154,-3.9082,-3.7865,-3.5217,0.0,0.0,0.0,0.0,0.0,0.0,0.0,0.0,0.0,0.0,0.0,0.0,0.0,0.0,0.0,0.0,0.0,0.0,0.0,0.0,0.0,0.0,0.0,0.0,0.0,0.0,0.0,0.0,-1.6721,-1.68,-1.6619,0.0,0.0,0.0,0.0,0.0,0.0,0.0,0.0,0.0,0.0,-2.6965,-2.8407,-2.8797,-2.8992,-2.8987,-2.9494,-2.9654,-2.907,-2.8749,-2.8082,-2.6602,0.0,0.0,0.0,0.0,0.0,0.0,0.0,0.0,0.0,0.0,0.0,0.0,0.0,0.0,0.0,0.0,0.0,0.0,0.0,0.0,0.0,0.0,0.0,0.0,0.0,0.0,0.0,0.0,0.0,0.0,-1.623,0.0,0.0,0.0,0.0,0.0,0.0,0.0,0.0,0.0,0.0,0.0,0.0,0.0,0.0,0.0,0.0,0.0,0.0,0.0,0.0,0.0,0.0,-2.592,-3.0017,-3.4293,-3.7292,-3.8935,-4.0559,-4.0615,-3.9032,-3.8804,-3.6805,-3.264,0.0,0.0,0.0,0.0,0.0,0.0,0.0,0.0,0.0,0.0,0.0,0.0,0.0,0.0,0.0,0.0,0.0,0.0,0.0,0.0,0.0,0.0,0.0,0.0,0.0,0.0,-1.6484,-1.7234,-1.7479,0.0,0.0,0.0,0.0,0.0,0.0,0.0,0.0,0.0,0.0,-2.7082,-2.8481,-2.9377,-3.0195,-3.0662,-3.0701,-3.074,-3.074,-3.0662,-3.0,-2.9182,0.0,0.0,0.0,0.0,0.0,0.0,0.0,0.0,0.0,0.0,0.0,0.0,0.0,0.0,0.0,0.0,0.0,0.0,0.0,0.0,0.0,0.0,0.0,0.0,0.0,0.0,0.0,-2.3373,-2.2827,0.0,0.0,0.0,0.0,0.0,0.0,0.0,0.0,0.0,0.0,0.0,-3.4062,-3.4358,0.0,0.0,0.0,0.0,0.0,0.0,0.0,0.0,0.0,0.0,0.0,0.0,-2.6729,-3.0941,-3.5115,-3.8058,-3.9757,-4.1398,-4.1988,-4.1416,-4.0289,-3.77,-3.3553,0.0,0.0,0.0,0.0,0.0,0.0,0.0,0.0,0.0,0.0,0.0,0.0,0.0,0.0,0.0,0.0,0.0,0.0,0.0,0.0,0.0,0.0,0.0,0.0,0.0,-1.8098,0.0,0.0,0.0,0.0,0.0,0.0,0.0,0.0,0.0,0.0,0.0,-2.5718,-2.716,-2.8329,-2.9377,-3.0234,-3.0585,-3.0779,0.0,0.0,0.0,0.0,0.0,0.0,0.0,0.0,0.0,0.0,0.0,0.0,0.0,0.0,-2.3594,-2.1016,-2.0508,-2.0505,-2.0531,0.0,0.0,0.0,0.0,0.0,0.0,0.0,0.0,0.0,0.0,0.0,0.0,0.0,0.0,-2.907,0.0,-2.6563,0.0,0.0,0.0,0.0,0.0,0.0,0.0,0.0,-3.4832,-3.7839,-4.0438,-4.0753,-4.0858,0.0,-3.834,-3.4073,0.0,0.0,0.0,0.0,0.0,0.0,0.0,0.0,-2.8558,-3.2994,-3.6577,-3.9261,-4.0919,-4.2324,-4.2873,-4.2569,-4.095,-3.8611,-3.5609,-3.2568,-2.9794,0.0,0.0,0.0,0.0,0.0,0.0,0.0,0.0,0.0,0.0,0.0,0.0,0.0,0.0,0.0,0.0,0.0,0.0,0.0,0.0,0.0,0.0,0.0,-2.0604,0.0,0.0,0.0,0.0,0.0,0.0,0.0,0.0,0.0,-2.3209,-2.5866,-2.8134,-2.8987,-3.0122,-3.1057,-3.1641,0.0,0.0,0.0,0.0,0.0,0.0,0.0,-3.0862,-3.0862,-3.1114,-3.1406,-3.1694,-3.1092,-3.0622,-3.0933,0.0,0.0,-2.5583,-2.4876,-2.4864,-2.4882,-2.5095,-2.5269,-2.5289,-2.5556,-2.5896,0.0,0.0,0.0,0.0,0.0,0.0,0.0,0.0,-3.5829,-3.5754,0.0,-3.1731,0.0,0.0,0.0,0.0,0.0,-3.1644,0.0,0.0,-4.1525,-4.4802,-4.6372,-4.7186,-4.7579,-4.7453,-4.5003,-4.292,-4.0722,-3.1531,0.0,0.0,0.0,0.0,0.0,0.0,-3.1366,-3.612,-3.8769,-4.0865,-4.2375,-4.3284,-4.3322,-4.245,-4.0896,-3.9608,-3.876,-3.6369,-3.3957,-3.1537,-2.8289,0.0,0.0,0.0,0.0,0.0,0.0,0.0,0.0,0.0,0.0,0.0,0.0,0.0,0.0,0.0,0.0,0.0,0.0,0.0,0.0,-2.3193,0.0,0.0,0.0,0.0,0.0,0.0,0.0,0.0,0.0,0.0,-2.6048,-2.8048,-2.9922,-3.0779,0.0,0.0,0.0,0.0,-3.3361,-3.3361,-3.34,-3.34,-3.34,-3.34,-3.3439,-3.3517,0.0,0.0,-3.5896,-3.5351,-3.5032,-3.5879,-3.5249,-3.3495,-2.9445,-2.8645,-2.8532,-2.8515,-2.9118,-2.9563,-2.9622,-3.0114,-3.0651,-4.8742,0.0,0.0,0.0,0.0,-4.18,-4.3446,-4.4007,-4.4661,-4.3949,-4.2155,-4.0029,0.0,0.0,0.0,0.0,0.0,0.0,-4.0279,-4.2547,-4.6202,-4.9097,-5.1367,-5.2021,-5.2027,-5.1387,-4.9544,-4.7475,-4.5143,-4.0603,-3.5518,-2.9952,0.0,0.0,0.0,0.0,-3.413,-3.7875,-4.045,-4.2223,-4.3322,-4.4118,-4.4156,-4.336,-4.2261,-4.1313,-4.0479,-3.8643,-3.6767,-3.487,-3.2158,0.0,0.0,0.0,0.0,0.0,0.0,0.0,0.0,0.0,0.0,0.0,0.0,0.0,0.0,0.0,0.0,0.0,0.0,0.0,-2.3972,-2.5837,-2.6296,0.0,0.0,0.0,0.0,0.0,0.0,0.0,0.0,0.0,-3.008,-3.1343,-3.2333,0.0,0.0,-3.34,-3.34,-3.34,-3.34,-3.34,-3.34,0.0,-3.4228,-3.4345,-3.474,-3.5919,-3.6843,-3.7491,-3.7812,-3.7649,-3.7561,-3.7828,-3.7672,-3.705,-3.5957,-3.4585,-3.3785,-3.3712,-3.3891,-3.4023,-3.3954,-3.3735,-3.3386,-5.8755,-5.2229,-4.9154,-4.7482,-4.7077,-4.9565,-5.0895,-5.1316,-5.1637,-5.0842,-4.9184,-4.7016,-4.4643,-4.2183,-4.0391,0.0,0.0,0.0,-4.5457,-4.7353,-5.0153,-5.2484,-5.4259,-5.5313,-5.5575,-5.5013,-5.3399,-5.1635,-4.9796,-4.696,-4.3117,-3.8093,0.0,0.0,-3.357,-3.5173,-3.7543,-4.0613,-4.2796,-4.4156,-4.4687,-4.4838,-4.4649,-4.4156,-4.3057,-4.2185,-4.1692,-4.0063,-3.8546,-3.722,-3.5097,-3.233,0.0,0.0,0.0,0.0,0.0,0.0,0.0,0.0,0.0,0.0,0.0,-1.4905,-1.5918,0.0,0.0,0.0,-2.2249,-2.4523,-2.7652,-2.8607,0.0,0.0,0.0,0.0,0.0,0.0,0.0,-2.945,-3.0365,-3.1559,-3.3297,-3.4296,-3.4625,-3.3979,-3.4174,-3.4408,-3.4408,0.0,-3.4491,-3.4847,-3.4881,-3.5198,-3.607,-3.6187,-3.6668,-3.8017,-3.8624,-3.9179,-3.9529,-3.9596,-3.9585,-3.9585,-3.9585,-3.9588,-3.9585,-3.8723,-3.7737,-3.7079,-3.689,-3.689,-3.6828,-3.6151,-3.5512,-6.6919,-6.483,-5.7663,-5.4912,-5.5386,-5.6963,-5.7426,-5.7159,-5.7042,-5.649,-5.547,-5.2834,-5.1193,-5.0302,-4.8375,0.0,-4.7612,-4.9127,-5.0266,-5.129,-5.3536,-5.502,-5.5809,-5.7379,-5.809,-5.7978,-5.6403,-5.5165,-5.4078,-5.1054,-4.8701,-4.6937,-4.1033,-3.7943,-3.7775,-3.9293,-4.1329,-4.3818,-4.5445,-4.6241,-4.6165,-4.5369,-4.4876,-4.4762,-4.3246,-4.2375,-4.2261,-4.0707,-3.9456,-3.8698,-3.7106,-3.5059,-3.2558,0.0,0.0,0.0,0.0,0.0,0.0,0.0,0.0,0.0,0.0,0.0,0.0,0.0,0.0,0.0,-2.6589,0.0,-3.1767,-3.1362,0.0,0.0,0.0,-3.0699,-2.9919,-3.0599,-3.1429,-3.2249,0.0,0.0,-3.5779,-3.678,-3.6729,-3.5109,-3.5538,-3.5967,-3.5928,-3.5933,-3.6289,-3.6923,-3.7235,-3.7586,-3.8268,-3.8549,-3.8918,-3.968,-3.9883,-4.0154,-4.0814,-4.1001,-4.1072,-4.0991,-4.1108,-4.1069,-4.1069,-4.0906,-4.0617,-3.8956,-3.863,-3.861,-3.8555,-3.7782,-3.7094,-6.9362,-6.8117,-6.5696,-6.3262,-6.1077,-6.2498,-6.2732,-6.207,-6.1777,-6.0576,-5.8733,-5.7571,-5.5992,-5.4091,-5.3634,-5.3103,-5.2611,-5.3662,-5.4221,-5.4547,-5.6178,-5.7041,-5.7364,-5.8189,-5.8266,-5.7633,-5.6627,-5.5397,-5.387,-5.2493,-5.1003,-4.9294,-4.7731,-4.52,-4.187,-4.2862,-4.4067,-4.5364,-4.6505,-4.6809,-4.6203,-4.5331,-4.4611,-4.4004,-4.2943,-4.2109,-4.1465,-3.9873,-3.8888,-3.866,-3.7106,-3.5325,-3.3468,-2.9228,0.0,0.0,0.0,0.0,0.0,0.0,0.0,0.0,0.0,-1.9461,-2.075,0.0,-2.4638,0.0,-2.9248,-3.162,-3.3566,-3.3615,0.0,0.0,-3.4507,-3.442,-3.427,-3.4434,-3.4917,-3.585,-3.6083,-3.6604,-3.7721,-3.8046,-3.8053,-3.7603,-3.7175,-3.6668,-3.6045,-3.6484,-3.6957,-3.723,-3.78,-3.8489,-3.9325,-4.0073,-4.0506,-4.0781,-4.0779,-4.089,-4.1077,-4.1111,-4.1108,-4.1108,-4.1108,-4.1108,-4.1108,-4.1094,-4.0998,-4.0554,-4.0429,-4.0321,-4.0218,-3.9053,-3.7975,-7.0434,-6.9611,-6.9213,-6.7862,-6.5983,-6.6043,-6.5786,-6.5238,-6.4694,-6.3526,-6.1888,-6.0733,-5.9427,-5.8008,-5.8049,-5.7602,-5.693,-5.7303,-5.7155,-5.6556,-5.7677,-5.8002,-5.7724,-5.8359,-5.8475,-5.8029,-5.7332,-5.6292,-5.5025,-5.4205,-5.2976,-5.1374,-5.1267,-4.9738,-4.6912,-4.6697,-4.6899,-4.7466,-4.7343,-4.7136,-4.6695,-4.5179,-4.4156,-4.3639,-4.2101,-4.1079,-4.0602,-3.8975,-3.7898,-3.754,-3.6669,-3.5419,-3.3733,-3.0419,-2.7562,0.0,0.0,0.0,0.0,0.0,0.0,0.0,0.0,0.0,0.0,0.0,-2.7675,-2.9879,-3.1802,-3.3615,-3.5398,-3.5582,-3.595,-3.6813,-3.691,-3.6889,-3.6945,-3.6961,-3.7164,-3.7646,-3.7693,-3.8019,-3.8896,-3.9065,-3.9072,-3.9084,-3.8694,-3.8038,-3.7303,-3.7503,-3.7903,-3.8311,-3.8765,-3.937,-4.0233,-4.0778,-4.1126,-4.1123,-4.1121,-4.1119,-4.1111,-4.1108,-4.1108,-4.1108,-4.1108,-4.1108,-4.1108,-4.1097,-4.112,-4.1095,-4.1065,-4.0968,-4.0849,-3.9508,-3.8302,-7.0541,-6.9877,-6.9877,-6.9781,-6.9441,-6.8055,-6.7341,-6.7213,-6.6391,-6.5422,-6.4419,-6.2718,-6.1837,-6.1521,-6.141,-6.1007,-6.0385,-6.0078,-5.919,-5.797,-5.8442,-5.8322,-5.7682,-5.8401,-5.8739,-5.8702,-5.8124,-5.7454,-5.6706,-5.5808,-5.4575,-5.3232,-5.2902,-5.2456,-5.1676,-5.0328,-4.9599,-4.9565,-4.7956,-4.7229,-4.7326,-4.4965,-4.3577,-4.334,-4.1146,-3.98,-3.9603,-3.8018,-3.6831,-3.6154,-3.6003,-3.5437,-3.4188,-3.1876,-2.9888,0.0,-2.6124,0.0,0.0,0.0,0.0,0.0,0.0,0.0,0.0,-2.9678,-3.0864,-3.333,-3.4254,-3.5427,-3.7191,-3.7394,-3.7769,-3.8585,-3.8735,-3.8704,-3.8758,-3.8743,-3.8712,-3.8766,-3.8751,-3.9045,-3.9746,-3.9922,-3.998,-3.9941,-3.9941,-3.9636,-3.899,-3.875,-3.8922,-3.9713,-3.9879,-4.0234,-4.0845,-4.1072,-4.1111,-4.1111,-4.0955,-4.0991,-4.1069,-4.0991,-4.0952,-4.1069,-4.1108,-4.1108,-4.1108,-4.1101,-4.109,-4.1106,-4.1033,-4.0991,-4.0809,-3.9655,-3.8556,-6.9926,-6.8535,-6.8794,-6.8641,-6.8269,-6.7743,-6.7557,-6.7458,-6.6553,-6.5474,-6.4237,-6.3309,-6.2993,-6.3119,-6.2487,-6.2116,-6.1856,-6.0518,-5.9743,-5.9454,-5.8925,-5.8624,-5.8512,-5.876,-5.8913,-5.8908,-5.8316,-5.7977,-5.7789,-5.6288,-5.5317,-5.4837,-5.4129,-5.3683,-5.3311,0.0,0.0,0.0,-4.8227,-4.7118,-4.7071,-4.4813,-4.3215,-4.2473,-4.0736,0.0,-3.8712,-3.7128,-3.6226,-3.6079,-3.5473,0.0,0.0,0.0,0.0,0.0,0.0,0.0,0.0,0.0,0.0,0.0,-3.2453,-3.2199,-3.216,-3.348,-3.4874,-3.6123,-3.6425,-3.724,-3.8917,-3.912,-3.9479,-4.0325,-4.0412,-4.0429,-4.0493,-4.0509,-4.0517,-4.0584,-4.0591,-4.063,-4.0747,-4.0831,-4.0838,-4.0799,-4.0838,-4.0805,-4.0588,-3.9964,-3.9642,-3.9799,-4.039,-4.0845,-4.1072,-4.1108,-4.1108,-4.103,-4.0522,-4.0444,-4.0915,-4.0522,-4.0444,-4.0955,-4.1108,-4.1108,-4.1108,-4.1108,-4.1101,-4.1115,-4.105,-4.0967,-4.0887,-4.0102,-3.9335,-6.9328,0.0,-6.8642,-6.8522,0.0,-6.7762,-6.7679,-6.7741,-6.692,-6.5676,-6.4279,-6.3611,-6.3382,-6.3565,-6.3193,-6.2784,-6.2339,-6.1113,-6.0338,-5.9859,-5.9074,-5.8698,-5.8698,-5.8912,-5.8989,-5.8986,-5.8877,-5.8646,-5.8194,-5.6952,-5.6055,-5.543,-5.4645,-5.4128,-5.3944,-5.3199,-5.2074,-5.0525,-4.8909,-4.777,-4.7032,-4.503,-4.3337,-4.207,-4.0453,0.0,0.0,0.0,0.0,0.0,0.0,0.0,0.0,0.0,0.0,-3.6121,-3.5325,-3.468,-3.4301,-3.4715,-3.5446,-3.645,-3.75,-3.7192,-3.5058,-3.6134,-3.7323,-3.8179,-3.8316,-3.8866,-4.0127,-4.0307,-4.0509,-4.0937,-4.1015,-4.1023,-4.1038,-4.1045,-4.1052,-4.1104,-4.111,-4.111,-4.111,-4.111,-4.111,-4.111,-4.1052,-4.1052,-4.1033,-4.07,-4.0426,-4.0427,-4.0775,-4.1111,-4.1108,-4.1108,-4.1108,-4.103,-4.0444,-4.0291,-4.0962,-4.0416,-4.0142,-4.0884,-4.1116,-4.1116,-4.1116,-4.1114,-4.1104,-4.109,-4.1076,-4.105,-4.096,-4.0299,-3.9643,-6.9046,-6.8385,-6.8678,-6.8522,-6.8028,-6.7743,-6.7589,-6.7506,0.0,0.0,0.0,-6.3706,-6.3465,-6.3602,-6.3602,-6.3156,-6.2376,-6.1558,-6.0747,-5.9859,-5.9032,-5.8698,-5.8698,-5.8947,-5.9064,-5.9063,-5.9474,-5.9311,-5.8631,-5.7649,-5.6715,-5.583,-5.4894,-5.438,-5.4094,-5.3596,-5.2503,-5.0908,-4.9786,-4.8509,-4.7207,-4.5435,-4.382,-4.2441,-4.0615,-3.9402,-3.8775,-3.8009,-3.7325,-3.6835,-3.7461,-3.7671,-3.7334,-3.7902,-3.8357,-3.8471,-3.8509,-3.8433,-3.8319,-3.9049,-3.9585,-3.9797,-4.1351,-4.1102,-3.8245,-3.8739,-3.9451,-4.0043,-4.0127,-4.04,-4.0984,-4.1052,-4.111,-4.111,-4.111,-4.111,-4.111,-4.1104,-4.1098,-4.1104,-4.1104,-4.1065,-4.111,-4.111,-4.111,-4.1104,-4.1038,-4.0976,-4.0999,-4.0994,-4.1007,-4.1009,-4.1054,-4.1116,-4.1111,-4.1108,-4.1111,-4.1074,-4.0447,-4.0216,-4.0771,-4.0423,-4.0269,-4.0973,-4.1125,-4.1119,-4.1119,-4.1114,-4.1108,-4.1097,-4.1097,-4.1094,-4.1033,-4.0499,-4.0039,-6.9444,-6.8153,-6.8385,-6.8147,-6.7508,-6.7193,-6.6809,-6.6262,-6.597,-6.5324,-6.4339,-6.3706,-6.3511,-6.3602,-6.3602,-6.3193,-6.2376,-6.1558,-6.0741,-5.9887,-5.9069,-5.8698,-5.8698,-5.9063,-5.9253,-5.929,-5.9685,-5.9815,-5.9512,-5.811,-5.7181,-5.6715,-5.5319,-5.4505,-5.4375,-5.4258,-5.3729,-5.2686,-5.061,-4.9032,-4.7941,-4.5782,-4.4572,-4.4233,-4.2008,-4.0726,-4.0637,-3.9844,-3.9415,-3.9369,-3.9482,-4.0148,-4.1427,-4.1579,-4.2033,-4.2754,-4.2791,-4.2488,-4.1768,-4.196,-4.2259,-4.2524,-4.2911,-4.2923,-4.2559,-4.2654,-4.2549,-4.2002,-4.1863,-4.1692,-4.1214,-4.1104,-4.1104,-4.1104,-4.111,-4.111,-4.1104,-4.1045,-4.1038,-4.1098,-4.1045,-4.1038,-4.1059,-4.1104,-4.1104,-4.1104,-4.103,-4.096,-4.0943,-4.0967,-4.1022,-4.1016,-4.105,-4.1091,-4.1119,-4.1111,-4.1114,-4.1125,-4.0413,-4.0176,-4.096,-4.0425,-4.0234,-4.1016,-4.1133,-4.1114,-4.1111,-4.1111,-4.1108,-4.1108,-4.1104,-4.1104,-4.1101,-4.0941,-4.0808,-6.9444,-6.8801,-6.9,-6.8414,-6.742,-6.7053,-6.6743,-6.6515,-6.6043,-6.5254,-6.418,-6.3715,-6.3565,-6.3565,-6.3252,-6.2879,-6.2339,-6.1076,-6.0295,-5.9844,-5.9107,-5.8698,-5.8698,-5.9014,-5.9136,-5.9177,-5.9436,-5.9613,-5.9639,-5.8543,-5.7645,-5.7012,-5.5404,-5.4613,-5.4667,-5.4678,-5.4193,-5.3257,-5.1651,-5.0197,-4.8858,-4.7371,-4.5961,-4.4643,-4.3439,-4.2448,-4.1655,-4.1278,-4.1137,-4.1268,-4.1684,-4.2314,-4.3057,-4.3512,-4.3929,-4.4308,-4.4345,-4.3966,-4.3133,-4.2862,-4.3044,-4.3679,-4.3902,-4.424,-4.4703,-4.3976,-4.3372,-4.2961,-4.2572,-4.2152,-4.1777,-4.1295,-4.1007,-4.1007,-4.1007,-4.0968,-4.0968,-4.0991,-4.0952,-4.0968,-4.1015,-4.0976,-4.0968,-4.103,-4.103,-4.0976,-4.0935,-4.0878,-4.0837,-4.0888,-4.0929,-4.0978,-4.1069,-4.1091,-4.1091,-4.1123,-4.1121,-4.1119,-4.0422,-4.0306,-4.0894,-4.0469,-4.0351,-4.0976,-4.1133,-4.1125,-4.1114,-4.1108,-4.1108,-4.1108,-4.1108,-4.1108,-4.1108,-4.1108,-4.1101,-6.9586,-6.9586,-6.9542,-6.8672,-6.7393,-6.6692,-6.6546,-6.6677,-6.5822,-6.4947,-6.4171,-6.3928,-6.3795,-6.3527,-6.2971,-6.2524,-6.2017,-6.0678,-5.9897,-5.9594,-5.8995,-5.8698,-5.8698,-5.8929,-5.9054,-5.9101,-5.9327,-5.9508,-5.9537,-5.8854,-5.806,-5.7083,-5.5664,-5.5012,-5.5223,-5.4996,-5.4519,-5.3716,-5.2799,-5.1463,-4.9777,-4.898,-4.7579,-4.5622,-4.5057,-4.432,-4.3177,-4.2913,-4.2848,-4.2995,-4.3625,-4.3966,-4.3966,-4.4535,-4.4876,-4.4876,-4.4876,-4.4649,-4.4052,-4.359,-4.3733,-4.4491,-4.4761,-4.517,-4.5685,-4.4792,-4.3985,-4.3761,-4.3255,-4.2827,-4.2555,-4.1984,-4.149,-4.149,-4.149,-4.1451,-4.1257,-4.117,-4.1053,-4.0985,-4.0935,-4.0935,-4.0917,-4.0943,-4.0943,-4.0898,-4.0819,-4.0804,-4.0796,-4.0796,-4.0868,-4.0953,-4.1033,-4.1072,-4.1091,-4.1093,-4.1126,-4.108,-4.0621,-4.0625,-4.0937,-4.0625,-4.0469,-4.1055,-4.1133,-4.1094,-4.1123,-4.1114,-4.1111,-4.1108,-4.1108,-4.1111,-4.1114,-4.1116,-4.1111,-7.0371,-7.03,-6.9622,-6.8541,-6.7195,-6.5653,-6.55,-6.592,-6.4383,-6.4037,-6.4639,-6.4438,-6.4086,-6.3565,-6.2966,-6.2305,-6.1595,-6.0588,-5.9804,-5.9169,-5.8818,-5.8698,-5.8739,-5.91,-5.929,-5.929,-5.9613,-5.9786,-5.9782,-5.9057,-5.8224,-5.7352,-5.6474,-5.6057,-5.5981,-5.5299,-5.4844,-5.4739,-5.3943,-5.2605,-5.0862,-5.0071,-4.9284,-4.8337,-4.6821,-4.5988,-4.5685,-4.5079,-4.4624,-4.4687,-4.4724,-4.4762,-4.48,-4.4876,-4.4876,-4.4876,-4.4876,-4.49,-4.4896,-4.5001,-4.5092,-4.5378,-4.5542,-4.5725,-4.5866,-4.5813,-4.5382,-4.4753,-4.4481,-4.4093,-4.3471,-4.3228,-4.3063,-4.2975,-4.3063,-4.2956,-4.217,-4.2022,-4.1701,-4.0985,-4.0829,-4.0858,-4.0888,-4.0907,-4.0888,-4.0848,-4.0787,-4.0804,-4.0796,-4.0796,-4.0792,-4.0898,-4.096,-4.1037,-4.1074,-4.1094,-4.1092,-4.1093,-4.1094,-4.1055,-4.1094,-4.1133,-4.1133,-4.1094,-4.1172,-4.1133,-4.1094,-4.1126,-4.1111,-4.1111,-4.1111,-4.1114,-4.1123,-4.1125,-4.1121,-7.0514,-7.0478,-7.0157,-6.9439,-6.8421,-6.6433,-6.6038,-6.671,-6.519,-6.4918,-6.535,-6.5096,-6.4462,-6.3565,-6.2971,-6.2496,-6.216,-6.1338,-6.0596,-5.9964,-5.9875,-5.9573,-5.9137,-5.9215,-5.929,-5.929,-5.9472,-5.9578,-5.9568,-5.9057,-5.8521,-5.8104,-5.7339,-5.6664,-5.6209,-5.586,-5.5443,-5.492,-5.4579,-5.3829,-5.2664,-5.1784,-5.0751,-4.95,-4.8742,-4.7858,-4.6948,-4.6089,-4.5697,-4.5645,-4.5204,-4.4876,-4.4876,-4.4876,-4.4876,-4.4876,-4.4876,-4.4962,-4.5057,-4.5213,-4.536,-4.555,-4.5665,-4.5771,-4.5841,-4.5854,-4.5712,-4.5389,-4.4948,-4.4544,-4.4222,-4.3734,-4.3361,-4.34,-4.34,-4.309,-4.2199,-4.2071,-4.171,-4.0959,-4.0826,-4.0815,-4.0815,-4.0854,-4.0843,-4.082,-4.082,-4.0808,-4.0822,-4.0784,-4.0808,-4.0815,-4.0917,-4.0974,-4.1085,-4.1119,-4.1091,-4.1094,-4.1133,-4.1211,-4.1211,-4.1211,-4.1172,-4.1211,-4.1172,-4.1133,-4.1094,-4.1094,-4.1121,-4.1121,-4.1114,-4.1111,-4.1116,-4.1123,-4.1162,-7.0514,-7.0514,-7.0514,-7.0118,-6.9358,-6.739,-6.6845,-6.7186,-6.6083,-6.5635,-6.5767,-6.5673,-6.5041,-6.4058,-6.3109,-6.2683,-6.2571,-6.1943,-6.1389,-6.098,-6.0935,-6.0449,-5.9703,-5.9737,-5.9624,-5.9438,-5.9436,-5.9581,-5.9609,-5.929,-5.9014,-5.89,-5.818,-5.7466,-5.6936,-5.6694,-5.6088,-5.5367,-5.5261,-5.4844,-5.4048,-5.3404,-5.2305,-5.0751,-5.0107,-4.9337,-4.8124,-4.6872,-4.6228,-4.6177,-4.5393,-4.4938,-4.4938,-4.4962,-4.4924,-4.4938,-4.4924,-4.501,-4.5103,-4.5235,-4.54,-4.5568,-4.5687,-4.5727,-4.5786,-4.58,-4.58,-4.5775,-4.5312,-4.5028,-4.4938,-4.4395,-4.402,-4.3982,-4.3982,-4.3647,-4.2925,-4.2563,-4.2099,-4.1311,-4.0986,-4.0792,-4.0784,-4.0822,-4.0822,-4.0822,-4.0822,-4.081,-4.081,-4.0822,-4.0784,-4.082,-4.0848,-4.0952,-4.105,-4.1097,-4.108,-4.1094,-4.1133,-4.1172,-4.1172,-4.1172,-4.1211,-4.1211,-4.1211,-4.1211,-4.1172,-4.1133,-4.1133,-4.1133,-4.1133,-4.1133,-4.1125,-4.1172,-4.1172,-7.0514,-7.0514,-7.0514,-7.005,-6.9265,-6.8318,-6.7639,-6.7153,-6.6439,-6.5894,-6.5488,-6.5842,-6.5836,-6.5188,-6.3535,-6.2757,-6.2645,-6.2213,-6.188,-6.1731,-6.177,-6.1319,-6.0567,-6.0736,-6.0425,-5.9842,-5.9866,-5.989,-5.989,-5.9847,-5.9847,-5.9772,-5.9019,-5.8608,-5.8343,-5.7725,-5.696,-5.6239,-5.6088,-5.5716,-5.4958,-5.4769,-5.3897,-5.2343,-5.0789,-4.9993,-4.9527,-4.7491,-4.6241,-4.6203,-4.5456,-4.5048,-4.501,-4.5057,-4.5057,-4.501,-4.5057,-4.5103,-4.5125,-4.5277,-4.5477,-4.5586,-4.5665,-4.5742,-4.58,-4.58,-4.58,-4.58,-4.5736,-4.5659,-4.5659,-4.5465,-4.549,-4.549,-4.5568,-4.5221,-4.4536,-4.3557,-4.2937,-4.2083,-4.1246,-4.0873,-4.081,-4.081,-4.081,-4.081,-4.081,-4.081,-4.081,-4.081,-4.0784,-4.082,-4.0865,-4.0937,-4.0976,-4.1061,-4.1104,-4.1123,-4.1094,-4.1094,-4.1133,-4.1133,-4.1172,-4.1211,-4.1211,-4.1211,-4.1211,-4.1211,-4.1172,-4.1172,-4.1172,-4.1172,-4.1172,-4.1172,-4.1211,-7.0514,-7.0514,-7.0514,-7.0336,-6.9911,-6.8673,-6.8211,-6.8302,-6.6796,-6.6308,-6.6438,-6.6047,-6.5825,-6.5836,-6.4328,-6.3899,-6.4214,-6.4,-6.345,-6.267,-6.271,-6.2332,-6.1618,-6.1754,-6.1743,-6.141,-6.0875,-6.0378,-5.9923,-5.9885,-5.9885,-5.9885,-5.962,-5.9209,-5.8722,-5.8381,-5.7845,-5.698,-5.6481,-5.6057,-5.5716,-5.5185,-5.4579,-5.401,-5.2911,-5.184,-5.0768,-4.9337,-4.8086,-4.7061,-4.6263,-4.5603,-4.5156,-4.5103,-4.5103,-4.508,-4.5125,-4.5192,-4.5239,-4.5361,-4.5532,-4.5632,-4.5735,-4.5757,-4.58,-4.58,-4.58,-4.58,-4.58,-4.58,-4.58,-4.58,-4.58,-4.5814,-4.5802,-4.557,-4.4769,-4.3904,-4.3051,-4.2172,-4.1323,-4.081,-4.081,-4.081,-4.081,-4.081,-4.081,-4.081,-4.081,-4.081,-4.0822,-4.0796,-4.082,-4.0865,-4.0878,-4.102,-4.1129,-4.1108,-4.1094,-4.1094,-4.1133,-4.1172,-4.1211,-4.1211,-4.1211,-4.1211,-4.1211,-4.1211,-4.1211,-4.1211,-4.1211,-4.1211,-4.1211,-4.1211,-4.1211,-7.0728,-7.0514,-7.0514,-7.0514,-7.0407,-6.9346,-6.8991,-6.9122,-6.7439,-6.6925,-6.7043,-6.6199,-6.5975,-6.6226,-6.5527,-6.5324,-6.5514,-6.5023,-6.4337,-6.3716,-6.3615,-6.32,-6.2633,-6.2662,-6.258,-6.2311,-6.1515,-6.0795,-6.0302,-6.0037,-5.9885,-5.9885,-5.9885,-5.962,-5.9171,-5.9095,-5.8684,-5.7856,-5.7277,-5.6891,-5.655,-5.5754,-5.5299,-5.5223,-5.4503,-5.329,-5.164,-5.0513,-4.9299,-4.7973,-4.6871,-4.5946,-4.5217,-4.5103,-4.5103,-4.5103,-4.5192,-4.526,-4.5303,-4.5457,-4.5582,-4.5735,-4.5765,-4.581,-4.58,-4.58,-4.58,-4.58,-4.58,-4.58,-4.58,-4.58,-4.58,-4.5814,-4.5854,-4.5648,-4.513,-4.4071,-4.2935,-4.1838,-4.1156,-4.0822,-4.081,-4.081,-4.081,-4.081,-4.081,-4.081,-4.081,-4.081,-4.081,-4.0822,-4.0796,-4.0831,-4.0837,-4.096,-4.1045,-4.1076,-4.1111,-4.1123,-4.113,-4.1171,-4.1211,-4.1211,-4.1211,-4.1211,-4.1211,-4.1211,-4.1211,-4.1211,-4.1211,-4.1211,-4.1211,-4.1211,-4.1211,-7.1192,-7.055,-7.0514,-7.0514,-7.0478,-7.0371,-7.0015,-6.9301,-6.8439,-6.7689,-6.7182,-6.654,-6.6416,-6.6664,-6.67,-6.6953,-6.6457,-6.4993,-6.447,-6.4775,-6.4387,-6.3838,-6.3276,-6.3273,-6.3003,-6.2504,-6.1591,-6.1136,-6.0947,-6.034,-5.9999,-5.9923,-5.9885,-5.9847,-5.9847,-5.9772,-5.9436,-5.883,-5.8559,-5.8142,-5.7422,-5.6588,-5.6133,-5.6057,-5.5337,-5.4124,-5.2456,-5.0903,-4.9717,-4.8693,-4.7302,-4.5984,-4.5369,-4.5141,-4.5103,-4.5148,-4.5239,-4.5341,-4.5419,-4.5509,-4.5665,-4.5765,-4.5795,-4.581,-4.58,-4.58,-4.58,-4.58,-4.58,-4.58,-4.58,-4.58,-4.58,-4.58,-4.5827,-4.5815,-4.5531,-4.4383,-4.2705,-4.1441,-4.1042,-4.0848,-4.081,-4.081,-4.081,-4.081,-4.081,-4.081,-4.081,-4.081,-4.081,-4.0822,-4.0796,-4.0808,-4.0826,-4.0898,-4.0968,-4.0994,-4.109,-4.1116,-4.1128,-4.1172,-4.1211,-4.1211,-4.1211,-4.1211,-4.1211,-4.1211,-4.1211,-4.1211,-4.1211,-4.1211,-4.1211,-4.1211,-4.1211,-7.0728,-7.0514,-7.0514,-7.0514,-7.0514,-7.0514,-7.0336,-7.005,-6.9265,-6.848,-6.7695,-6.7075,-6.6684,-6.638,-6.6344,-6.6683,-6.7185,-6.5853,-6.5088,-6.4964,-6.4837,-6.4406,-6.3862,-6.3875,-6.3616,-6.3084,-6.2886,-6.2197,-6.1212,-6.0833,-6.0454,-5.9999,-5.9885,-5.9885,-5.9885,-5.9885,-5.9734,-5.9506,-5.8976,-5.8521,-5.8218,-5.746,-5.6777,-5.6209,-5.5906,-5.4996,-5.3366,-5.2191,-5.1006,-4.9667,-4.8555,-4.739,-4.6183,-4.5407,-4.5163,-4.517,-4.5281,-4.5419,-4.555,-4.5632,-4.5765,-4.5771,-4.5824,-4.5786,-4.58,-4.58,-4.58,-4.58,-4.58,-4.58,-4.58,-4.58,-4.58,-4.58,-4.5854,-4.588,-4.5738,-4.4911,-4.384,-4.2718,-4.2009,-4.1661,-4.1506,-4.1274,-4.0926,-4.0887,-4.0887,-4.0926,-4.0848,-4.0965,-4.081,-4.0822,-4.0784,-4.0846,-4.0854,-4.0868,-4.0952,-4.0981,-4.1076,-4.1111,-4.1125,-4.1172,-4.1172,-4.1211,-4.1211,-4.1211,-4.1211,-4.1211,-4.1211,-4.1211,-4.1211,-4.1211,-4.1211,-4.1211,-4.1211,-7.0764,-7.0514,-7.0514,-7.0514,-7.0514,-7.0514,-7.0514,-7.0371,-6.9658,-6.8837,-6.8052,-6.7302,-6.6646,-6.6269,-6.6112,-6.6644,-6.7413,-6.6874,-6.6308,-6.5682,-6.5105,-6.4755,-6.4369,-6.4241,-6.4103,-6.3766,-6.3574,-6.2848,-6.1629,-6.125,-6.0681,-6.0037,-5.9885,-5.9885,-5.9885,-5.9885,-5.9885,-5.9809,-5.9393,-5.9127,-5.8976,-5.8293,-5.7611,-5.7118,-5.6512,-5.5678,-5.4617,-5.3518,-5.2115,-5.0578,-4.9402,-4.8049,-4.6478,-4.5794,-4.5422,-4.5208,-4.5301,-4.5457,-4.5586,-4.5735,-4.5824,-4.58,-4.58,-4.58,-4.58,-4.58,-4.58,-4.58,-4.58,-4.58,-4.58,-4.58,-4.58,-4.58,-4.5841,-4.5751,-4.548,-4.4976,-4.4266,-4.3376,-4.2783,-4.255,-4.2318,-4.2125,-4.1545,-4.139,-4.1506,-4.1506,-4.1467,-4.1583,-4.1506,-4.139,-4.1325,-4.1221,-4.0858,-4.0858,-4.0935,-4.0967,-4.1061,-4.1104,-4.1123,-4.1172,-4.1211,-4.1211,-4.1211,-4.1211,-4.1211,-4.1211,-4.1211,-4.1211,-4.1211,-4.1211,-4.1211,-4.1211,-4.1211,-7.1156,-7.055,-7.0514,-7.0514,-7.0514,-7.0514,-7.0514,-7.0371,-6.9765,-6.8944,-6.8088,-6.7445,-6.6717,-6.6227,-6.6427,-6.6931,-6.7396,-6.7804,-6.7629,-6.6898,-6.584,-6.4927,-6.4694,-6.4308,-6.4212,-6.4255,-6.3729,-6.3084,-6.2394,-6.1633,-6.0757,-6.0151,-5.9961,-5.9885,-5.9885,-5.9885,-5.9885,-5.9885,-5.9847,-5.9809,-5.9772,-5.9165,-5.8672,-5.8521,-5.7232,-5.636,-5.5792,-5.4389,-5.2836,-5.1244,-4.9652,-4.82,-4.6733,-4.6278,-4.5859,-4.5293,-4.5319,-4.5438,-4.5603,-4.5696,-4.58,-4.58,-4.58,-4.58,-4.58,-4.58,-4.58,-4.58,-4.58,-4.58,-4.58,-4.58,-4.58,-4.58,-4.5814,-4.5543,-4.4871,-4.4755,-4.4485,-4.3827,-4.344,-4.3363,-4.3363,-4.3247,-4.2744,-4.2434,-4.2628,-4.255,-4.2396,-4.2396,-4.2667,-4.2473,-4.2125,-4.1763,-4.1451,-4.1334,-4.1332,-4.0967,-4.1061,-4.1097,-4.1123,-4.1172,-4.1211,-4.1211,-4.1211,-4.1211,-4.1211,-4.1211,-4.1211,-4.1211,-4.1211,-4.1211,-4.1211,-4.1211,-4.1211,-7.0693,-7.0514,-7.0514,-7.0514,-7.0514,-7.0514,-7.0514,-7.0478,-7.03,-6.9372,-6.8302,-6.7909,-6.7118,-6.6155,-6.6512,-6.6946,-6.7396,-6.7915,-6.8185,-6.7937,-6.6505,-6.5079,-6.4212,-6.4027,-6.4004,-6.405,-6.3949,-6.3691,-6.301,-6.2178,-6.1417,-6.0795,-6.0151,-5.9885,-5.9885,-5.9885,-5.9885,-5.9885,-5.9885,-5.9885,-5.9847,-5.9696,-5.9279,-5.8672,-5.8218,-5.7346,-5.6209,-5.4579,-5.2949,-5.1319,-5.022,-4.9121,-4.7984,-4.6923,-4.6215,-4.5931,-4.5562,-4.54,-4.555,-4.5703,-4.581,-4.58,-4.58,-4.58,-4.58,-4.58,-4.58,-4.58,-4.58,-4.58,-4.58,-4.58,-4.58,-4.58,-4.58,-4.5684,-4.549,-4.549,-4.5374,-4.5142,-4.4601,-4.433,-4.4175,-4.3788,-4.3363,-4.3131,-4.3208,-4.3363,-4.3169,-4.3247,-4.3479,-4.3247,-4.286,-4.2473,-4.2133,-4.1975,-4.1691,-4.113,-4.1061,-4.1097,-4.1121,-4.1172,-4.1172,-4.1211,-4.1211,-4.1211,-4.1211,-4.1211,-4.1211,-4.1211,-4.1211,-4.1211,-4.1211,-4.1211,-4.1211,-7.0514,-7.0514,-7.0514,-7.0514,-7.0514,-7.0514,-7.0514,-7.0514,-7.0478,-6.98,-6.8801,-6.8623,-6.7796,-6.6657,-6.6981,-6.7237,-6.7433,-6.7915,-6.8222,-6.8197,-6.6813,-6.518,-6.3973,-6.378,-6.383,-6.392,-6.4004,-6.3761,-6.3238,-6.2521,-6.176,-6.1027,-6.0302,-5.9923,-5.9885,-5.9885,-5.9885,-5.9885,-5.9885,-5.9885,-5.9885,-5.9885,-5.9696,-5.9165,-5.89,-5.7914,-5.6285,-5.5261,-5.3821,-5.204,-5.0903,-4.9917,-4.8742,-4.7832,-4.6973,-4.6415,-4.5977,-4.5763,-4.5552,-4.5671,-4.5781,-4.5786,-4.58,-4.58,-4.58,-4.58,-4.58,-4.58,-4.58,-4.58,-4.58,-4.58,-4.58,-4.58,-4.58,-4.58,-4.58,-4.5761,-4.58,-4.5684,-4.5413,-4.5104,-4.5104,-4.4601,-4.4214,-4.4059,-4.4253,-4.4175,-4.3982,-4.4136,-4.4136,-4.3943,-4.3763,-4.3402,-4.2986,-4.2791,-4.2291,-4.1727,-4.1042,-4.1108,-4.1133,-4.1172,-4.1172,-4.1211,-4.1211,-4.1211,-4.1211,-4.1211,-4.1211,-4.1211,-4.1211,-4.1211,-4.1211,-4.1211,-4.1211,-7.0514,-7.0514,-7.0514,-7.0514,-7.0514,-7.0514,-7.0514,-7.0514,-7.0514,-7.005,-6.9372,-6.9301,-6.8439,-6.741,-6.7595,-6.7746,-6.7579,-6.7989,-6.7986,-6.7703,-6.6638,-6.5236,-6.375,-6.3602,-6.3736,-6.383,-6.3835,-6.3712,-6.3274,-6.2598,-6.1842,-6.119,-6.0425,-5.9961,-5.9815,-5.9815,-5.9853,-5.9847,-5.9885,-5.9885,-5.9885,-5.9885,-5.9809,-5.9696,-5.9014,-5.8142,-5.6967,-5.6133,-5.5034,-5.276,-5.1812,-5.0599,-4.9235,-4.8894,-4.8048,-4.6985,-4.6694,-4.6411,-4.5956,-4.61,-4.6098,-4.6235,-4.6148,-4.5916,-4.5993,-4.5955,-4.58,-4.58,-4.58,-4.58,-4.58,-4.58,-4.58,-4.58,-4.58,-4.58,-4.58,-4.58,-4.58,-4.58,-4.58,-4.58,-4.58,-4.5761,-4.549,-4.4794,-4.4987,-4.4949,-4.4871,-4.4949,-4.491,-4.4755,-4.4576,-4.4357,-4.3955,-4.3596,-4.3,-4.2331,-4.1413,-4.1133,-4.1172,-4.1211,-4.1211,-4.1211,-4.1211,-4.1211,-4.1211,-4.1211,-4.1211,-4.1211,-4.1211,-4.1211,-4.1211,-4.1211,-4.1211,-7.0514,-7.0514,-7.0514,-7.0514,-7.0514,-7.0514,-7.0514,-7.0514,-7.0514,-7.0086,-6.9479,-6.9337,-6.8832,-6.8099,-6.8028,-6.8037,-6.8165,-6.8084,-6.7654,-6.6568,-6.6378,-6.5162,-6.3899,-6.3639,-6.3647,-6.3691,-6.3691,-6.3674,-6.3476,-6.2925,-6.2253,-6.1657,-6.0861,-6.0059,-5.9592,-5.9723,-5.9681,-5.9701,-5.9809,-5.9853,-5.9853,-5.9853,-5.9853,-5.9847,-5.9165,-5.8597,-5.799,-5.6891,-5.564,-5.4352,-5.2987,-5.1736,-5.0561,-4.9424,-4.8617,-4.8099,-4.7615,-4.7395,-4.7315,-4.7375,-4.767,-4.7534,-4.71,-4.6806,-4.6767,-4.6187,-4.5877,-4.58,-4.58,-4.58,-4.58,-4.58,-4.58,-4.58,-4.58,-4.58,-4.58,-4.58,-4.58,-4.58,-4.58,-4.58,-4.58,-4.58,-4.5684,-4.5529,-4.5568,-4.5645,-4.5684,-4.5684,-4.5529,-4.5297,-4.522,-4.5015,-4.4664,-4.4248,-4.3607,-4.2889,-4.1967,-4.1172,-4.1211,-4.1211,-4.1211,-4.1211,-4.1211,-4.1211,-4.1211,-4.1211,-4.1211,-4.1211,-4.1211,-4.1211,-4.1211,-4.1211,-4.1211,-6.9943,-6.9979,-7.0336,-7.0514,-7.0514,-7.0514,-7.0514,-7.0514,-7.0514,-7.0264,-6.9943,-6.9872,-6.9297,-6.8421,-6.8425,-6.84,-6.8147,-6.824,-6.7753,-6.6802,-6.6293,-6.5422,-6.4353,-6.375,-6.3602,-6.3602,-6.3602,-6.3698,-6.3649,-6.3131,-6.2582,-6.2293,-6.1507,-6.0715,-5.9955,-5.9962,-5.9811,-5.9505,-5.954,-5.965,-5.965,-5.965,-5.9685,-5.9715,-5.9299,-5.903,-5.8559,-5.7914,-5.6777,-5.5527,-5.4276,-5.2798,-5.1433,-5.0372,-4.9576,-4.8731,-4.8479,-4.8075,-4.7963,-4.801,-4.8137,-4.833,-4.7897,-4.754,-4.7192,-4.6612,-4.6187,-4.5916,-4.58,-4.58,-4.58,-4.58,-4.58,-4.58,-4.58,-4.58,-4.58,-4.58,-4.58,-4.58,-4.58,-4.58,-4.58,-4.58,-4.58,-4.5684,-4.5684,-4.5761,-4.5761,-4.5761,-4.5761,-4.5645,-4.5722,-4.5609,-4.5297,-4.4851,-4.4214,-4.3412,-4.2477,-4.1714,-4.1289,-4.125,-4.1211,-4.1211,-4.125,-4.1211,-4.1211,-4.1211,-4.1289,-4.125,-4.125,-4.1211,-4.1211,-4.1289,-4.125,-6.9194,-6.9372,-7.005,-7.0371,-7.0478,-7.0371,-7.03,-7.0232,-7.0193,-6.9907,-7.0122,-7.0122,-6.9189,-6.8665,-6.8641,-6.8255,-6.7963,-6.8121,-6.7926,-6.7172,-6.6675,-6.5905,-6.5022,-6.4316,-6.3899,-6.3788,-6.3676,-6.3736,-6.36,-6.3238,-6.2869,-6.2773,-6.2288,-6.1389,-6.0753,-6.0416,-6.0115,-5.9628,-5.944,-5.9364,-5.9327,-5.9327,-5.94,-5.9508,-5.954,-5.9307,-5.8987,-5.8527,-5.7914,-5.6474,-5.5564,-5.3897,-5.2229,-5.1168,-5.0713,-4.9186,-4.9176,-4.8905,-4.8608,-4.8567,-4.868,-4.8662,-4.8593,-4.8314,-4.7773,-4.7231,-4.6689,-4.6264,-4.5993,-4.58,-4.58,-4.58,-4.58,-4.58,-4.58,-4.58,-4.58,-4.58,-4.58,-4.58,-4.58,-4.58,-4.58,-4.58,-4.58,-4.58,-4.58,-4.58,-4.58,-4.58,-4.5786,-4.5786,-4.5786,-4.5893,-4.5664,-4.5182,-4.4546,-4.3973,-4.3066,-4.2298,-4.1562,-4.1289,-4.125,-4.1289,-4.1289,-4.1367,-4.1641,-4.1953,-4.1914,-4.1523,-4.1484,-4.1641,-4.1601,-4.1406,-4.1406,-6.8694,-6.9337,-6.9444,-6.9872,-7.0336,-6.98,-6.9483,-6.9379,-6.8908,-6.8485,-6.8556,-6.8551,-6.8612,-6.8307,-6.8136,-6.8049,-6.8047,-6.8321,-6.8123,-6.748,-6.7046,-6.6537,-6.5831,-6.4911,-6.4576,-6.4419,-6.401,-6.3647,-6.3647,-6.3461,-6.314,-6.2619,-6.2395,-6.1917,-6.1177,-6.0625,-6.0329,-5.9881,-5.955,-5.9365,-5.9215,-5.9215,-5.9253,-5.9327,-5.9436,-5.9467,-5.9345,-5.8878,-5.8218,-5.7232,-5.6436,-5.5072,-5.348,-5.2115,-5.1206,-5.0589,-5.005,-4.9668,-4.9618,-4.9928,-5.0163,-5.0195,-4.9814,-4.9498,-4.8933,-4.8043,-4.7308,-4.6728,-4.6225,-4.5838,-4.58,-4.58,-4.58,-4.58,-4.58,-4.58,-4.58,-4.58,-4.58,-4.58,-4.58,-4.58,-4.58,-4.58,-4.58,-4.58,-4.58,-4.5824,-4.581,-4.5771,-4.5771,-4.5771,-4.5771,-4.5917,-4.5959,-4.539,-4.4832,-4.445,-4.3693,-4.2882,-4.2187,-4.1562,-4.1367,-4.1758,-4.1953,-4.207,-4.2344,-4.2695,-4.2812,-4.2695,-4.2461,-4.2226,-4.2226,-4.2226,-4.1914,-6.7766,-6.8123,-6.8516,-6.8908,-6.9158,-6.8873,-6.8663,-6.8627,-6.8302,-6.8118,-6.8148,-6.8183,-6.807,-6.8031,-6.8162,-6.8201,-6.8254,-6.8408,-6.8234,-6.79,-6.7492,-6.7158,-6.6526,-6.545,-6.4939,-6.4568,-6.401,-6.3602,-6.3602,-6.3602,-6.3342,-6.3156,-6.3044,-6.2591,-6.1923,-6.1571,-6.0832,-6.0315,-5.9763,-5.9395,-5.9022,-5.9022,-5.9061,-5.914,-5.9215,-5.9327,-5.9397,-5.9348,-5.8736,-5.7975,-5.7207,-5.6209,-5.4882,-5.3442,-5.2077,-5.1347,-5.0582,-5.0201,-5.0329,-5.0486,-5.0605,-5.0769,-5.0471,-5.0117,-4.9707,-4.8894,-4.8043,-4.7231,-4.6844,-4.6264,-4.5877,-4.5838,-4.58,-4.58,-4.58,-4.58,-4.58,-4.58,-4.58,-4.58,-4.58,-4.58,-4.58,-4.58,-4.58,-4.58,-4.5786,-4.581,-4.5781,-4.5781,-4.5742,-4.5757,-4.5771,-4.5905,-4.6037,-4.5757,-4.5267,-4.4887,-4.4399,-4.3587,-4.3047,-4.2539,-4.25,-4.2734,-4.2851,-4.2812,-4.3047,-4.3359,-4.3594,-4.375,-4.3398,-4.3086,-4.3086,-4.2969,-4.2734,-6.6767,-6.6803,-6.7374,-6.7624,-6.7659,-6.7689,-6.7659,-6.7731,-6.7689,-6.7526,-6.7599,-6.7824,-6.7635,-6.7439,-6.7862,-6.8292,-6.8309,-6.8408,-6.8506,-6.8308,-6.7937,-6.7555,-6.7109,-6.6034,-6.5153,-6.5088,-6.4048,-6.3639,-6.3602,-6.3602,-6.3602,-6.3527,-6.3565,-6.3334,-6.274,-6.2339,-6.149,-6.0821,-5.9966,-5.9515,-5.8921,-5.8698,-5.8781,-5.8905,-5.8984,-5.9101,-5.9253,-5.9363,-5.9018,-5.8333,-5.764,-5.6904,-5.6064,-5.4587,-5.3101,-5.184,-5.0886,-5.0493,-5.0352,-5.0545,-5.0682,-5.0829,-5.0913,-5.0503,-5.0094,-4.9629,-4.8972,-4.7734,-4.7076,-4.6844,-4.6264,-4.5916,-4.5838,-4.58,-4.58,-4.58,-4.58,-4.58,-4.58,-4.58,-4.58,-4.58,-4.58,-4.58,-4.58,-4.58,-4.5824,-4.5781,-4.5765,-4.575,-4.5712,-4.5742,-4.5786,-4.5893,-4.6007,-4.6099,-4.5741,-4.5441,-4.4987,-4.437,-4.3984,-4.3633,-4.3711,-4.3672,-4.3594,-4.3594,-4.3828,-4.4141,-4.4609,-4.4687,-4.4219,-4.3984,-4.3984,-4.3906,-4.3672,-6.5946,-6.5946,-6.6018,-6.6053,-6.6053,-6.6245,-6.6232,-6.6287,-6.6451,-6.6163,-6.5844,-6.6474,-6.6627,-6.668,-6.763,-6.8144,-6.8309,-6.8408,-6.8506,-6.8468,-6.8308,-6.816,-6.8011,-6.6722,-6.5784,-6.5385,-6.4233,-6.3713,-6.3602,-6.3602,-6.3602,-6.3602,-6.3602,-6.3527,-6.326,-6.2859,-6.2331,-6.1842,-6.0624,-5.9552,-5.8921,-5.8735,-5.8739,-5.8821,-5.8942,-5.8984,-5.9063,-5.9215,-5.8989,-5.8275,-5.7548,-5.6781,-5.5837,-5.4557,-5.3829,-5.3054,-5.214,-5.0977,-5.0574,-5.0504,-5.0664,-5.0812,-5.088,-5.0813,-5.0558,-5.0094,-4.9397,-4.8392,-4.7695,-4.7115,-4.6767,-4.6225,-4.5955,-4.58,-4.58,-4.58,-4.58,-4.58,-4.58,-4.58,-4.58,-4.58,-4.58,-4.58,-4.58,-4.5786,-4.581,-4.5781,-4.5735,-4.568,-4.568,-4.5712,-4.5786,-4.5893,-4.5997,-4.6091,-4.6086,-4.587,-4.5531,-4.511,-4.4922,-4.4648,-4.4492,-4.4453,-4.4414,-4.4531,-4.4766,-4.5195,-4.5742,-4.5625,-4.5117,-4.4922,-4.4844,-4.4726,-4.4609,-6.4055,-6.4448,-6.4572,-6.4634,-6.4731,-6.4878,-6.4972,-6.5037,-6.5202,-6.5125,-6.4968,-6.5405,-6.5898,-6.6492,-6.7294,-6.7864,-6.8297,-6.8457,-6.8506,-6.8506,-6.8468,-6.8246,-6.7625,-6.6648,-6.5979,-6.5162,-6.4308,-6.3676,-6.3602,-6.3602,-6.3602,-6.3602,-6.3602,-6.3602,-6.3602,-6.3267,-6.2851,-6.2109,-6.0927,-5.9897,-5.945,-5.9123,-5.8902,-5.8902,-5.8945,-5.8945,-5.9022,-5.9139,-5.9065,-5.8541,-5.7976,-5.7256,-5.6425,-5.5465,-5.4616,-5.3475,-5.3148,-5.2272,-5.1285,-5.0832,-5.0741,-5.0812,-5.0897,-5.089,-5.0828,-5.0558,-5.0016,-4.9204,-4.8817,-4.8198,-4.7347,-4.6767,-4.6303,-4.6032,-4.5877,-4.58,-4.58,-4.58,-4.58,-4.58,-4.58,-4.58,-4.58,-4.58,-4.58,-4.5786,-4.5757,-4.5712,-4.5703,-4.5671,-4.5648,-4.5696,-4.5786,-4.5919,-4.5997,-4.6083,-4.6183,-4.6045,-4.6105,-4.5802,-4.5768,-4.5586,-4.5349,-4.539,-4.5508,-4.5625,-4.5742,-4.5859,-4.6055,-4.6055,-4.5976,-4.5742,-4.5547,-4.5664,-4.5547,-6.1974,-6.2355,-6.2725,-6.2974,-6.3185,-6.3502,-6.3877,-6.4207,-6.4581,-6.4599,-6.4494,-6.4802,-6.5543,-6.6531,-6.7012,-6.7555,-6.8171,-6.8394,-6.8506,-6.8506,-6.8246,-6.7837,-6.7178,-6.6361,-6.5385,-6.4753,-6.4048,-6.3639,-6.3602,-6.3602,-6.3602,-6.3602,-6.3602,-6.3602,-6.3602,-6.349,-6.3148,-6.2376,-6.1204,-6.0431,-6.0024,-5.9474,-5.9175,-5.9063,-5.9063,-5.9061,-5.8942,-5.9022,-5.9061,-5.8798,-5.8278,-5.7528,-5.6701,-5.5973,-5.5088,-5.4125,-5.3718,-5.3353,-5.2341,-5.1638,-5.1029,-5.0885,-5.0913,-5.0906,-5.0906,-5.0906,-5.0751,-5.0016,-4.9629,-4.8894,-4.8043,-4.7502,-4.6806,-4.6341,-4.5993,-4.5877,-4.5838,-4.5877,-4.5877,-4.58,-4.58,-4.5786,-4.5786,-4.5824,-4.5786,-4.5786,-4.5757,-4.568,-4.5632,-4.5637,-4.5654,-4.5665,-4.5771,-4.5906,-4.5964,-4.6056,-4.613,-4.622,-4.6284,-4.6261,-4.6114,-4.6117,-4.6005,-4.6168,-4.6288,-4.6211,-4.6016,-4.6172,-4.6289,-4.6211,-4.6133,-4.6211,-4.6211,-4.6289,-4.625,-5.9916,-5.9454,-6.0208,-6.0791,-6.1172,-6.2093,-6.302,-6.3675,-6.4563,-6.4598,-6.4123,-6.4493,-6.5112,-6.6034,-6.6712,-6.712,-6.7465,-6.8171,-6.8394,-6.8197,-6.7826,-6.7428,-6.6732,-6.5849,-6.4874,-6.4605,-6.3973,-6.3639,-6.3602,-6.3602,-6.3602,-6.3602,-6.3602,-6.3602,-6.3602,-6.3565,-6.3312,-6.2693,-6.1815,-6.108,-6.0525,-5.9891,-5.9477,-5.9328,-5.9253,-5.9178,-5.8984,-5.9022,-5.8942,-5.8825,-5.8387,-5.7716,-5.6966,-5.6425,-5.5541,-5.4836,-5.4306,-5.3977,-5.3383,-5.2466,-5.1568,-5.1099,-5.0858,-5.0906,-5.0906,-5.0906,-5.0828,-5.0674,-5.021,-4.9745,-4.8972,-4.8275,-4.754,-4.7038,-4.6728,-4.6535,-4.638,-4.6071,-4.6032,-4.5877,-4.58,-4.5786,-4.581,-4.581,-4.5795,-4.5757,-4.5727,-4.5687,-4.5654,-4.5603,-4.5637,-4.5687,-4.5742,-4.5841,-4.5929,-4.6027,-4.6169,-4.622,-4.6284,-4.6296,-4.6264,-4.6306,-4.6309,-4.6315,-4.6289,-4.6289,-4.6289,-4.6289,-4.6289,-4.6289,-4.6306,-4.6315,-4.6282,-4.6286,-4.6289,-5.8826,-5.8802,-5.874,-5.9401,-6.05,-6.1043,-6.1532,-6.1972,-6.2413,-6.2845,-6.3156,-6.3705,-6.4485,-6.5236,-6.5608,-6.6425,-6.7205,-6.7577,-6.8023,-6.8123,-6.7789,-6.7057,-6.6333,-6.5485,-6.4539,-6.4122,-6.3713,-6.3602,-6.3602,-6.3602,-6.3602,-6.3602,-6.3602,-6.3602,-6.3602,-6.3602,-6.3468,-6.3307,-6.2728,-6.2066,-6.1394,-6.0748,-6.021,-5.9685,-5.9578,-5.9472,-5.929,-5.9178,-5.91,-5.8986,-5.8763,-5.8128,-5.749,-5.6983,-5.6285,-5.5541,-5.5064,-5.4689,-5.4204,-5.3336,-5.2473,-5.173,-5.1277,-5.0945,-5.1022,-5.0945,-5.0906,-5.079,-5.0635,-5.0248,-4.9552,-4.9088,-4.8624,-4.8043,-4.7579,-4.7308,-4.7076,-4.6767,-4.6612,-4.6651,-4.6148,-4.5786,-4.581,-4.5795,-4.5781,-4.5727,-4.5719,-4.5671,-4.562,-4.5603,-4.5637,-4.5687,-4.5742,-4.5854,-4.5941,-4.6056,-4.6183,-4.622,-4.6284,-4.6292,-4.63,-4.63,-4.6306,-4.6306,-4.6312,-4.6289,-4.6289,-4.6289,-4.6289,-4.6289,-4.6306,-4.6303,-4.6315,-4.6284,-4.6289,-5.8223,-5.8336,-5.8077,-5.8721,-5.9979,-6.0241,-6.0591,-6.0896,-6.1115,-6.1545,-6.245,-6.3044,-6.3713,-6.4308,-6.4828,-6.5348,-6.6425,-6.702,-6.7417,-6.7406,-6.7024,-6.6462,-6.5663,-6.4845,-6.4093,-6.3676,-6.3602,-6.3602,-6.3602,-6.3602,-6.3602,-6.3602,-6.3602,-6.3602,-6.3602,-6.3654,-6.3742,-6.3813,-6.3378,-6.2787,-6.2102,-6.151,-6.0773,-6.0127,-5.988,-5.9715,-5.9578,-5.9436,-5.9364,-5.929,-5.9178,-5.8839,-5.8307,-5.7725,-5.7131,-5.6434,-5.5897,-5.5461,-5.4776,-5.3822,-5.3145,-5.2592,-5.2182,-5.1718,-5.137,-5.1254,-5.1331,-5.0906,-5.0867,-5.0674,-5.0016,-4.9707,-4.9359,-4.874,-4.8237,-4.7927,-4.7889,-4.7695,-4.7579,-4.7502,-4.6868,-4.6274,-4.6036,-4.6044,-4.5719,-4.5719,-4.5703,-4.5654,-4.562,-4.5603,-4.5637,-4.5665,-4.5757,-4.5867,-4.5964,-4.6065,-4.6176,-4.6209,-4.6275,-4.6292,-4.63,-4.63,-4.6306,-4.6312,-4.6278,-4.628,-4.6289,-4.6289,-4.6289,-4.6289,-4.6312,-4.6306,-4.6303,-4.6315,-4.6285,-5.8201,-5.7894,-5.8179,-5.8799,-5.9575,-5.9745,-6.0277,-6.084,-6.1032,-6.1484,-6.2116,-6.2413,-6.2896,-6.3676,-6.4316,-6.4911,-6.5477,-6.6509,-6.6982,-6.6553,-6.6357,-6.571,-6.4993,-6.4338,-6.3885,-6.3684,-6.3647,-6.3691,-6.3602,-6.3647,-6.3602,-6.3639,-6.3639,-6.3639,-6.3602,-6.3755,-6.4009,-6.4215,-6.3653,-6.3192,-6.2482,-6.198,-6.1285,-6.0446,-6.0159,-6.0007,-5.9853,-5.9715,-5.9647,-5.9578,-5.954,-5.9197,-5.8661,-5.8527,-5.781,-5.6654,-5.6665,-5.6345,-5.571,-5.4264,-5.3679,-5.3442,-5.3072,-5.2763,-5.2298,-5.2105,-5.1834,-5.137,-5.1099,-5.0983,-5.0596,-5.0248,-4.99,-4.9591,-4.9088,-4.8894,-4.8856,-4.8585,-4.843,-4.8275,-4.7627,-4.7001,-4.6645,-4.6287,-4.5847,-4.5693,-4.5693,-4.5637,-4.5603,-4.5603,-4.5637,-4.5687,-4.5742,-4.5841,-4.5941,-4.6017,-4.6123,-4.6196,-4.627,-4.6288,-4.6296,-4.63,-4.6306,-4.6278,-4.6315,-4.6312,-4.6285,-4.6289,-4.6289,-4.6289,-4.6289,-4.6309,-4.6306,-4.6306,-4.6282,-5.8124,-5.8275,-5.8449,-5.8805,-5.9153,-5.9144,-5.9287,-5.9589,-6.0115,-6.0524,-6.0964,-6.1819,-6.2569,-6.3133,-6.3773,-6.4494,-6.5179,-6.5447,-6.5844,-6.6425,-6.5942,-6.5664,-6.5052,-6.4421,-6.4,-6.3915,-6.3953,-6.3823,-6.3736,-6.3736,-6.3647,-6.3602,-6.387,-6.3803,-6.3841,-6.3981,-6.4219,-6.4445,-6.4291,-6.393,-6.2826,-6.251,-6.1868,-6.0567,-6.0436,-6.0256,-6.0045,-5.9982,-5.9912,-5.9906,-5.9906,-5.9747,-5.9422,-5.9388,-5.8547,-5.7532,-5.7344,-5.6652,-5.6097,-5.5281,-5.4912,-5.4465,-5.3923,-5.3536,-5.3072,-5.3088,-5.2569,-5.1989,-5.1718,-5.1447,-5.0906,-5.0751,-5.0519,-5.0519,-5.0248,-5.021,-5.0094,-4.9591,-4.9243,-4.901,-4.8531,-4.7581,-4.6992,-4.6463,-4.6005,-4.5659,-4.562,-4.562,-4.5603,-4.5603,-4.562,-4.5671,-4.575,-4.5814,-4.5917,-4.6037,-4.6115,-4.6196,-4.6265,-4.6288,-4.6296,-4.63,-4.6306,-4.6315,-4.6309,-4.6306,-4.6282,-4.6289,-4.6289,-4.6289,-4.6289,-4.6289,-4.6312,-4.6309,-4.6315,-5.8231,-5.8619,-5.8825,-5.9022,-5.9101,-5.8865,-5.8821,-5.8896,-5.9384,-5.9756,-6.0236,-6.1284,-6.2146,-6.2715,-6.3322,-6.4079,-6.4916,-6.537,-6.5223,-6.5966,-6.5776,-6.5403,-6.5009,-6.4634,-6.4292,-6.4212,-6.4125,-6.4042,-6.3867,-6.3823,-6.401,-6.4271,-6.4376,-6.4673,-6.4625,-6.4558,-6.4468,-6.4734,-6.4757,-6.4464,-6.3618,-6.3034,-6.2425,-6.139,-6.0801,-6.0464,-6.0352,-6.0256,-6.0217,-6.0237,-6.0304,-6.0304,-6.0223,-5.9932,-5.9281,-5.8635,-5.7632,-5.6869,-5.6173,-5.5938,-5.5513,-5.5277,-5.4619,-5.4271,-5.4039,-5.3962,-5.342,-5.2917,-5.2492,-5.195,-5.1447,-5.1293,-5.0945,-5.0945,-5.0867,-5.0828,-5.0712,-5.0132,-5.0016,-4.9784,-4.9235,-4.826,-4.7284,-4.6694,-4.6124,-4.5855,-4.5603,-4.5586,-4.5586,-4.5603,-4.562,-4.5687,-4.575,-4.5814,-4.5917,-4.6017,-4.6091,-4.619,-4.622,-4.6284,-4.6296,-4.63,-4.6309,-4.6315,-4.6278,-4.628,-4.6282,-4.6289,-4.6289,-4.6289,-4.6289,-4.6289,-4.6289,-4.6289,-4.6289,-5.8498,-5.8865,-5.9178,-5.9364,-5.9363,-5.9178,-5.9063,-5.9024,-5.9024,-5.9472,-6.0182,-6.0374,-6.1426,-6.2703,-6.3048,-6.369,-6.452,-6.5313,-6.5238,-6.5125,-6.5421,-6.5124,-6.4891,-6.4647,-6.4585,-6.4445,-6.4328,-6.4289,-6.3963,-6.4,-6.4416,-6.4903,-6.5047,-6.5226,-6.5124,-6.4989,-6.4851,-6.5073,-6.5137,-6.4794,-6.4162,-6.3629,-6.2849,-6.1927,-6.125,-6.0827,-6.0659,-6.0518,-6.0533,-6.0559,-6.0559,-6.0585,-6.0585,-6.0585,-6.0123,-5.9281,-5.7927,-5.6946,-5.6154,-5.6018,-5.5998,-5.5801,-5.5818,-5.547,-5.5084,-5.4774,-5.4349,-5.3691,-5.3149,-5.2608,-5.2105,-5.1563,-5.1061,-5.0983,-5.0906,-5.0906,-5.0906,-5.0735,-5.0735,-5.041,-4.9782,-4.8866,-4.7812,-4.7066,-4.6509,-4.6124,-4.5817,-4.5586,-4.5586,-4.5586,-4.562,-4.5687,-4.5765,-4.5814,-4.5917,-4.6017,-4.6091,-4.619,-4.6215,-4.6236,-4.6288,-4.6303,-4.6312,-4.628,-4.6287,-4.6289,-4.6289,-4.6289,-4.6289,-4.6289,-4.6289,-4.6289,-4.6289,-4.6289,-4.6289,-5.9064,-5.9364,-5.9505,-5.9647,-5.9715,-5.9571,-5.9467,-5.9361,-5.9354,-5.9543,-5.9739,-6.0415,-6.128,-6.2371,-6.3048,-6.3911,-6.462,-6.5107,-6.5209,-6.5251,-6.5376,-6.5285,-6.5188,-6.5116,-6.5029,-6.4909,-6.4813,-6.4595,-6.4367,-6.4249,-6.4326,-6.4706,-6.5226,-6.5351,-6.5407,-6.5268,-6.5299,-6.5299,-6.5397,-6.512,-6.4703,-6.4219,-6.3322,-6.2463,-6.1824,-6.1313,-6.0891,-6.0687,-6.0635,-6.0671,-6.0685,-6.0685,-6.0734,-6.0695,-6.0281,-5.8748,-5.7677,-5.6831,-5.6117,-5.5961,-5.598,-5.5998,-5.5977,-5.5973,-5.5702,-5.547,-5.52,-5.4542,-5.3962,-5.3459,-5.2647,-5.195,-5.137,-5.1022,-5.0945,-5.089,-5.089,-5.0913,-5.0913,-5.067,-5.0079,-4.9504,-4.8392,-4.7586,-4.7048,-4.6547,-4.6163,-4.597,-4.5663,-4.5701,-4.5637,-4.5703,-4.5781,-4.5827,-4.5917,-4.6017,-4.6091,-4.619,-4.6209,-4.6314,-4.6459,-4.6468,-4.6354,-4.6328,-4.6406,-4.6367,-4.6289,-4.6289,-4.6289,-4.6289,-4.6289,-4.6289,-4.6289,-4.6289,-4.6289,-5.947,-5.9748,-5.9842,-5.9975,-6.0137,-6.003,-5.9937,-5.9836,-5.9646,-5.955,-5.9616,-6.0172,-6.0959,-6.1822,-6.2753,-6.3753,-6.4679,-6.5199,-6.5375,-6.5413,-6.549,-6.5452,-6.5494,-6.5465,-6.535,-6.5268,-6.5117,-6.4917,-6.4668,-6.4596,-6.4671,-6.5385,-6.5388,-6.5606,-6.5824,-6.6011,-6.5838,-6.5723,-6.5569,-6.5421,-6.5102,-6.4744,-6.3872,-6.3142,-6.2579,-6.1757,-6.1243,-6.0992,-6.071,-6.0742,-6.0734,-6.0757,-6.0781,-6.0742,-6.0012,-5.8671,-5.8,-5.7002,-5.6174,-5.5905,-5.5943,-5.598,-5.5998,-5.5977,-5.5956,-5.5818,-5.5625,-5.5277,-5.4851,-5.4271,-5.3304,-5.2337,-5.1641,-5.0983,-5.0929,-5.089,-5.0913,-5.0897,-5.0825,-5.0752,-5.0352,-4.9892,-4.9162,-4.8297,-4.7702,-4.7394,-4.7201,-4.7048,-4.6509,-4.6009,-4.5847,-4.5735,-4.5795,-4.5827,-4.5968,-4.6105,-4.6138,-4.6183,-4.6274,-4.6387,-4.658,-4.6829,-4.691,-4.6758,-4.6523,-4.6445,-4.6289,-4.6289,-4.6289,-4.6289,-4.6289,-4.6289,-4.6289,-4.6289,-4.6289,-5.9809,-5.9969,-6.0121,-6.0275,-6.0491,-6.037,-6.0342,-6.0342,-5.9862,-5.9678,-5.9748,-5.995,-6.0608,-6.1545,-6.2604,-6.3523,-6.4461,-6.514,-6.558,-6.5608,-6.5646,-6.5646,-6.5624,-6.5525,-6.5214,-6.5235,-6.5047,-6.4572,-6.4761,-6.4845,-6.5293,-6.6336,-6.6197,-6.6173,-6.626,-6.6408,-6.6166,-6.5832,-6.5793,-6.5705,-6.5603,-6.5166,-6.4628,-6.4243,-6.3243,-6.2151,-6.1843,-6.142,-6.0781,-6.0781,-6.0781,-6.0781,-6.0781,-6.055,-5.9627,-5.8742,-5.8033,-5.7093,-5.621,-5.5845,-5.5905,-5.5943,-5.6018,-5.5998,-5.5995,-5.6012,-5.5818,-5.5741,-5.5316,-5.4503,-5.3536,-5.284,-5.2182,-5.1354,-5.0929,-5.0913,-5.0897,-5.0863,-5.0812,-5.0699,-5.0586,-5.0163,-4.9836,-4.9009,-4.8509,-4.8279,-4.7932,-4.7817,-4.7509,-4.674,-4.654,-4.6291,-4.6197,-4.6306,-4.6286,-4.6367,-4.6185,-4.6222,-4.6398,-4.6699,-4.709,-4.734,-4.7578,-4.7187,-4.6758,-4.6445,-4.6289,-4.6289,-4.6289,-4.6289,-4.6289,-4.6289,-4.6289,-4.6289,-4.6289,-6.0159,-6.0285,-6.0342,-6.0408,-6.0398,-6.0332,-6.0342,-6.0323,-6.0074,-6.0074,-6.0246,-6.0418,-6.0818,-6.16,-6.2498,-6.3461,-6.4358,-6.5087,-6.5678,-6.5781,-6.5781,-6.5666,-6.5615,-6.518,-6.4859,-6.45,-6.42,-6.4126,-6.4474,-6.4932,-6.5383,-6.5711,-6.5834,-6.5992,-6.6134,-6.6218,-6.6051,-6.5872,-6.5872,-6.5872,-6.5782,-6.5667,-6.532,-6.4589,-6.3551,-6.2743,-6.2228,-6.1358,-6.0935,-6.0781,-6.0781,-6.0781,-6.0781,-6.0204,-5.9358,-5.8434,-5.7742,-5.684,-5.6169,-5.5787,-5.5865,-5.5924,-5.5961,-5.5998,-5.5995,-5.5995,-5.5973,-5.5935,-5.5586,-5.4735,-5.3884,-5.3265,-5.2569,-5.1702,-5.0913,-5.0897,-5.0919,-5.0812,-5.0758,-5.0721,-5.0702,-5.0491,-5.024,-4.9894,-4.9433,-4.8894,-4.8317,-4.8086,-4.8202,-4.7817,-4.7948,-4.7648,-4.7032,-4.6939,-4.689,-4.687,-4.6839,-4.6844,-4.7064,-4.7357,-4.7681,-4.7769,-4.785,-4.7413,-4.6992,-4.659,-4.6282,-4.6289,-4.6289,-4.6289,-4.6289,-4.6289,-4.6289,-4.6289,-4.6289,-6.0453,-6.0506,-6.048,-6.0518,-6.0453,-6.036,-6.037,-6.038,-6.0332,-6.0414,-6.0559,-6.0571,-6.0839,-6.1416,-6.2247,-6.3143,-6.4014,-6.4885,-6.5423,-6.5743,-6.5705,-6.5551,-6.5243,-6.4768,-6.4308,-6.3937,-6.4001,-6.4112,-6.4326,-6.5063,-6.5523,-6.5618,-6.5674,-6.574,-6.582,-6.5833,-6.5859,-6.5897,-6.5897,-6.5897,-6.5897,-6.5782,-6.5743,-6.4974,-6.432,-6.3474,-6.2666,-6.182,-6.1243,-6.0935,-6.0781,-6.0781,-6.0589,-6.0012,-5.9165,-5.8319,-5.7511,-5.6648,-5.6053,-5.5787,-5.5865,-5.5924,-5.5943,-5.5998,-5.5995,-5.6012,-5.6012,-5.5973,-5.5973,-5.5238,-5.4039,-5.3265,-5.236,-5.1454,-5.1051,-5.088,-5.0829,-5.0758,-5.0721,-5.0702,-5.0683,-5.0664,-5.0452,-5.0433,-5.0048,-5.001,-4.9356,-4.9163,-4.9125,-4.8894,-4.9065,-4.8964,-4.8276,-4.7895,-4.7854,-4.779,-4.769,-4.7728,-4.7748,-4.8333,-4.8766,-4.8391,-4.8082,-4.7874,-4.7389,-4.6487,-4.63,-4.6345,-4.6315,-4.6289,-4.6289,-4.6289,-4.6328,-4.6406,-4.6406,-6.066,-6.0685,-6.061,-6.0559,-6.0597,-6.0491,-6.0464,-6.048,-6.0506,-6.0585,-6.066,-6.0559,-6.0559,-6.0942,-6.1656,-6.2411,-6.3243,-6.4026,-6.482,-6.5205,-6.5359,-6.4897,-6.4512,-6.4166,-6.3438,-6.331,-6.3526,-6.3794,-6.4101,-6.5022,-6.5674,-6.5767,-6.5832,-6.5805,-6.5872,-6.5897,-6.5897,-6.5897,-6.5897,-6.5897,-6.5897,-6.5897,-6.582,-6.5551,-6.5051,-6.4205,-6.3358,-6.2512,-6.1666,-6.1166,-6.0781,-6.0781,-6.055,-5.9973,-5.9165,-5.8319,-5.7473,-5.6669,-5.5997,-5.5787,-5.5885,-5.5943,-5.5961,-5.5998,-5.5995,-5.6012,-5.6012,-5.6012,-5.6012,-5.5509,-5.4349,-5.3288,-5.2343,-5.146,-5.1172,-5.0868,-5.0758,-5.0702,-5.0683,-5.0702,-5.0683,-5.0702,-5.0664,-5.0682,-5.0664,-5.0683,-5.0702,-5.0702,-5.051,-5.0106,-4.9932,-4.9833,-4.944,-4.9121,-4.8816,-4.8505,-4.8327,-4.8443,-4.8577,-4.9367,-4.9805,-4.9348,-4.8961,-4.872,-4.8118,-4.7011,-4.6465,-4.6435,-4.6366,-4.6378,-4.6289,-4.6367,-4.6758,-4.6797,-4.668,-6.0804,-6.0796,-6.0585,-6.0571,-6.0559,-6.0506,-6.0506,-6.0559,-6.0559,-6.061,-6.0685,-6.0685,-6.0685,-6.0772,-6.168,-6.232,-6.2551,-6.3281,-6.3474,-6.3743,-6.4141,-6.3834,-6.3424,-6.2938,-6.2004,-6.2145,-6.2758,-6.3322,-6.4077,-6.5152,-6.5793,-6.5872,-6.5872,-6.5872,-6.5872,-6.5897,-6.5897,-6.5897,-6.5897,-6.5897,-6.5897,-6.5897,-6.5897,-6.5551,-6.5051,-6.4205,-6.3358,-6.2512,-6.1704,-6.1089,-6.0781,-6.0781,-6.0512,-5.9973,-5.9165,-5.8319,-5.7473,-5.6669,-5.6095,-5.5884,-5.5905,-5.5961,-5.5998,-5.5998,-5.5995,-5.5995,-5.5995,-5.5995,-5.5879,-5.5569,-5.4602,-5.3696,-5.2773,-5.1812,-5.1254,-5.0912,-5.0702,-5.0683,-5.0664,-5.0664,-5.0683,-5.0683,-5.0683,-5.0683,-5.0683,-5.0683,-5.0702,-5.0702,-5.0702,-5.0683,-5.0721,-5.0508,-5.0254,-5.0039,-4.9627,-4.9027,-4.8866,-4.9005,-4.9354,-5.0024,-5.0342,-5.0231,-4.9887,-4.9412,-4.8548,-4.7476,-4.7093,-4.682,-4.6655,-4.6635,-4.6374,-4.6445,-4.6992,-4.7344,-4.7344]}]]